[[{"header":{"parameterUnit":"m.s-1","parameterCategory":1,"la1":30.6,"la2":28.766,"lo1":-90.7593,"lo2":-88.6598,"dy":0.0162,"dx":0.0183,"nx":116,"ny":114,"refTime":"2024-05-17T06:00:00:Z","depth":0,"parameterNumber":2,"parameterNumberName":"U-component_of_WINDS"},"data":[0.0,0.0,0.0,0.0,0.0,0.0,0.0,0.0,0.0,0.0,0.0,0.0,0.0,0.0,0.0,0.0,0.0,0.0,0.0,0.0,0.0,0.0,0.0,0.0,0.0,0.0,0.0,0.0,0.0,0.0,0.0,0.0,0.0,0.0,0.0,0.0,0.0,0.0,0.0,0.0,0.0,0.0,0.0,0.0,0.0,0.0,0.0,0.0,0.0,0.0,0.0,0.0,0.0,0.0,0.0,0.0,0.0,0.0,0.0,0.0,0.0,0.0,0.0,0.0,0.0,0.0,0.0,0.0,0.0,0.0,0.0,0.0,0.0,0.0,0.0,0.0,0.0,0.0,0.0,0.0,0.0,0.0,0.0,0.0,0.0,0.0,0.0,0.0,0.0,0.0,0.0,0.0,0.0,0.0,0.0,0.0,0.0,0.0,0.0,0.0,0.0,0.0,0.0,0.0,0.0,0.0,0.0,0.0,0.0,0.0,0.0,0.0,0.0,0.0,0.0,0.0,0.0,0.0,0.0,0.0,0.0,0.0,0.0,0.0,0.0,0.0,0.0,0.0,0.0,0.0,0.0,0.0,0.0,0.0,0.0,0.0,0.0,0.0,0.0,0.0,0.0,0.0,0.0,0.0,0.0,0.0,0.0,0.0,0.0,0.0,0.0,0.0,0.0,0.0,0.0,0.0,0.0,0.0,0.0,0.0,0.0,0.0,0.0,0.0,0.0,0.0,0.0,0.0,0.0,0.0,0.0,0.0,0.0,0.0,0.0,0.0,0.0,0.0,0.0,0.0,0.0,0.0,0.0,0.0,0.0,0.0,0.0,0.0,0.0,0.0,0.0,0.0,0.0,0.0,0.0,0.0,0.0,0.0,0.0,0.0,0.0,0.0,0.0,0.0,0.0,0.0,0.0,0.0,0.0,0.0,0.0,0.0,0.0,0.0,0.0,0.0,0.0,0.0,0.0,0.0,0.0,0.0,0.0,0.0,0.0,0.0,0.0,0.0,0.0,0.0,0.0,0.0,0.0,0.0,0.0,0.0,0.0,0.0,0.0,0.0,0.0,0.0,0.0,0.0,0.0,0.0,0.0,0.0,0.0,0.0,0.0,0.0,0.0,0.0,0.0,0.0,0.0,0.0,0.0,0.0,0.0,0.0,0.0,0.0,0.0,0.0,0.0,0.0,0.0,0.0,0.0,0.0,0.0,0.0,0.0,0.0,0.0,0.0,0.0,0.0,0.0,0.0,0.0,0.0,0.0,0.0,0.0,0.0,0.0,0.0,0.0,0.0,0.0,0.0,0.0,0.0,0.0,0.0,0.0,0.0,0.0,0.0,0.0,0.0,0.0,0.0,0.0,0.0,0.0,0.0,0.0,0.0,0.0,0.0,0.0,0.0,0.0,0.0,0.0,0.0,0.0,0.0,0.0,0.0,0.0,0.0,0.0,0.0,0.0,0.0,0.0,0.0,0.0,0.0,0.0,0.0,0.0,0.0,0.0,0.0,0.0,0.0,0.0,0.0,0.0,0.0,0.0,0.0,0.0,0.0,0.0,0.0,0.0,0.0,0.0,0.0,0.0,0.0,0.0,0.0,0.0,0.0,0.0,0.0,0.0,0.0,0.0,0.0,0.0,0.0,0.0,0.0,0.0,0.0,0.0,0.0,0.0,0.0,0.0,0.0,0.0,0.0,0.0,0.0,0.0,0.0,0.0,0.0,0.0,0.0,0.0,0.0,0.0,0.0,0.0,0.0,0.0,0.0,0.0,0.0,0.0,0.0,0.0,0.0,0.0,0.0,0.0,0.0,0.0,0.0,0.0,0.0,0.0,0.0,0.0,0.0,0.0,0.0,0.0,0.0,0.0,0.0,0.0,0.0,0.0,0.0,0.0,0.0,0.0,0.0,0.0,0.0,0.0,0.0,0.0,0.0,0.0,0.0,0.0,0.0,0.0,0.0,0.0,0.0,0.0,0.0,0.0,0.0,0.0,0.0,0.0,0.0,0.0,0.0,0.0,0.0,0.0,0.0,0.0,0.0,0.0,0.0,0.0,0.0,0.0,0.0,0.0,0.0,0.0,0.0,0.0,0.0,0.0,0.0,0.0,0.0,0.0,0.0,0.0,0.0,0.0,0.0,0.0,0.0,0.0,0.0,0.0,0.0,0.0,0.0,0.0,0.0,0.0,0.0,0.0,0.0,0.0,0.0,0.0,0.0,0.0,0.0,0.0,0.0,0.0,0.0,0.0,0.0,0.0,0.0,0.0,0.0,0.0,0.0,0.0,0.0,0.0,0.0,0.0,0.0,0.0,0.0,0.0,0.0,0.0,0.0,0.0,0.0,0.0,0.0,0.0,0.0,0.0,0.0,0.0,0.0,0.0,0.0,0.0,0.0,0.0,0.0,0.0,0.0,0.0,0.0,0.0,0.0,0.0,0.0,0.0,0.0,0.0,0.0,0.0,0.0,0.0,0.0,0.0,0.0,0.0,0.0,0.0,0.0,0.0,0.0,0.0,0.0,0.0,0.0,0.0,0.0,0.0,0.0,0.0,0.0,0.0,0.0,0.0,0.0,0.0,0.0,0.0,0.0,0.0,0.0,0.0,0.0,0.0,0.0,0.0,0.0,0.0,0.0,0.0,0.0,0.0,0.0,0.0,0.0,0.0,0.0,0.0,0.0,0.0,0.0,0.0,0.0,0.0,0.0,0.0,0.0,0.0,0.0,0.0,0.0,0.0,0.0,0.0,0.0,0.0,0.0,0.0,0.0,0.0,0.0,0.0,0.0,0.0,0.0,0.0,0.0,0.0,0.0,0.0,0.0,0.0,0.0,0.0,0.0,0.0,0.0,0.0,0.0,0.0,0.0,0.0,0.0,0.0,0.0,0.0,0.0,0.0,0.0,0.0,0.0,0.0,0.0,0.0,0.0,0.0,0.0,0.0,0.0,0.0,0.0,0.0,0.0,0.0,0.0,0.0,0.0,0.0,0.0,0.0,0.0,0.0,0.0,0.0,0.0,0.0,0.0,0.0,0.0,0.0,0.0,0.0,0.0,0.0,0.0,0.0,0.0,0.0,0.0,0.0,0.0,0.0,0.0,0.0,0.0,0.0,0.0,0.0,0.0,0.0,0.0,0.0,0.0,0.0,0.0,0.0,0.0,0.0,0.0,0.0,0.0,0.0,0.0,0.0,0.0,0.0,0.0,0.0,0.0,0.0,0.0,0.0,0.0,0.0,0.0,0.0,0.0,0.0,0.0,0.0,0.0,0.0,0.0,0.0,0.0,0.0,0.0,0.0,0.0,0.0,0.0,0.0,0.0,0.0,0.0,0.0,0.0,0.0,0.0,0.0,0.0,0.0,0.0,0.0,0.0,0.0,0.0,0.0,0.0,0.0,0.0,0.0,0.0,0.0,0.0,0.0,0.0,0.0,0.0,0.0,0.0,0.0,0.0,0.0,0.0,0.0,0.0,0.0,0.0,0.0,0.0,0.0,0.0,0.0,0.0,0.0,0.0,0.0,0.0,0.0,0.0,0.0,0.0,0.0,0.0,0.0,0.0,0.0,0.0,0.0,0.0,0.0,0.0,0.0,0.0,0.0,0.0,0.0,0.0,0.0,0.0,0.0,0.0,0.0,0.0,0.0,0.0,0.0,0.0,0.0,0.0,0.0,0.0,0.0,0.0,0.0,0.0,0.0,0.0,0.0,0.0,0.0,0.0,0.0,0.0,0.0,0.0,0.0,0.0,0.0,0.0,0.0,0.0,0.0,0.0,0.0,0.0,0.0,0.0,0.0,0.0,0.0,0.0,0.0,0.0,0.0,0.0,0.0,0.0,0.0,0.0,0.0,0.0,0.0,0.0,0.0,0.0,0.0,0.0,0.0,0.0,0.0,0.0,0.0,0.0,0.0,0.0,0.0,0.0,0.0,0.0,0.0,0.0,0.0,0.0,0.0,0.0,0.0,0.0,0.0,0.0,0.0,0.0,0.0,0.0,0.0,0.0,0.0,0.0,0.0,0.0,0.0,0.0,0.0,0.0,0.0,0.0,0.0,0.0,0.0,0.0,0.0,0.0,0.0,0.0,0.0,0.0,0.0,0.0,0.0,0.0,0.0,0.0,0.0,0.0,0.0,0.0,0.0,0.0,0.0,0.0,0.0,0.0,0.0,0.0,0.0,0.0,0.0,0.0,0.0,0.0,0.0,0.0,0.0,0.0,0.0,0.0,0.0,0.0,0.0,0.0,0.0,0.0,0.0,0.0,0.0,0.0,0.0,0.0,0.0,0.0,0.0,0.0,0.0,0.0,0.0,0.0,0.0,0.0,0.0,0.0,0.0,0.0,0.0,0.0,0.0,0.0,0.0,0.0,0.0,0.0,0.0,0.0,0.0,0.0,0.0,0.0,0.0,0.0,0.0,0.0,0.0,0.0,0.0,0.0,0.0,0.0,0.0,0.0,0.0,0.0,0.0,0.0,0.0,0.0,0.0,0.0,0.0,0.0,0.0,0.0,0.0,0.0,0.0,0.0,0.0,0.0,0.0,0.0,0.0,0.0,0.0,0.0,0.0,0.0,0.0,0.0,0.0,0.0,0.0,0.0,0.0,0.0,0.0,0.0,0.0,0.0,0.0,0.0,0.0,0.0,0.0,0.0,0.0,0.0,0.0,0.0,0.0,0.0,0.0,0.0,0.0,0.0,0.0,0.0,0.0,0.0,0.0,0.0,0.0,0.0,0.0,0.0,0.0,0.0,0.0,0.0,0.0,0.0,0.0,0.0,0.0,0.0,0.0,0.0,0.0,0.0,0.0,0.0,0.0,0.0,0.0,0.0,0.0,0.0,0.0,0.0,0.0,0.0,0.0,0.0,0.0,0.0,0.0,0.0,0.0,0.0,0.0,0.0,0.0,0.0,0.0,0.0,0.0,0.0,0.0,0.0,0.0,0.0,0.0,0.0,0.0,0.0,0.0,0.0,0.0,0.0,0.0,0.0,0.0,0.0,0.0,0.0,0.0,0.0,0.0,0.0,0.0,0.0,0.0,0.0,0.0,0.0,0.0,0.0,0.0,0.0,0.0,0.0,0.0,0.0,0.0,0.0,0.0,0.0,0.0,0.0,0.0,0.0,0.0,0.0,0.0,0.0,0.0,0.0,0.0,0.0,0.0,0.0,0.0,0.0,0.0,0.0,0.0,0.0,0.0,0.0,0.0,0.0,0.0,0.0,0.0,0.0,0.0,0.0,0.0,0.0,0.0,0.0,0.0,0.0,0.0,0.0,0.0,0.0,0.0,0.0,0.0,0.0,0.0,0.0,0.0,0.0,0.0,0.0,0.0,0.0,0.0,0.0,0.0,0.0,0.0,0.0,0.0,0.0,0.0,0.0,0.0,0.0,0.0,0.0,0.0,0.0,0.0,0.0,0.0,0.0,0.0,0.0,0.0,0.0,0.0,0.0,0.0,0.0,0.0,0.0,0.0,0.0,0.0,0.0,0.0,0.0,0.0,0.0,0.0,0.0,0.0,0.0,0.0,0.0,0.0,0.0,0.0,0.0,0.0,0.0,0.0,0.0,0.0,0.0,0.0,0.0,0.0,0.0,0.0,0.0,0.0,0.0,0.0,0.0,0.0,0.0,0.0,0.0,0.0,0.0,0.0,0.0,0.0,0.0,0.0,0.0,0.0,0.0,0.0,0.0,0.0,0.0,0.0,0.0,0.0,0.0,0.0,0.0,0.0,0.0,0.0,0.0,0.0,0.0,0.0,0.0,0.0,0.0,0.0,0.0,0.0,0.0,0.0,0.0,0.0,0.0,0.0,0.0,0.0,0.0,0.0,0.0,0.0,0.0,0.0,0.0,0.0,0.0,0.0,0.0,0.0,0.0,0.0,0.0,0.0,0.0,0.0,0.0,0.0,0.0,0.0,0.0,0.0,0.0,0.0,0.0,0.0,0.0,0.0,0.0,0.0,0.0,0.0,0.0,0.0,0.0,0.0,0.0,0.0,0.0,0.0,0.0,0.0,0.0,0.0,0.0,0.0,0.0,0.0,0.0,0.0,0.0,0.0,0.0,0.0,0.0,0.0,0.0,0.0,0.0,0.0,0.0,0.0,0.0,0.0,0.0,0.0,0.0,-4.5644,0.0,0.0,0.0,0.0,0.0,0.0,0.0,0.0,0.0,0.0,0.0,0.0,0.0,0.0,0.0,0.0,0.0,0.0,0.0,0.0,0.0,0.0,0.0,0.0,-3.7757,-3.9262,-4.2393,-4.2325,-4.2331,-4.2896,0.0,0.0,0.0,0.0,0.0,-3.7226,-3.6797,-3.6992,-3.7871,-3.832,-3.9004,-3.9824,-3.8926,-3.7344,-3.5254,0.0,0.0,0.0,0.0,0.0,0.0,0.0,0.0,0.0,0.0,0.0,0.0,0.0,0.0,0.0,0.0,0.0,0.0,0.0,0.0,0.0,0.0,0.0,0.0,0.0,0.0,0.0,0.0,0.0,0.0,0.0,0.0,0.0,0.0,0.0,0.0,0.0,0.0,0.0,0.0,0.0,0.0,0.0,0.0,0.0,0.0,0.0,0.0,0.0,0.0,0.0,0.0,0.0,0.0,0.0,0.0,0.0,0.0,0.0,0.0,0.0,0.0,0.0,0.0,0.0,0.0,0.0,0.0,0.0,0.0,0.0,-4.6992,0.0,0.0,0.0,0.0,0.0,0.0,0.0,0.0,0.0,0.0,0.0,0.0,0.0,0.0,0.0,0.0,0.0,0.0,0.0,0.0,0.0,-3.4103,-3.6654,-3.7976,-3.9757,-4.2401,-4.2728,-4.3072,-4.3765,-4.3217,0.0,0.0,0.0,-4.0059,-3.9902,-3.9336,-3.9473,-4.0332,-4.0644,-4.123,-4.209,-4.209,-4.0937,-3.8809,-3.7324,0.0,0.0,0.0,0.0,0.0,0.0,0.0,0.0,0.0,0.0,0.0,0.0,0.0,0.0,0.0,0.0,0.0,0.0,0.0,0.0,0.0,0.0,0.0,0.0,0.0,0.0,0.0,0.0,0.0,0.0,0.0,0.0,0.0,0.0,0.0,0.0,0.0,0.0,0.0,0.0,0.0,0.0,0.0,0.0,0.0,0.0,0.0,0.0,0.0,0.0,0.0,0.0,0.0,0.0,0.0,0.0,0.0,0.0,0.0,0.0,0.0,0.0,0.0,0.0,-5.5039,-5.4902,-5.4902,-5.4902,-5.4785,-5.2676,-5.0937,-4.9492,0.0,0.0,0.0,0.0,0.0,0.0,0.0,0.0,0.0,0.0,0.0,0.0,0.0,0.0,0.0,0.0,0.0,0.0,0.0,0.0,-3.4988,-3.7546,-3.9961,-4.2422,-4.4997,-4.5384,-4.5243,-4.4683,-4.4654,0.0,0.0,-4.1152,-4.0664,-3.9922,-4.0527,-4.1269,-4.207,-4.3594,-4.4766,-4.5625,-4.5625,-4.5449,-4.4941,-4.1094,-3.8906,-3.7928,0.0,0.0,0.0,0.0,0.0,0.0,0.0,0.0,0.0,0.0,0.0,0.0,0.0,0.0,0.0,0.0,0.0,0.0,0.0,0.0,0.0,0.0,0.0,0.0,0.0,0.0,0.0,0.0,0.0,0.0,0.0,0.0,0.0,0.0,0.0,0.0,0.0,0.0,0.0,0.0,0.0,-4.9355,-4.7951,0.0,0.0,0.0,0.0,0.0,0.0,0.0,0.0,0.0,0.0,0.0,0.0,0.0,0.0,-5.4178,-5.6426,-5.7187,-5.6445,-5.8555,-5.9199,-5.8515,-5.8515,-5.8515,-5.8496,-5.8164,0.0,-5.2129,-5.1269,0.0,0.0,0.0,0.0,0.0,0.0,0.0,0.0,0.0,0.0,0.0,0.0,0.0,0.0,0.0,0.0,0.0,0.0,0.0,0.0,0.0,-4.1305,-4.3432,-4.5526,-4.6777,-4.6914,-4.5627,-4.5668,-4.5019,-4.3418,-4.2871,-4.2422,-4.2031,-4.2402,-4.3496,-4.5312,-4.707,-4.8359,-4.918,-4.918,-4.918,-4.9062,-4.6738,-4.4121,-4.1307,-3.8728,0.0,0.0,0.0,0.0,0.0,0.0,0.0,0.0,0.0,0.0,0.0,0.0,0.0,0.0,0.0,0.0,0.0,0.0,0.0,0.0,0.0,0.0,0.0,0.0,0.0,0.0,0.0,0.0,0.0,0.0,0.0,0.0,0.0,0.0,0.0,0.0,0.0,0.0,0.0,-4.8923,-5.0231,-4.8971,-5.001,-5.0086,0.0,0.0,0.0,0.0,0.0,0.0,0.0,0.0,0.0,-5.6143,-5.7473,-5.8452,-5.904,-6.0682,-6.1308,-6.0937,-6.1562,-6.168,-6.1328,-6.082,-6.0605,-6.0605,-6.0605,-5.9238,-5.6894,-5.5078,-5.2793,-5.0332,0.0,0.0,0.0,0.0,0.0,-4.7292,0.0,0.0,0.0,0.0,0.0,0.0,0.0,0.0,0.0,0.0,0.0,0.0,-4.0531,-4.2599,-4.4484,-4.6266,-4.7542,-4.7747,-4.6534,-4.6355,-4.5918,-4.5039,-4.4375,-4.4023,-4.4023,-4.4687,-4.6191,-4.8574,-5.0098,-5.1269,-5.207,-5.207,-5.207,-5.2031,-5.1445,-4.9004,-4.5175,-4.2145,-3.9623,-3.7392,0.0,0.0,0.0,0.0,0.0,0.0,0.0,0.0,0.0,0.0,0.0,0.0,0.0,0.0,0.0,0.0,0.0,0.0,0.0,0.0,0.0,0.0,0.0,0.0,0.0,0.0,0.0,0.0,0.0,0.0,0.0,0.0,0.0,0.0,0.0,0.0,0.0,-5.024,-5.1106,-5.0452,-5.1856,-5.1809,0.0,0.0,0.0,0.0,0.0,0.0,-5.6124,-5.6669,-5.764,-5.9164,-6.063,-6.202,-6.3314,-6.398,-6.4295,-6.4297,-6.3418,-6.3008,-6.2969,-6.2109,-6.1699,-6.1699,-6.1699,-6.1328,-6.0547,-5.8223,-5.5723,-5.3281,-5.2402,-5.0625,-4.873,-5.0039,-5.0234,-5.0116,0.0,0.0,0.0,0.0,0.0,0.0,0.0,0.0,0.0,0.0,0.0,-3.98,-4.1636,-4.4064,-4.6332,-4.8192,-4.7743,-4.7369,0.0,-4.6715,-4.5918,-4.5039,-4.4961,-4.4922,-4.4922,-4.7363,-4.9473,-5.1211,-5.2129,-5.3027,-5.3867,-5.3867,-5.3867,-5.3867,-5.3828,-5.2344,-4.959,-4.5329,-4.2964,-4.1772,-3.8402,0.0,0.0,0.0,0.0,0.0,0.0,0.0,0.0,0.0,0.0,0.0,0.0,0.0,0.0,0.0,0.0,0.0,0.0,0.0,0.0,0.0,0.0,0.0,0.0,0.0,0.0,0.0,0.0,0.0,0.0,0.0,0.0,0.0,0.0,0.0,0.0,0.0,0.0,-5.301,-5.4491,0.0,0.0,0.0,0.0,-5.5983,-5.6143,-5.6979,-5.8807,-6.049,-6.1798,-6.2718,-6.3627,-6.4158,-6.4237,-6.427,-6.4294,-6.4294,-6.3417,-6.3008,-6.2969,-6.2109,-6.1699,-6.1699,-6.1699,-6.168,-6.1504,-5.9785,-5.7539,-5.5078,-5.4219,-5.2773,-5.1211,-5.1308,-5.1836,-5.2402,0.0,0.0,0.0,0.0,0.0,-3.0292,-3.0311,-3.2263,-3.393,-3.45,-3.7824,-4.1004,-4.3254,-4.536,-4.7071,-4.8266,-4.8739,-4.8522,-4.7437,-4.6708,-4.6152,-4.5859,-4.5293,-4.5527,-4.6641,-4.8691,-5.0566,-5.2246,-5.3672,-5.4824,-5.5664,-5.5664,-5.5664,-5.5644,-5.5032,-5.429,-5.3223,-4.9431,-4.6049,-4.308,-4.1291,-3.8707,0.0,0.0,0.0,0.0,0.0,0.0,0.0,0.0,0.0,0.0,0.0,0.0,0.0,0.0,0.0,0.0,0.0,0.0,0.0,0.0,0.0,0.0,0.0,0.0,0.0,0.0,0.0,0.0,0.0,0.0,0.0,0.0,0.0,0.0,0.0,0.0,0.0,-5.5645,-5.7126,0.0,-5.7089,-5.7313,-5.8075,-5.945,-6.0132,-6.1066,-6.2381,-6.3047,-6.377,-6.4648,-6.4965,-6.5399,-6.5893,-6.5946,-6.5971,-6.5954,-6.4511,-6.3848,-6.3789,-6.2344,-6.1699,-6.1699,-6.1699,-6.1699,-6.164,-6.1055,-5.9922,-5.8496,-5.7676,-5.6289,-5.4746,-5.4746,-5.459,-5.4414,0.0,0.0,0.0,0.0,-2.9619,-3.0292,-3.0292,-3.2775,-3.4949,-3.5788,-3.9364,-4.2726,-4.5024,-4.6854,-4.8269,-4.9163,-4.9368,-4.8954,-4.784,-4.6835,-4.6288,-4.6308,-4.6035,-4.6816,-4.8848,-5.0293,-5.1875,-5.3574,-5.5039,-5.6015,-5.6578,-5.6578,-5.6535,-5.6468,-5.5853,-5.5423,-5.5058,-5.2718,-4.9439,-4.5682,-4.4197,-4.1905,-3.9228,0.0,0.0,0.0,0.0,0.0,0.0,0.0,0.0,0.0,0.0,0.0,0.0,0.0,0.0,0.0,0.0,0.0,0.0,0.0,0.0,0.0,0.0,0.0,0.0,0.0,0.0,0.0,0.0,0.0,0.0,0.0,0.0,0.0,0.0,0.0,-5.7492,-5.7445,-5.9415,-6.0388,-5.9408,-6.0384,-6.143,-6.2252,-6.3142,-6.3955,-6.4704,-6.5273,-6.5858,-6.6424,-6.6737,-6.6995,-6.7236,-6.7285,-6.7177,-6.687,-6.5135,-6.4297,-6.4238,-6.248,-6.1699,-6.1699,-6.1699,-6.1699,-6.1699,-6.1699,-6.1367,-6.0762,-5.9922,-5.8555,-5.7031,-5.7031,-5.6484,-5.582,0.0,0.0,0.0,-2.897,-2.9666,-3.0312,-3.0331,-3.3288,-3.5808,-3.6635,-4.1123,-4.4955,-4.6799,-4.8467,-4.9896,-5.1004,-4.9501,-4.8564,-4.8688,-4.7098,-4.6217,-4.6348,-4.7207,-4.8867,-5.1387,-5.2285,-5.3574,-5.5293,-5.6172,-5.6558,-5.6508,-5.6506,-5.6419,-5.6292,-5.6308,-5.5823,-5.5035,-5.4922,-5.3044,-4.9916,-4.716,-4.5084,-4.3353,0.0,0.0,0.0,0.0,0.0,0.0,0.0,0.0,0.0,0.0,0.0,0.0,0.0,0.0,0.0,0.0,0.0,0.0,0.0,0.0,0.0,0.0,0.0,0.0,0.0,0.0,0.0,0.0,0.0,0.0,0.0,0.0,0.0,-5.4534,-5.6908,-5.8577,-5.8528,-6.1381,-6.2852,-6.158,-6.2848,-6.393,-6.4381,-6.504,-6.5519,-6.5719,-6.7264,-6.8142,-6.8142,-6.8962,-6.8981,-6.8142,-6.8134,-6.7734,-6.6923,-6.5171,-6.4334,-6.4238,-6.2519,-6.1738,-6.1738,-6.1738,-6.1738,-6.1738,-6.1719,-6.1699,-6.1601,-6.0703,-5.9375,-5.793,-5.7871,-5.7324,-5.6601,0.0,0.0,-2.8911,-2.8767,-2.9613,-3.051,-3.1156,-3.3673,-3.6019,-3.745,-4.102,-4.4333,-4.6741,-4.797,-4.9262,-5.0823,-4.9446,-4.8531,-4.8626,-4.6511,-4.5846,-4.7187,-4.8672,-5.0371,-5.2305,-5.3203,-5.4199,-5.5293,-5.6124,-5.6518,-5.6506,-5.6407,-5.6332,-5.6308,-5.625,-5.6089,-5.5814,-5.5024,-5.4192,-5.3178,-5.0621,-4.8283,-4.6185,0.0,0.0,0.0,0.0,0.0,0.0,0.0,0.0,0.0,0.0,0.0,0.0,0.0,0.0,0.0,0.0,0.0,0.0,0.0,0.0,0.0,0.0,0.0,0.0,0.0,0.0,0.0,0.0,0.0,0.0,0.0,0.0,-5.6764,-5.7453,-5.9277,-6.1198,-6.3031,-6.4041,-6.4677,-6.4908,-6.6017,-6.676,-6.6906,-6.777,-6.8304,-6.8357,-6.8786,-6.904,-6.904,-6.9274,-6.9274,-6.904,-6.9032,-6.8615,-6.7743,-6.605,-6.4901,-6.4258,-6.3144,-6.2637,-6.2637,-6.2637,-6.2637,-6.2598,-6.1953,-6.1699,-6.1562,-6.0098,-5.9258,-5.8691,-5.7422,-5.6816,-5.6601,0.0,-2.8493,-2.9239,-2.9313,-3.0169,-3.1015,-3.152,-3.3814,-3.6231,-3.8277,-4.1205,-4.4086,-4.6678,-4.7761,-4.8709,-4.9714,-4.902,-4.837,-4.807,-4.7129,-4.7358,-4.9121,-5.0508,-5.2051,-5.375,-5.4255,-5.4935,-5.5794,-5.6209,-5.64,-5.6367,-5.6295,-5.6239,-5.6167,-5.6121,-5.61,-5.6024,-5.5416,-5.493,-5.4482,-5.3053,-5.1263,-4.9245,-4.7289,-4.6495,-4.6132,-4.4189,-4.3959,-4.4274,-4.2304,0.0,0.0,0.0,0.0,0.0,0.0,0.0,0.0,0.0,0.0,0.0,0.0,0.0,0.0,0.0,0.0,0.0,0.0,0.0,0.0,0.0,0.0,0.0,0.0,-5.6558,-5.9287,-6.0828,-6.1843,-6.3107,-6.4892,-6.572,-6.6363,-6.6912,-6.7868,-6.8471,-6.8526,-6.9078,-6.9391,-6.9391,-6.9742,-6.9938,-6.9938,-7.0309,-7.0309,-6.9957,-6.9945,-6.931,-6.8071,-6.6769,-6.568,-6.4824,-6.3945,-6.3535,0.0,-6.3164,-6.3008,-6.293,-6.2051,-6.1699,0.0,0.0,0.0,0.0,0.0,-5.6601,-5.6601,0.0,-2.9368,-2.9984,-3.0187,-3.0982,-3.1635,-3.1732,-3.3871,-3.6442,-3.9092,0.0,-4.3948,-4.6598,-4.7651,-4.8194,-4.8292,-4.8419,-4.8249,0.0,0.0,-4.9922,-5.1621,-5.2539,-5.3769,-5.541,-5.5373,-5.5723,-5.648,-5.6356,-5.6266,-5.6194,-5.6181,-5.6117,-5.6003,-5.6003,-5.5969,-5.5895,-5.5895,-5.5392,-5.4626,-5.453,-5.3623,-5.1954,-4.8816,-4.8661,-4.9691,-4.6558,-4.6502,-4.7401,-4.4219,0.0,0.0,0.0,0.0,0.0,0.0,0.0,0.0,0.0,0.0,0.0,0.0,0.0,0.0,0.0,0.0,0.0,0.0,0.0,0.0,0.0,0.0,0.0,0.0,-5.9358,-6.1432,-6.4077,-6.4283,-6.4465,-6.52,-6.6684,-6.7729,-6.7911,-6.8802,-6.9424,-6.9545,-6.9645,-6.9684,-6.9684,0.0,0.0,0.0,0.0,-7.1636,-7.0855,-7.0855,-6.9965,-6.824,-6.7427,-6.6536,-6.5564,-6.4804,-6.4453,-6.4394,-6.3535,-6.3144,-6.3066,-6.2109,-6.1582,-6.1348,-6.0566,-5.9707,-5.8711,-5.7168,-5.6601,0.0,0.0,-2.9478,-3.0171,-3.0266,-3.1021,-3.1834,-3.2545,-3.4269,-3.6654,-3.9861,-4.1316,-4.3294,-4.654,-4.7111,-4.7537,-4.8234,-4.8419,-4.8773,0.0,0.0,-5.1699,-5.3418,-5.4336,-5.5252,-5.6247,-5.6259,-5.6272,-5.6336,-5.6255,-5.62,-5.6194,-5.6087,-5.6026,-5.6003,-5.6007,-5.5952,-5.5895,-5.5836,-5.567,-5.5415,-5.4761,-5.3623,-5.2148,-5.0773,-5.0194,-4.9927,-4.8629,-4.8807,-4.9491,-4.8105,-4.8223,-4.8633,-4.6914,-4.5879,0.0,0.0,0.0,0.0,0.0,0.0,0.0,0.0,0.0,0.0,0.0,0.0,0.0,0.0,0.0,0.0,0.0,0.0,0.0,-5.8515,-6.0841,-6.3135,-6.5077,-6.5321,-6.5582,-6.6372,-6.7383,-6.8011,-6.8063,-6.9491,-7.0414,-7.0442,-7.1109,-7.1499,-7.1499,-7.1655,0.0,-7.1753,-7.1909,-7.1929,-7.1753,-7.1753,-7.0865,-6.9145,0.0,0.0,-6.5586,-6.543,-6.5351,-6.5293,-6.4433,-6.4043,-6.3926,-6.2344,-6.0898,-5.9668,-5.9492,-5.8476,-5.7051,-5.6719,-5.6601,-5.6601,-3.0076,-3.0505,-3.099,-3.1468,-3.2267,-3.3011,-3.3481,-3.4661,-3.6558,-3.9515,-4.0277,-4.167,-4.4658,-4.4704,-4.4843,-4.5717,-4.6742,0.0,0.0,-5.1542,-5.2832,-5.457,-5.5488,-5.6129,-5.6489,-5.6422,-5.6352,-5.625,-5.6154,-5.6102,-5.6102,-5.6035,-5.5995,-5.5987,-5.6008,-5.5933,-5.5846,-5.5807,-5.5756,-5.5665,-5.5261,-5.4206,-5.2768,-5.1952,-5.128,-5.0693,-5.0291,-5.0429,-5.0664,-4.9824,-4.9844,-4.9961,-4.8652,-4.7949,-4.7344,0.0,0.0,0.0,0.0,0.0,0.0,0.0,0.0,0.0,0.0,0.0,0.0,0.0,0.0,-5.4153,0.0,0.0,-5.9482,-6.0789,-6.2859,-6.4609,-6.5487,-6.5956,-6.6346,-6.6756,-6.7947,-6.8747,-6.8747,-7.0328,-7.1343,-7.1343,-7.1753,-7.2007,-7.2007,-7.2007,-7.2007,-7.2007,-7.2007,-7.2007,-7.2007,-7.2007,-7.1136,-6.939,-6.8968,-6.7863,-6.6247,-6.6249,-6.625,-6.6172,-6.4863,-6.4297,-6.4121,-6.1953,-6.0312,-5.916,-5.8711,-5.7754,-5.6601,-5.6601,-5.6601,-5.6601,-3.1672,-3.1866,-3.2156,-3.2699,-3.3525,-3.4117,-3.4166,-3.4923,-3.6346,-3.8738,-3.9188,-4.0215,-4.2614,-4.2342,-4.2425,0.0,0.0,0.0,0.0,-5.2461,-5.373,-5.5488,-5.623,-5.6558,-5.6455,-5.6363,-5.6251,-5.6154,-5.604,-5.6012,-5.6012,-5.5995,-5.5996,-5.599,-5.5971,-5.5905,-5.5797,-5.5776,-5.5745,-5.5703,-5.5703,-5.4786,-5.334,-5.2762,-5.2063,-5.1355,-5.1386,-5.1308,-5.1074,-5.043,-5.0195,-5.0078,-4.9375,-4.9141,-4.8848,-4.7266,-4.6699,0.0,0.0,0.0,0.0,0.0,0.0,0.0,0.0,-5.1511,-5.2702,-5.3737,-5.5201,-5.6762,-5.8285,-5.9846,-6.1486,-6.3223,-6.4687,-6.5643,-6.5819,-6.6385,-6.6795,-6.6795,-6.8181,-6.9215,-6.9372,-7.0816,-7.1812,-7.1987,-7.2007,-7.2007,-7.2007,-7.2007,-7.2007,-7.2007,-7.2007,-7.2007,-7.2007,-7.2007,-7.1131,-6.9396,-6.9396,-6.8525,-6.6905,-6.6893,-6.6816,-6.6543,-6.4805,-6.3945,-6.3633,-6.1523,-6.0078,-5.9121,-5.8437,-5.7519,-5.6601,-5.6601,-5.6601,-5.6601,0.0,-3.3184,-3.3525,-3.2912,-3.3511,-3.411,-3.4113,-3.4909,-3.6135,-3.7911,-3.8815,-3.9991,-4.1834,-4.2015,-4.2722,-4.456,0.0,0.0,-5.2285,-5.3379,-5.4629,-5.6387,-5.6543,-5.6511,-5.6328,-5.6316,-5.6208,-5.6018,-5.602,-5.6012,-5.6003,-5.6007,-5.5999,-5.599,-5.5885,-5.5807,-5.5806,-5.5735,-5.5714,-5.5703,-5.5703,-5.4786,-5.3398,-5.3442,-5.2531,-5.1238,-5.1363,-5.0937,-5.0312,-5.0234,-5.0195,-5.0176,-5.0098,-5.0058,-4.9863,-4.8887,-4.8066,-4.7401,-4.7225,-4.7825,-4.8927,-5.0557,-5.1121,-5.2234,0.0,-5.6391,-5.6469,-5.807,-5.9143,-6.0119,-6.1095,-6.2052,-6.3282,-6.5038,-6.5468,-6.5858,-6.6561,-6.6737,-6.6795,-6.6795,-6.7654,-6.8552,-6.9313,-7.0289,-7.1167,-7.1948,-7.2007,-7.2007,-7.2007,-7.2007,-7.2007,-7.2007,-7.2007,-7.2007,-7.2007,-7.2007,-7.1136,-6.9408,-6.9397,-6.8527,-6.6891,-6.6894,-6.6484,-6.5644,-6.3906,-6.2715,-6.1973,-6.168,-6.0625,-5.9199,-5.9082,-5.8047,-5.6601,-5.6601,-5.6601,-5.6601,0.0,-3.3769,-3.4587,-3.4251,-3.4523,-3.4813,-3.4848,-3.5229,-3.5923,-3.7084,-3.7642,-3.8543,-4.0262,-4.1485,-4.2523,-4.3377,-4.5634,-4.8414,-5.1738,-5.3223,-5.5,-5.7265,-5.6831,-5.6701,-5.7057,-5.6529,-5.6168,-5.6012,-5.6012,-5.5995,-5.6007,-5.6008,-5.5962,-5.5876,-5.5826,-5.6065,-5.6438,-5.5425,-5.5549,-5.6368,-5.5395,-5.4312,-5.331,-5.3527,-5.2256,-5.0412,-5.0637,-5.0156,0.0,-4.9433,-4.9433,-4.9433,-4.9433,-4.9101,-4.8613,-4.8242,-4.789,-4.7812,-4.8785,-4.966,-5.0612,-5.1856,-5.3302,-5.4906,-5.6696,-5.7592,-5.8391,-5.9614,-6.0549,-6.1427,-6.2306,-6.3164,-6.416,0.0,-6.5995,-6.6424,-6.6756,-6.6405,-6.6092,-6.6092,-6.6424,-6.7361,-6.9215,-7.0191,-7.107,-7.1929,-7.2007,-7.2007,-7.2007,-7.2007,-7.2007,-7.2007,-7.2007,-7.2007,-7.2007,-7.2007,-7.1136,-6.939,-6.9399,-6.8527,-6.6892,-6.6894,-6.6152,-6.4765,-6.3535,-6.2519,-6.1621,-6.0644,-5.9824,-5.9101,-5.8086,-5.7246,-5.6601,-5.6601,-5.6601,-5.6601,0.0,-3.4063,-3.5218,-3.5209,-3.5262,-3.533,-3.5364,-3.5453,-3.5712,-3.6288,-3.6684,-3.7467,-3.8965,-4.0639,-4.1839,-4.2356,-4.4938,-4.7812,-5.0879,-5.2676,-5.4707,-5.707,-5.6958,-5.7069,-5.7583,-5.7136,-5.6837,-5.6728,-5.6691,-5.6683,-5.6685,-5.6638,-5.657,-5.648,-5.6489,-5.6804,-5.7261,-5.5799,-5.5887,-5.6849,-5.5164,-5.3972,-5.3176,-5.2958,-5.1443,-4.9517,-5.0027,-4.9492,-4.8496,-4.8262,-4.834,-4.8496,-4.8262,-4.8086,-4.7969,-4.7969,-4.7969,-4.8261,-4.9701,-5.091,-5.2081,-5.3444,-5.5557,-5.7296,-5.7291,-5.8598,-5.9922,-6.0321,-6.108,-6.1976,-6.2833,-6.3711,-6.4589,-6.5468,-6.6288,-6.6795,-6.6795,-6.6112,-6.5604,-6.5604,-6.539,-6.6151,-6.8454,-6.9469,-7.0445,-7.1558,-7.1636,-7.1753,-7.1987,-7.2007,-7.2007,-7.2007,-7.2007,-7.2007,-7.2007,-7.2007,-7.0999,-6.9039,-6.9282,-6.839,-6.6521,-6.6289,-6.5488,-6.4238,-6.3125,-6.2285,-6.1601,-6.039,-5.9629,-5.9062,-5.7812,-5.7012,-5.6601,-5.6601,-5.6601,-5.6601,0.0,0.0,-3.5277,-3.5209,-3.5304,-3.5372,-3.5315,-3.5412,-3.5519,-3.5538,-3.6337,-3.7293,-3.8316,-3.9351,-4.0632,-4.2259,-4.3278,-4.5643,-4.9941,-5.1816,-5.3535,-5.5293,-5.6858,-5.7632,-5.7589,-5.8272,-5.8595,-5.8516,-5.8452,-5.8423,-5.8423,-5.8285,-5.8233,-5.8222,-5.8226,-5.8242,-5.8204,-5.7311,-5.6945,-5.6849,-5.5164,-5.3972,-5.3041,-5.1619,-5.0024,-4.8695,-4.9793,-4.9101,-4.7519,-4.666,-4.6933,-4.748,-4.6641,-4.7519,-4.8867,-4.8867,-4.8867,-4.9041,-4.9878,-5.1341,-5.3273,-5.5832,-5.7766,-5.9014,-5.9014,-6.0362,-6.1394,-6.0567,-6.1092,-6.1967,-6.2835,-6.3711,-6.4589,-6.5468,-6.6288,-6.6795,-6.6795,-6.6112,-6.5604,-6.5604,-6.4843,-6.5002,0.0,-6.7673,-6.8884,-7.0601,-7.0738,-7.1109,-7.1948,-7.2007,-7.2007,-7.2007,-7.2007,-7.2007,-7.2007,-7.2007,-7.0707,-6.8141,-6.9008,-6.8078,-6.5603,-6.4765,-6.4355,-6.4199,-6.248,-6.1719,-6.1699,-6.164,-6.0664,-5.9199,-5.914,-5.8086,-5.6601,-5.6601,-5.6601,-5.6601,0.0,0.0,0.0,-3.6845,-3.7003,-3.7037,-3.703,-3.6606,-3.6308,-3.6308,-3.8152,0.0,0.0,0.0,0.0,0.0,-4.5458,-4.7161,-4.9196,-5.0916,-5.2616,-5.4355,-5.5384,-5.618,-5.6736,-5.6847,-5.6906,-5.6876,-5.6849,-5.6792,-5.6714,-5.6655,-5.6613,-5.6582,-5.6579,-5.6896,-5.7349,-5.5934,-5.6319,-5.7627,-5.478,-5.3818,-5.3888,-5.2421,-5.0451,-4.8578,0.0,-4.8223,-4.6699,-4.6406,-4.6484,-4.6699,-4.6387,-4.6308,-4.6543,-4.7695,-4.8867,-5.0195,-5.2146,-5.3963,-5.578,-5.783,-5.9158,-6.0116,-6.0681,-6.1285,-6.1615,-6.131,-6.1034,-6.1284,-6.2737,-6.2774,-6.3243,-6.5273,-6.5839,-6.619,-6.6717,-6.6561,-6.5975,-6.4863,-6.5468,0.0,0.0,0.0,0.0,-7.0523,-7.0699,-7.1089,-7.1948,-7.2007,-7.2007,-7.2007,-7.2007,-7.2007,-7.2007,-7.2007,-7.0982,-6.895,-6.8121,-6.7284,-6.6406,-6.4961,-6.4297,-6.4199,-6.2461,-6.1699,-6.1601,-6.0508,-5.9707,-5.9082,-5.793,-5.7129,-5.6601,-5.6601,-5.6601,-5.6601,0.0,0.0,0.0,0.0,0.0,0.0,0.0,0.0,0.0,0.0,0.0,0.0,0.0,0.0,0.0,0.0,0.0,-4.7175,-4.8353,-4.9742,-5.113,-5.2536,-5.3556,-5.4333,-5.4883,-5.5004,-5.5216,-5.5498,-5.547,-5.5741,-5.6259,-5.6239,-5.6381,-5.6626,-5.6299,-5.6472,-5.6896,-5.5203,-5.5453,-5.6665,-5.3568,-5.2645,-5.2955,-5.116,-4.9464,0.0,-4.7625,-4.6992,-4.625,-4.5937,-4.6035,-4.625,-4.5937,-4.6094,-4.6601,-4.7734,-4.9492,-5.164,-5.4238,-5.5976,-5.7558,-5.9589,-6.0488,-6.0937,-6.1171,-6.1249,-6.115,-6.0869,-6.0103,-5.9942,-6.1356,-6.1156,-6.162,-6.4258,-6.4921,-6.5624,-6.7068,-6.6756,-6.6073,-6.5295,-6.5897,-6.6053,0.0,0.0,0.0,-6.9625,-7.0348,-7.0933,-7.1519,-7.1831,-7.2007,-7.2007,-7.2007,-7.2007,-7.2007,-7.1694,-7.0653,-6.8914,-6.7245,-6.6445,-6.6387,-6.4941,-6.4121,-6.3769,-6.2324,-6.1523,-6.1152,-6.0078,-5.9277,-5.8613,-5.75,-5.6875,-5.6601,-5.6601,-5.6601,-5.6601,0.0,0.0,0.0,0.0,0.0,0.0,0.0,0.0,0.0,0.0,0.0,0.0,0.0,0.0,0.0,0.0,0.0,0.0,-4.7414,0.0,0.0,-4.9935,-5.1404,-5.2227,-5.2281,-5.2922,-5.3656,-5.4399,-5.4343,-5.5151,-5.6769,-5.6716,-5.7107,-5.7877,-5.7049,-5.6684,-5.6558,-5.4972,-5.4337,-5.4145,-5.1635,-5.0654,-5.0441,-4.8138,0.0,0.0,-4.5653,-4.5664,-4.623,-4.5312,-4.5644,-4.6308,-4.5508,-4.6992,-4.9043,-4.9121,-5.0937,-5.3457,-5.6035,-5.7402,-5.8672,-6.1094,-6.1699,-6.1465,-6.0605,-6.0371,-6.0117,-5.9295,-5.8393,-5.7998,-5.8769,0.0,-5.9866,-6.2442,-6.3672,-6.5194,-6.7732,-6.6776,-6.6053,0.0,0.0,0.0,0.0,0.0,0.0,-6.8103,0.0,-7.0679,-7.0757,-7.1558,-7.2007,-7.2007,-7.2007,-7.1987,-7.1929,-7.1011,-6.9735,-6.8075,-6.6444,-6.5644,-6.5566,-6.4707,-6.3828,-6.2949,-6.207,-6.1211,-6.039,-6.0351,-5.9375,-5.789,-5.7851,-5.7324,-5.6601,-5.6601,-5.6601,-5.6601,0.0,0.0,0.0,0.0,0.0,0.0,0.0,0.0,0.0,0.0,0.0,0.0,0.0,0.0,0.0,0.0,0.0,0.0,-4.656,0.0,0.0,0.0,0.0,-4.989,-5.0452,-5.1224,-5.1644,-5.1682,-5.1683,-5.1905,-5.2328,-5.2309,-5.2424,-5.2626,-5.2405,-5.2309,-5.2279,-5.1837,-5.201,-5.2404,0.0,-5.0152,-5.0587,0.0,0.0,0.0,-4.7276,-4.7089,-4.7031,-4.5508,-4.6445,-4.8301,-4.873,-4.9746,-5.1016,-5.2324,-5.4082,-5.6035,-5.8008,-5.9609,-6.0898,-6.1543,-6.1699,-6.1465,-6.0605,-5.9941,-5.9258,-5.8416,-5.7028,-5.6029,-5.6232,-5.7282,-5.8762,-6.0746,-6.2872,0.0,-6.7732,-6.8298,0.0,-6.783,-6.8727,-6.8962,-6.7869,-6.8942,0.0,0.0,-6.9489,-7.0309,-7.1597,-7.187,-7.2007,-7.2007,-7.2007,-7.1694,-7.1031,-6.9527,-6.854,-6.8095,-6.7069,-6.623,-6.5566,-6.4707,-6.3828,-6.2949,-6.207,-6.1211,-6.0351,-5.9746,-5.8867,-5.7832,-5.7187,-5.6797,-5.6601,-5.6601,-5.6601,-5.6601,0.0,0.0,0.0,0.0,0.0,0.0,0.0,0.0,0.0,0.0,0.0,0.0,0.0,0.0,0.0,0.0,0.0,0.0,0.0,0.0,0.0,-4.6425,-4.6796,-4.7338,-4.8064,-4.8503,-4.8814,-4.9037,0.0,0.0,-5.0125,-5.0125,-5.0327,-5.0673,-5.0308,-5.0125,-5.0087,-4.9721,0.0,0.0,0.0,0.0,0.0,0.0,0.0,-4.803,-4.7295,-4.7285,-4.7578,-4.7344,-4.8496,-5.0156,-5.1016,-5.2129,-5.3379,-5.4746,-5.6387,-5.8027,-5.9375,-6.0683,-6.1699,-6.1699,-6.1699,-6.1289,-5.9668,-5.8652,-5.7597,-5.5956,-5.4257,-5.316,-5.3522,-5.4981,-5.6811,-5.8911,0.0,0.0,-6.7693,-6.8513,-6.8923,0.0,-7.0094,0.0,-6.9333,-7.0133,-7.066,0.0,-7.0543,-7.0797,-7.1402,-7.1792,-7.2007,-7.2007,-7.1636,-7.0836,-6.9567,-6.8593,-6.7919,-6.7568,-6.7128,-6.623,-6.5019,-6.4512,-6.3613,-6.2402,0.0,-6.1015,-5.9844,-5.9394,-5.8457,-5.7285,-5.6797,-5.6601,-5.6601,-5.6601,-5.6601,-5.6601,0.0,0.0,0.0,0.0,0.0,0.0,0.0,0.0,0.0,0.0,0.0,0.0,0.0,0.0,0.0,0.0,0.0,0.0,0.0,0.0,0.0,-4.5129,-4.495,-4.5153,-4.5885,-4.5835,-4.6109,-4.674,0.0,0.0,0.0,0.0,0.0,0.0,0.0,0.0,0.0,0.0,0.0,0.0,0.0,0.0,0.0,0.0,0.0,-4.7484,-4.6866,-4.7128,-4.8047,-4.9766,-5.0976,-5.1914,-5.291,-5.4414,-5.5996,-5.6855,-5.8164,-5.9531,-6.0351,-6.1113,-6.1699,-6.1699,-6.1601,-6.0859,-5.8301,-5.7051,-5.5664,-5.293,-5.1211,-5.035,-5.0814,-5.2507,-5.4626,-5.7079,-6.0393,-6.3887,-6.7439,-6.8025,-6.8747,-7.0484,-7.0797,-7.0875,-7.0875,-7.0875,-7.1187,-7.1948,-7.2007,-7.1675,-7.0914,-7.1597,-7.1948,-7.1831,-7.0875,-6.9625,-6.8103,-6.7988,-6.7587,-6.6904,-6.6776,-6.5879,-6.4297,-6.418,-6.3242,-6.1699,0.0,0.0,-5.9199,-5.9082,-5.8066,-5.6601,-5.6601,-5.6601,-5.6601,-5.6601,-5.6601,-5.6601,0.0,0.0,0.0,0.0,0.0,0.0,0.0,0.0,0.0,0.0,-4.3915,-4.3587,0.0,0.0,0.0,0.0,0.0,0.0,0.0,0.0,0.0,0.0,-4.5356,-4.5264,-4.5885,-4.5883,-4.5854,-4.5825,0.0,0.0,0.0,0.0,0.0,0.0,0.0,0.0,0.0,0.0,0.0,0.0,0.0,0.0,0.0,0.0,0.0,0.0,-4.8466,-4.8554,-4.8926,-5.0625,-5.2246,-5.3828,-5.543,-5.7129,-5.8672,-5.9492,-5.9961,-6.0371,-6.123,-6.1582,-6.1699,-6.1699,-6.1152,-5.9961,-5.7402,-5.6152,-5.459,-5.1308,-5.039,-4.9804,-4.8494,-5.0813,-5.3542,-5.5428,-5.8603,-6.2306,-6.6444,-6.7654,-6.8747,0.0,-7.1343,-7.1772,-7.1772,-7.1772,0.0,0.0,0.0,-7.1929,-7.1772,-7.1929,-7.1675,-7.0953,-6.9372,-6.8415,-6.8103,-6.7441,-6.704,-6.6884,-6.6171,-6.5293,-6.4277,-6.3555,-6.2676,-6.166,0.0,0.0,-5.914,-5.8418,-5.7519,-5.6601,-5.6601,-5.6601,-5.6601,-5.6601,-5.6601,-5.6601,0.0,0.0,0.0,0.0,0.0,0.0,0.0,-4.3153,-4.4524,-4.669,-4.6241,-4.5558,-4.509,-4.4231,-4.3705,0.0,0.0,0.0,0.0,0.0,0.0,0.0,0.0,-4.5276,-4.5885,-4.5899,-4.5803,0.0,0.0,0.0,0.0,0.0,0.0,0.0,0.0,0.0,0.0,0.0,0.0,0.0,0.0,0.0,0.0,0.0,0.0,0.0,0.0,-4.9199,-4.9629,-4.998,-5.1543,-5.3789,-5.6445,-5.8457,-5.9902,-6.0293,-6.0723,-6.1172,-6.1582,-6.1699,-6.1699,-6.1699,-6.0723,-5.9101,-5.6504,-5.4902,-5.3105,-5.0137,-4.916,-4.8594,-4.7752,-5.0014,-5.2293,-5.3126,-5.6905,-6.092,-6.4336,-6.5956,-6.7771,-7.0387,-7.107,-7.1499,-7.1968,-7.2007,0.0,0.0,0.0,0.0,-7.1987,-7.1577,-7.0718,-6.9391,-6.8532,-6.7888,-6.7439,-6.707,-6.6904,-6.6884,-6.6014,-6.5137,-6.4277,-6.3398,-6.2285,-6.0996,0.0,0.0,-5.8496,-5.8066,-5.7383,-5.6601,-5.6601,-5.6601,-5.6601,-5.6601,-5.6601,-5.6601,0.0,0.0,0.0,0.0,0.0,0.0,0.0,-4.5128,-4.6339,-4.8525,-4.8252,-4.7666,-4.7178,-4.5578,-4.4387,0.0,0.0,0.0,0.0,0.0,0.0,0.0,0.0,0.0,-4.5885,0.0,0.0,0.0,0.0,0.0,0.0,0.0,0.0,0.0,0.0,0.0,0.0,0.0,0.0,0.0,0.0,0.0,0.0,0.0,0.0,0.0,0.0,-4.9452,-5.0117,-4.9609,-5.0762,-5.293,-5.5859,-5.8203,-5.9902,-6.0098,-6.0742,-6.1465,-6.164,-6.1699,-6.1699,-6.1699,-6.0293,-5.8281,-5.5859,-5.3945,-5.1973,-4.9433,-4.8359,-4.7812,-4.7636,-4.9234,-5.0831,-5.1566,-5.5248,-5.9107,-6.2286,-6.4219,-6.6444,-6.9508,-7.0191,0.0,-7.1382,-7.1441,0.0,0.0,0.0,0.0,-7.1402,-7.0621,-6.9528,-6.8142,-6.7927,-6.7498,-6.6815,-6.6854,-6.6784,-6.6611,-6.574,-6.4863,-6.3984,-6.293,-6.1699,-6.0371,0.0,0.0,0.0,-5.7695,-5.7226,-5.6601,-5.6601,-5.6601,-5.6601,-5.6601,-5.6601,-5.6601,0.0,0.0,0.0,0.0,0.0,0.0,0.0,-4.583,-4.7703,-4.8662,-4.874,-4.8954,-4.9675,-4.825,-4.6591,0.0,0.0,0.0,0.0,0.0,0.0,0.0,0.0,0.0,0.0,0.0,0.0,0.0,0.0,0.0,0.0,0.0,0.0,0.0,0.0,0.0,0.0,0.0,0.0,0.0,0.0,0.0,0.0,0.0,0.0,0.0,0.0,-4.9451,-5.0293,-5.0957,-5.1328,-5.1719,-5.2832,-5.5469,-5.8281,-5.9082,-5.9883,-6.0683,-6.1484,-6.1699,-6.1699,-6.1699,-5.9844,-5.7539,-5.5723,-5.3945,-5.1973,-4.9433,-4.8848,-4.8535,-4.7754,-4.7792,-4.8961,-5.2081,-5.3635,-5.6185,-6.1134,-6.3321,-6.5099,-6.6932,0.0,0.0,-6.9625,-6.9645,0.0,0.0,0.0,0.0,0.0,-6.8806,-6.8279,-6.8103,-6.7322,-6.6873,-6.6795,-6.6809,-6.6446,-6.5711,-6.4839,-6.3964,-6.3066,-6.1406,-6.0547,-6.0312,0.0,0.0,0.0,-5.7051,-5.668,-5.6601,-5.6601,-5.6601,-5.6601,-5.6601,-5.6601,-5.6601,0.0,0.0,0.0,0.0,0.0,0.0,-4.4382,-4.5812,-4.7471,-4.9343,-4.913,-4.9325,-5.0731,-5.0282,-4.9189,-4.7432,0.0,0.0,0.0,0.0,0.0,0.0,0.0,0.0,0.0,0.0,-4.6578,-4.6374,-4.5864,0.0,0.0,0.0,0.0,0.0,0.0,0.0,0.0,0.0,0.0,0.0,0.0,0.0,0.0,0.0,0.0,0.0,0.0,0.0,-4.9394,-4.918,-4.9805,-5.0644,-5.0469,-5.2051,-5.4355,-5.6289,-5.7812,-5.9199,-6.0547,-6.1308,-6.1562,-6.1055,-5.9004,-5.666,-5.4902,-5.3164,-5.1348,-4.9316,-4.8906,-4.8633,-4.7754,-4.7597,-4.8376,-5.0754,-5.231,-5.4644,-5.8775,-6.0393,-6.2384,-6.5682,-6.6697,0.0,0.0,0.0,0.0,0.0,0.0,0.0,0.0,-6.8005,-6.7869,-6.7322,-6.6971,-6.6795,-6.6795,-6.6319,-6.5918,-6.5575,-6.3648,-6.2558,-6.2168,-6.0449,-5.9394,-5.8867,0.0,0.0,0.0,-5.6738,-5.6601,-5.6601,-5.6601,-5.6601,-5.6601,-5.6601,-5.6601,-5.6601,0.0,0.0,0.0,0.0,0.0,-4.3765,-4.4167,-4.5636,-4.7237,-4.8777,-4.9091,-4.9657,-5.0887,-5.1258,-5.0906,-4.9677,-4.8818,0.0,0.0,0.0,0.0,0.0,0.0,0.0,0.0,0.0,-4.7501,-4.7319,-4.7171,-4.7114,0.0,0.0,0.0,0.0,0.0,0.0,0.0,0.0,0.0,0.0,0.0,0.0,0.0,0.0,0.0,0.0,0.0,0.0,0.0,0.0,0.0,-5.0351,-4.9258,-4.9707,-5.1172,-5.3769,-5.5762,-5.75,-5.9199,-6.0293,-6.0801,-6.0195,-5.8105,-5.582,-5.4336,-5.2656,-5.0918,-4.9258,-4.8906,-4.8633,-4.7754,-4.7382,-4.7772,-4.9468,-5.1181,-5.3422,-5.6612,-5.823,-6.0336,-6.3672,0.0,-6.5643,0.0,0.0,0.0,0.0,0.0,0.0,0.0,-6.7381,-6.7439,-6.6815,-6.6795,-6.6697,-6.6444,-6.5633,-6.496,-6.4422,-6.2319,-6.1189,-6.0918,-5.9473,-5.8476,0.0,0.0,0.0,0.0,-5.6601,-5.6601,-5.6601,-5.6601,-5.6601,-5.6601,-5.6601,-5.6445,-5.6211,0.0,0.0,0.0,0.0,0.0,0.0,-4.2552,-4.5361,-4.7295,-4.6456,-4.8525,-5.0085,-5.0104,-5.0887,-5.1394,-5.1375,-5.0573,0.0,0.0,0.0,0.0,0.0,0.0,0.0,0.0,0.0,-4.8418,-4.8299,-4.9872,-5.0654,-5.0654,-5.0654,0.0,0.0,0.0,0.0,0.0,0.0,0.0,0.0,0.0,0.0,0.0,0.0,0.0,0.0,0.0,0.0,0.0,0.0,0.0,0.0,0.0,-4.8906,-4.9433,-5.1973,-5.3965,-5.5703,-5.7441,-5.8555,-5.9219,-5.9219,-5.7246,-5.5078,-5.4199,-5.2656,-5.0918,-4.9258,-4.8906,-4.8633,-4.7754,-4.6894,-4.6875,-4.8631,-5.0329,-5.2338,-5.4962,-5.7498,-5.9447,0.0,0.0,-6.3379,0.0,0.0,0.0,0.0,0.0,0.0,0.0,-6.6815,-6.6815,-6.6795,-6.6795,-6.6424,-6.5624,-6.4746,-6.3451,-6.1729,-6.0849,-5.9996,-5.9199,-5.8301,0.0,0.0,0.0,0.0,0.0,-5.6601,-5.6601,-5.6601,-5.6601,-5.6601,-5.6601,-5.6601,-5.6055,-5.5312,0.0,0.0,0.0,0.0,0.0,0.0,0.0,-4.4602,-4.548,-4.6983,-4.7373,-4.8174,-4.9909,-5.0887,-5.1394,-5.1394,-5.0592,0.0,0.0,0.0,0.0,0.0,0.0,0.0,0.0,0.0,-4.9317,-4.9189,-4.9602,-5.0394,-5.151,-5.0952,-5.0423,-4.9798,0.0,0.0,0.0,0.0,0.0,0.0,0.0,0.0,0.0,0.0,0.0,0.0,0.0,0.0,0.0,0.0,0.0,0.0,0.0,0.0,0.0,-5.0742,-5.1387,-5.2441,-5.5332,-5.6328,-5.6387,-5.5781,-5.457,-5.2988,-5.0976,-5.0547,-4.9922,-4.7598,-4.8066,-4.8457,-4.6973,-4.6484,-4.7441,-5.0935,-5.1931,-5.3393,-5.6564,0.0,0.0,-6.1117,-6.3848,0.0,0.0,0.0,0.0,0.0,0.0,0.0,0.0,0.0,-6.4746,-6.5936,-6.539,-6.4687,-6.3828,-6.2364,-6.1358,-6.0783,-5.9363,-5.8569,-5.828,-5.7402,0.0,0.0,0.0,0.0,0.0,-5.6601,-5.6601,-5.6601,-5.6601,-5.6601,-5.6523,-5.5937,-5.5547,-5.5215,0.0,0.0,0.0,0.0,0.0,0.0,0.0,-4.4602,-4.5148,-4.6454,-4.6983,-4.7842,-4.9442,-5.0672,-5.1394,-5.1394,-5.0906,0.0,0.0,0.0,0.0,0.0,0.0,0.0,-4.8755,-4.9732,-5.0209,-5.0134,-5.0592,-5.1548,-5.2856,-5.2029,-5.1471,-5.1087,-4.9702,0.0,0.0,0.0,0.0,0.0,0.0,0.0,0.0,0.0,0.0,0.0,0.0,0.0,0.0,0.0,0.0,0.0,0.0,0.0,0.0,0.0,-4.9473,-4.9883,-5.2988,-5.4062,-5.4101,-5.3242,-5.2383,-5.1348,-4.9746,-4.9805,-4.9648,-4.7676,-4.8144,-4.8476,-4.7051,-4.6523,-4.7168,-4.9843,-5.1112,-5.2615,0.0,0.0,0.0,-6.1417,0.0,0.0,0.0,0.0,0.0,0.0,0.0,0.0,0.0,0.0,-6.2852,-6.3613,-6.3438,-6.2891,-6.2032,-6.0627,-5.9736,-5.9394,-5.8054,-5.7416,-5.738,0.0,0.0,0.0,0.0,0.0,0.0,-5.6601,-5.6601,-5.6562,-5.623,-5.6113,-5.5996,-5.5137,-5.4609,-5.4238,0.0,0.0,0.0,0.0,0.0,0.0,0.0,-4.5207,-4.5929,-4.5107,-4.7178,-4.8701,-4.8701,-5.0321,-5.1394,-5.1394,0.0,0.0,0.0,0.0,0.0,0.0,0.0,0.0,-4.8935,-5.0343,-5.1099,-5.1088,-5.2584,-5.3751,-5.4568,-5.3703,-5.2788,-5.1865,-5.1125,-5.075,0.0,0.0,0.0,0.0,0.0,0.0,0.0,0.0,0.0,0.0,0.0,0.0,0.0,0.0,0.0,0.0,0.0,0.0,0.0,0.0,0.0,0.0,0.0,-5.168,-5.2246,-5.1504,-5.0742,-5.0176,-5.0117,-5.0156,0.0,-4.9082,-4.8906,-4.8652,-4.7832,-4.6933,-4.6387,-4.6621,-4.875,-5.0683,0.0,-5.4665,0.0,0.0,0.0,0.0,0.0,0.0,0.0,0.0,0.0,0.0,0.0,0.0,0.0,-6.0159,-6.092,-6.0978,-6.0217,-5.9358,-5.8523,-5.7714,-5.696,-5.6595,-5.6599,0.0,0.0,0.0,0.0,0.0,0.0,-5.6523,-5.6504,-5.6426,-5.5547,-5.5215,-5.5098,-5.4238,-5.3398,-5.2695,0.0,0.0,0.0,0.0,0.0,0.0,0.0,0.0,0.0,0.0,-4.6688,-4.7879,-4.7879,-4.9989,-5.1394,0.0,0.0,0.0,0.0,0.0,0.0,0.0,0.0,0.0,-4.9811,-5.1342,-5.2101,-5.1987,-5.3569,-5.4718,-5.5395,-5.4587,-5.3376,-5.1885,-5.1692,-5.1279,0.0,0.0,0.0,0.0,0.0,0.0,0.0,0.0,0.0,0.0,0.0,-4.941,0.0,0.0,0.0,0.0,0.0,0.0,0.0,0.0,-4.875,-4.8281,-4.6875,0.0,-4.9902,-5.0371,-5.0332,-5.0039,0.0,-4.9726,-4.9941,-4.9082,-4.8906,-4.8848,-4.8633,-4.7344,-4.7168,-4.9785,-5.1289,-5.2636,-5.4177,0.0,0.0,-6.2449,0.0,0.0,0.0,0.0,0.0,0.0,0.0,0.0,0.0,0.0,0.0,-5.7523,-5.7699,-5.7992,-5.8402,-5.7601,-5.7074,-5.6883,-5.6698,-5.6607,-5.6595,0.0,0.0,0.0,0.0,0.0,-5.6543,-5.5879,-5.5605,-5.5527,-5.4648,-5.4316,-5.4199,-5.332,-5.2871,-5.2598,0.0,0.0,0.0,0.0,0.0,0.0,0.0,0.0,0.0,0.0,0.0,0.0,0.0,0.0,0.0,0.0,0.0,0.0,0.0,0.0,0.0,0.0,0.0,-5.0984,-5.0124,-5.1671,-5.2464,-5.2391,-5.3943,-5.5079,-5.5769,-5.5274,-5.3914,-5.1865,-5.1106,-5.0721,0.0,0.0,0.0,0.0,0.0,0.0,0.0,0.0,0.0,0.0,-4.8097,-4.8714,0.0,-4.8841,-4.927,-4.9878,0.0,0.0,0.0,0.0,-4.7691,-4.6751,-4.5297,-4.6577,-4.832,-4.8398,-4.9004,-4.9375,-4.8496,-4.8672,-4.8867,-4.8398,-4.7988,-4.7832,-4.8223,-4.7517,-4.7593,-4.9883,-5.1267,0.0,0.0,0.0,-6.1051,0.0,0.0,0.0,0.0,0.0,0.0,0.0,0.0,0.0,0.0,0.0,-5.7055,0.0,-5.6606,-5.6801,-5.725,-5.6821,-5.6606,-5.6606,-5.6596,-5.6606,-5.6593,0.0,0.0,0.0,0.0,0.0,-5.5937,-5.5058,-5.4707,-5.4629,-5.373,-5.3398,-5.3301,-5.2422,-5.2109,-5.2031,0.0,0.0,0.0,0.0,0.0,0.0,0.0,0.0,0.0,0.0,0.0,0.0,0.0,0.0,0.0,0.0,0.0,0.0,0.0,0.0,0.0,0.0,-5.1394,-5.1121,-5.0514,-5.1837,-5.2657,-5.2909,-5.4259,-5.5277,-5.5907,-5.5789,-5.4368,-5.1827,-5.0298,-5.001,0.0,0.0,0.0,0.0,0.0,0.0,0.0,0.0,0.0,0.0,0.0,0.0,0.0,-4.7505,-4.8006,-4.9157,-4.8436,0.0,0.0,0.0,0.0,0.0,-4.4451,-4.5865,-4.7224,-4.6619,-4.7771,-4.8825,-4.7947,-4.7751,-4.7752,-4.7773,-4.7089,-4.6757,-4.7616,-4.7722,-4.8024,0.0,0.0,0.0,-5.7651,-5.9471,0.0,0.0,0.0,0.0,0.0,0.0,0.0,0.0,0.0,0.0,0.0,0.0,0.0,0.0,-5.6606,-5.6606,-5.6606,-5.6606,-5.6606,-5.6606,-5.6595,-5.6605,-5.6593,-5.6461,0.0,0.0,0.0,0.0,-5.5039,-5.416,-5.3808,-5.3711,-5.2832,-5.25,-5.2402,-5.168,-5.1406,-5.1406,0.0,0.0,0.0,0.0,0.0,0.0,0.0,0.0,0.0,0.0,0.0,0.0,0.0,0.0,0.0,0.0,0.0,0.0,0.0,0.0,0.0,-5.1394,-5.1394,-5.1687,-5.2292,-5.254,-5.3331,-5.4706,-5.5619,-5.6006,-5.5907,-5.5937,-5.4505,-5.1865,-5.0914,-5.0632,-5.0863,0.0,0.0,0.0,0.0,0.0,0.0,0.0,0.0,0.0,0.0,0.0,0.0,-4.5966,-4.6244,-4.6422,-4.6418,0.0,0.0,0.0,0.0,0.0,-4.2789,-4.4419,-4.6485,-4.7078,-4.8499,-4.9526,-4.8655,-4.846,-4.8474,-4.8589,-4.791,-4.7578,-4.8457,-4.8564,-4.9048,0.0,0.0,-5.6589,0.0,0.0,0.0,0.0,0.0,0.0,0.0,0.0,0.0,0.0,0.0,0.0,0.0,0.0,0.0,-5.6606,0.0,-5.6606,-5.6606,-5.6606,-5.6606,-5.6606,-5.6606,-5.6598,-5.6573,-5.5831,-5.5504,0.0,0.0,-5.4199,-5.4121,-5.3262,-5.2891,-5.2812,-5.1933,-5.1601,-5.1582,-5.1445,-5.1406,-5.1406,0.0,0.0,0.0,0.0,0.0,0.0,0.0,0.0,0.0,0.0,0.0,0.0,0.0,0.0,0.0,0.0,0.0,0.0,0.0,0.0,0.0,-5.1394,-5.0945,-5.1336,-5.2665,-5.2704,-5.3745,-5.5903,-5.6644,-5.6897,-5.6679,-5.4693,-5.336,-5.2529,-5.0853,-5.0397,-5.091,-5.1045,-5.1146,0.0,0.0,0.0,0.0,0.0,0.0,0.0,0.0,0.0,0.0,0.0,-4.5722,-4.6389,-4.6058,0.0,0.0,0.0,0.0,0.0,-4.1548,-4.3325,-4.5384,-4.5783,-4.8262,-5.0135,-4.8304,-4.8261,-4.8366,-4.7521,-4.702,-4.7,-4.7842,0.0,-5.0166,-5.2812,0.0,0.0,0.0,0.0,0.0,0.0,0.0,0.0,0.0,0.0,0.0,0.0,0.0,0.0,0.0,0.0,0.0,0.0,-5.6606,-5.6606,-5.6606,-5.6606,-5.6606,-5.6606,-5.6606,-5.6341,-5.5885,-5.5477,-5.5034,-5.455,0.0,-5.3301,-5.3223,-5.2363,-5.1992,-5.1953,-5.1562,-5.1406,-5.1406,-5.1406,-5.1406,-5.1406,0.0,0.0,0.0,0.0,0.0,0.0,0.0,0.0,0.0,0.0,0.0,0.0,0.0,0.0,0.0,0.0,0.0,0.0,0.0,0.0,-5.1396,-5.1398,-5.036,-5.0809,-5.2956,-5.2607,-5.3873,-5.6879,-5.7207,-5.7279,-5.7055,-5.3972,-5.2665,-5.2849,-5.1004,-5.0487,-5.0978,-5.1123,-5.1214,0.0,0.0,0.0,0.0,0.0,0.0,0.0,0.0,0.0,0.0,0.0,0.0,0.0,0.0,0.0,0.0,-4.3133,-4.2274,-4.1313,-4.1138,-4.2802,-4.4555,-4.4342,-4.7129,-4.9566,-4.8171,-4.8054,-4.8059,-4.7415,-4.7107,-4.7146,-4.7774,-4.9425,0.0,-5.4679,-5.6675,0.0,0.0,0.0,0.0,0.0,0.0,0.0,0.0,0.0,0.0,0.0,0.0,0.0,0.0,0.0,0.0,0.0,-5.6606,-5.6606,-5.6606,-5.6606,-5.6606,-5.6606,-5.6391,-5.5948,-5.5295,-5.4889,-5.4329,-5.3651,-5.2773,-5.2402,-5.2344,-5.168,-5.1406,-5.1406,-5.1406,-5.1406,-5.1406,-5.1406,-5.1406,-5.1406,0.0,0.0,0.0,0.0,0.0,0.0,0.0,0.0,0.0,0.0,0.0,0.0,0.0,0.0,0.0,0.0,0.0,0.0,0.0,0.0,-5.1398,-5.1408,-4.9799,-5.0477,-5.3834,-5.2312,-5.3541,-5.7719,-5.7011,-5.6539,-5.6265,-5.4938,-5.3552,-5.2169,-5.1992,-5.1638,-5.1183,-5.1195,-5.1262,-5.139,-5.1392,0.0,0.0,0.0,0.0,0.0,0.0,0.0,0.0,0.0,0.0,0.0,0.0,0.0,-4.2987,-4.2366,-4.2582,-4.2858,-4.2118,-4.3227,-4.44,-4.3595,-4.4795,-4.6763,-4.9021,-4.8324,-4.7882,-5.0246,-5.0089,-4.9545,-4.9604,-5.1661,-5.3896,-5.5628,0.0,0.0,0.0,0.0,0.0,0.0,0.0,0.0,0.0,0.0,0.0,0.0,0.0,0.0,0.0,0.0,0.0,0.0,0.0,-5.6606,-5.6606,-5.6606,-5.6606,-5.6586,-5.5786,-5.5363,-5.5256,-5.3614,-5.2841,-5.2733,-5.1873,-5.1484,-5.1484,-5.1426,-5.1406,-5.1406,-5.1406,-5.1406,-5.1406,-5.1406,-5.1406,-5.1406,0.0,0.0,0.0,0.0,0.0,0.0,0.0,0.0,0.0,0.0,0.0,0.0,0.0,0.0,0.0,0.0,0.0,0.0,0.0,-5.0824,-5.1405,-5.1409,-4.9721,-5.0184,-5.3132,-5.2019,-5.3502,-5.7797,-5.7411,-5.7137,-5.6906,-5.4888,-5.3576,-5.2879,-5.1942,-5.1113,-5.0427,-5.1057,-5.1045,-5.0631,-5.118,0.0,0.0,0.0,0.0,0.0,0.0,0.0,0.0,0.0,-4.3437,-4.3852,-4.3886,-4.3158,-4.2248,-4.2032,-4.1788,-4.1523,-4.1248,-4.2859,-4.4516,-4.4188,-4.4968,-4.6348,-4.8411,-4.9184,-4.9896,-5.1465,-5.1511,-5.1298,-5.1298,0.0,-5.3913,0.0,0.0,0.0,0.0,0.0,0.0,0.0,0.0,0.0,0.0,0.0,0.0,0.0,0.0,0.0,0.0,0.0,0.0,0.0,0.0,-5.5532,-5.4986,-5.4986,-5.4986,-5.4986,-5.5201,-5.4736,-5.3666,-5.3006,-5.2409,-5.187,-5.154,-5.1406,-5.1406,-5.1406,-5.1406,-5.1406,-5.1406,-5.1406,-5.1406,-5.1406,-5.1406,-5.1406,0.0,0.0,0.0,0.0,0.0,0.0,0.0,0.0,0.0,0.0,0.0,0.0,0.0,0.0,0.0,0.0,0.0,0.0,-4.8492,-4.9794,-5.0589,-5.0612,-4.9703,-5.0301,-5.2646,-5.159,-5.3093,-5.7426,-5.754,-5.7289,-5.6631,-5.4568,-5.3566,-5.3455,-5.1609,-5.0633,-5.0404,-5.082,-5.0656,-5.0188,-5.105,-5.0373,0.0,0.0,0.0,0.0,0.0,0.0,0.0,0.0,-4.3308,-4.3583,-4.3844,-4.2951,-4.1805,-4.1882,-4.187,-4.174,-4.1247,-4.2814,-4.4536,-4.4265,-4.5026,-4.6348,-4.8353,-4.9707,-5.1003,-5.2685,-5.2801,-5.2616,-5.2616,-5.3091,0.0,0.0,0.0,0.0,0.0,0.0,0.0,0.0,0.0,0.0,0.0,0.0,0.0,0.0,0.0,0.0,0.0,0.0,0.0,0.0,0.0,0.0,-5.401,-5.401,-5.3854,-5.36,-5.4186,-5.3856,-5.2685,-5.2417,-5.1956,-5.1398,-5.1402,-5.1405,-5.1406,-5.1406,-5.1406,-5.1406,-5.1406,-5.1406,-5.1406,-5.1406,-5.1406,-5.1406,0.0,0.0,0.0,0.0,0.0,0.0,0.0,0.0,0.0,0.0,0.0,0.0,0.0,0.0,0.0,0.0,0.0,0.0,-4.7578,-4.8333,-4.8814,-4.8898,-4.9666,-5.0906,-5.2646,-5.1004,-5.2232,-5.6567,-5.7248,-5.6717,-5.5056,-5.4064,-5.3661,-5.3654,-5.1067,-5.0465,-5.1316,-5.0448,-5.008,-5.0179,-5.1045,-5.0385,-4.8807,0.0,0.0,0.0,0.0,0.0,0.0,0.0,-4.2619,-4.2044,-4.2852,-4.2508,-4.1805,-4.1882,-4.3123,-4.4114,-4.2444,-4.3271,-4.4381,-4.3537,-4.4639,-4.66,-4.9126,-4.9726,-5.0693,-5.4116,-5.4116,-5.3517,-5.3517,-5.3517,0.0,0.0,0.0,0.0,0.0,0.0,0.0,0.0,0.0,0.0,0.0,0.0,0.0,0.0,0.0,0.0,0.0,0.0,0.0,0.0,0.0,0.0,-5.3971,-5.3971,-5.3541,-5.2685,-5.2685,-5.2685,-5.2665,-5.1785,-5.1405,-5.1398,-5.1398,-5.1403,-5.1406,-5.1406,-5.1406,-5.1406,-5.1406,-5.1406,-5.1406,-5.1406,-5.1406,-5.1406,0.0,0.0,0.0,0.0,0.0,0.0,0.0,0.0,0.0,0.0,0.0,0.0,0.0,0.0,0.0,0.0,0.0,0.0,-4.5801,-4.6578,-4.7608,-4.8859,-4.8534,-4.9423,-5.1746,-5.1882,-5.2565,-5.3854,-5.4677,-5.445,-5.3279,-5.3689,-5.287,-5.1059,-5.0982,-5.0469,-4.9627,-4.9317,-4.9536,-5.0126,-5.0382,-4.9858,-4.8807,0.0,0.0,0.0,0.0,0.0,0.0,0.0,0.0,0.0,-4.2845,-4.2494,-4.1797,-4.1824,-4.2225,-4.244,-4.1316,-4.2774,-4.4536,-4.4284,-4.6419,-4.8914,-5.0241,-5.1022,-5.224,-5.5064,-5.4987,-5.4407,-5.4407,-5.4407,0.0,0.0,0.0,0.0,0.0,0.0,0.0,0.0,0.0,0.0,0.0,0.0,0.0,0.0,0.0,0.0,0.0,0.0,0.0,0.0,0.0,0.0,-5.2175,-5.2175,-5.2038,-5.1785,-5.1785,-5.1785,-5.1785,-5.1511,-5.1402,-5.1393,-5.1396,-5.1402,-5.1405,-5.1406,-5.1406,-5.1406,-5.1406,-5.1406,-5.1406,-5.1406,-5.1406,-5.1406,0.0,0.0,0.0,0.0,0.0,0.0,0.0,0.0,0.0,0.0,-4.8378,-4.8574,0.0,0.0,0.0,0.0,0.0,0.0,0.0,-4.4979,-4.6049,-4.7785,-4.8009,-4.8958,-5.0848,-5.1394,-5.1668,-5.1668,-5.3229,-5.333,-5.2081,-5.2687,-5.1904,-4.9975,-4.992,-4.9508,-4.8831,-4.8484,-4.8625,-4.9136,-4.9489,-4.9139,-4.8241,0.0,0.0,0.0,0.0,0.0,0.0,0.0,0.0,0.0,-4.1929,-4.1705,-4.1354,-4.1736,-4.2117,-4.2382,-4.2191,-4.3824,-4.5587,-4.5587,-4.7908,-5.0577,-5.2105,-5.2859,-5.3749,-5.5625,-5.5084,-5.4387,-5.4735,-5.4233,0.0,0.0,0.0,0.0,0.0,0.0,0.0,0.0,0.0,0.0,0.0,0.0,0.0,0.0,0.0,0.0,0.0,0.0,0.0,0.0,0.0,0.0,-5.1414,-5.1394,-5.1394,-5.1394,-5.1394,-5.1394,-5.1394,-5.1394,-5.14,-5.139,-5.1398,-5.1404,-5.1406,-5.1406,-5.1406,-5.1406,-5.1406,-5.1406,-5.1406,-5.1406,-5.1406,-5.1406,0.0,0.0,0.0,0.0,0.0,0.0,0.0,0.0,0.0,0.0,-4.75,-4.7578,0.0,0.0,0.0,0.0,0.0,0.0,0.0,0.0,-4.4391,-4.6221,-4.7973,-4.9293,-5.0085,-5.0104,-5.0065,-4.9987,-5.2448,-5.28,-5.116,-5.1238,-5.0731,-4.9696,-4.8319,-4.803,-4.8521,-4.7711,-4.7401,-4.7538,-4.8261,-4.8066,-4.7187,-4.5605,0.0,0.0,0.0,0.0,0.0,0.0,0.0,0.0,-4.0534,-4.0562,-4.0773,-4.1543,-4.2448,-4.3361,-4.4073,-4.5604,-4.6999,-4.7076,-4.9088,-5.1652,-5.4116,-5.4677,-5.4929,-5.5818,0.0,-5.3865,-5.4658,0.0,0.0,0.0,0.0,0.0,0.0,0.0,0.0,0.0,0.0,0.0,0.0,0.0,0.0,0.0,0.0,0.0,0.0,0.0,0.0,0.0,0.0,0.0,-5.1394,-5.1394,-5.1394,0.0,-5.1394,-5.1394,-5.1394,-5.1394,-5.14,-5.1391,-5.1402,-5.1405,-5.1406,-5.1406,-5.1406,-5.1387,-5.1328,-5.1289,-5.1289,-5.1289,-5.1289,-5.1308,0.0,0.0,0.0,0.0,0.0,0.0,0.0,0.0,0.0,0.0,0.0,0.0,0.0,0.0,0.0,0.0,0.0,0.0,0.0,0.0,-4.3766,-4.6182,-4.8553,-4.9911,-5.0104,-5.0104,-4.9753,-4.9072,-5.0338,-5.0399,-4.9364,-5.0067,-4.9212,-4.7168,-4.8127,-4.7918,-4.6774,-4.5916,-4.5956,-4.6543,-4.6035,-4.5723,-4.5527,-4.5137,-4.4023,0.0,0.0,0.0,0.0,0.0,0.0,0.0,-4.0589,-4.1004,-4.1439,-4.1016,-4.1986,-4.311,-4.2664,-4.4264,-4.6252,-4.6922,-4.9533,-5.224,-5.3498,-5.3768,-5.4194,-5.5702,-5.5219,-5.4581,-5.4774,0.0,0.0,0.0,0.0,0.0,0.0,0.0,0.0,0.0,0.0,0.0,0.0,0.0,0.0,0.0,0.0,0.0,0.0,0.0,0.0,0.0,0.0,-5.1394,-5.1394,-5.1394,-5.1394,0.0,-5.1394,-5.1394,-5.1394,-5.1394,-5.1403,-5.1397,-5.1399,-5.1404,-5.1406,-5.1406,-5.1406,-5.1348,-5.0703,-5.0469,-5.0469,-5.0469,-5.0469,-5.0547,0.0,0.0,0.0,0.0,0.0,0.0,0.0,0.0,0.0,0.0,0.0,0.0,0.0,0.0,0.0,0.0,0.0,0.0,0.0,-4.2402,-4.3748,-4.6789,-4.8966,-5.009,-5.0104,-4.9694,-4.9267,-4.8798,-4.8874,-4.866,-4.8252,-4.9519,-4.8743,-4.6332,-4.7213,-4.6886,-4.5623,-4.4745,-4.4648,-4.5019,-4.4551,-4.4375,-4.4336,-4.3906,-4.3183,-4.2344,-4.193,0.0,0.0,0.0,0.0,0.0,0.0,0.0,-4.1231,-4.1268,-4.1914,-4.2727,-4.3129,-4.449,-4.631,-4.8392,-5.0577,-5.2442,-5.3304,-5.3498,-5.3749,-5.4619,-5.4136,-5.3556,0.0,0.0,0.0,0.0,0.0,0.0,0.0,0.0,0.0,0.0,0.0,0.0,0.0,0.0,0.0,0.0,0.0,0.0,0.0,0.0,0.0,0.0,-5.1394,-5.1394,-5.1394,-5.1394,-5.1394,-5.1394,-5.1394,-5.1394,-5.1394,-5.1394,-5.1405,-5.1398,-5.1398,-5.1403,-5.1406,-5.1406,-5.1172,-5.0781,-5.0351,-4.9941,-4.957,-4.957,-4.9844,-5.0254,0.0,0.0,0.0,0.0,0.0,0.0,0.0,0.0,0.0,0.0,0.0,0.0,0.0,0.0,0.0,0.0,0.0,0.0,0.0,-4.2461,-4.4042,-4.7238,-4.8697,-4.9432,-4.944,-4.874,-4.8291,-4.8135,-4.7627,-4.745,-4.7625,-4.8874,-4.8316,-4.6295,-4.6299,-4.5737,-4.4726,-4.4004,-4.3535,-4.3262,-4.3262,-4.3183,-4.2969,-4.2246,-4.1875,-4.164,-4.0928,-4.0765,-4.0876,-4.0744,0.0,0.0,0.0,0.0,-4.0745,-4.137,-4.1763,-4.2252,-4.3407,-4.4639,-4.6399,-4.9834,-5.1235,-5.1989,-5.2859,-5.3053,-5.3053,-5.3053,-5.2589,0.0,0.0,0.0,0.0,0.0,0.0,0.0,0.0,0.0,0.0,0.0,0.0,0.0,0.0,0.0,0.0,0.0,0.0,0.0,0.0,0.0,-5.1405,-5.1394,-5.1394,-5.1394,-5.1394,-5.1394,-5.1394,-5.1394,-5.1394,-5.1316,-5.118,-5.118,-5.1267,-5.1397,-5.1242,-5.1188,-5.1172,-5.1035,-5.0586,-4.9961,-4.9805,-4.9316,-4.8672,-4.8672,-4.9121,-4.9766,0.0,0.0,0.0,0.0,0.0,0.0,0.0,0.0,0.0,0.0,-4.6484,-4.6855,-4.5332,-4.3613,0.0,0.0,0.0,0.0,-4.1367,0.0,0.0,-4.6398,-4.6684,-4.6816,-4.6807,-4.669,-4.6261,-4.5519,-4.6163,-4.6866,-4.7586,-4.7061,-4.662,-4.6301,-4.6301,-4.5407,-4.3867,-4.375,-4.2851,-4.1523,-4.1523,-4.1074,-4.0391,-4.0273,-3.9766,-3.9082,-3.8984,-3.9414,-4.0057,-3.9978,-4.0405,0.0,0.0,0.0,0.0,-3.9934,-4.0816,-4.1731,-4.0513,-4.2415,-4.5587,-4.901,-4.9958,-5.0248,0.0,0.0,-5.1246,0.0,0.0,0.0,0.0,0.0,0.0,0.0,0.0,0.0,0.0,0.0,0.0,0.0,0.0,0.0,0.0,0.0,0.0,0.0,0.0,0.0,0.0,-5.1365,-5.1405,-5.1394,-5.1394,-5.1394,-5.1394,-5.1394,-5.1394,-5.1394,-5.1394,-5.1004,-5.026,-5.026,-5.0697,-5.1352,-5.0596,-5.0307,-5.0292,-4.9551,-4.918,-4.9004,-4.8242,-4.7871,-4.7773,-4.7773,-4.7851,-4.8066,0.0,0.0,0.0,0.0,0.0,0.0,0.0,0.0,0.0,0.0,0.0,-4.5859,-4.5078,-4.3437,0.0,0.0,0.0,0.0,-4.1836,-4.3027,0.0,0.0,-4.6047,-4.606,-4.5584,-4.556,-4.5148,-4.427,-4.4665,-4.5545,-4.6853,-4.6488,-4.6825,-4.7747,-4.7241,-4.6053,-4.4355,-4.3398,-4.1992,-4.0469,-4.0469,-4.0527,-4.0527,-3.9531,-3.9531,-3.9922,-3.8945,-3.8848,-3.9238,-3.9704,-4.0064,-4.0315,-4.0268,0.0,0.0,0.0,-3.9311,-4.003,-4.0768,-4.3078,-4.5764,-4.7839,-4.9026,-4.9807,-5.0188,-5.0591,-5.0898,0.0,0.0,0.0,0.0,0.0,0.0,0.0,0.0,0.0,0.0,0.0,0.0,0.0,0.0,0.0,0.0,0.0,0.0,0.0,0.0,0.0,-5.1254,-5.1348,-5.1409,-5.1394,-5.1394,0.0,-5.1394,-5.1394,-5.116,-5.067,-5.0184,-4.9735,-4.9364,-4.9364,-4.9584,-4.9924,-4.9579,-4.9448,-4.9432,-4.9062,-4.8613,-4.8125,-4.7754,-4.7305,-4.6875,-4.6875,-4.7187,-4.7656,0.0,0.0,0.0,0.0,0.0,0.0,0.0,0.0,0.0,0.0,0.0,-4.4922,-4.4687,0.0,0.0,0.0,0.0,0.0,-4.2051,0.0,0.0,0.0,0.0,-4.499,-4.436,-4.4117,-4.3803,-4.3375,-4.2932,-4.4067,-4.6627,-4.6399,-4.7455,-4.9486,-4.8181,-4.662,-4.4902,-4.3379,-4.2012,-4.0859,-4.0625,-4.0801,-4.1074,-3.998,-4.0254,-4.0996,-3.9473,-3.8926,-3.9023,-3.9687,-3.9724,-3.9536,-3.9743,0.0,0.0,0.0,0.0,-3.8178,-4.0999,-4.296,-4.4641,-4.6465,-4.7853,-4.8876,0.0,0.0,0.0,0.0,0.0,0.0,0.0,0.0,0.0,0.0,0.0,0.0,0.0,0.0,0.0,0.0,0.0,0.0,0.0,0.0,0.0,0.0,0.0,0.0,-5.1221,-5.1347,-5.1295,-5.1082,-5.1063,-5.0965,-5.0731,-5.0731,-5.0418,-4.9753,-4.9111,-4.8681,-4.8505,-4.8505,-4.8372,-4.8184,-4.8445,-4.8568,-4.8552,-4.8339,-4.7851,-4.7266,-4.7266,-4.6875,-4.6308,-4.6308,-4.6719,-4.7266,0.0,0.0,0.0,0.0,0.0,0.0,0.0,0.0,0.0,0.0,0.0,0.0,-4.3867,-4.2949,-4.207,-4.1269,-4.1191,0.0,0.0,0.0,0.0,0.0,0.0,0.0,-4.2544,-4.1737,-4.1698,-4.2466,-4.0885,-4.2645,-4.751,-4.6696,-4.8084,-5.115,-4.8709,-4.662,-4.4941,-4.4023,-4.3574,-4.3437,-4.2598,-4.1836,-4.1269,-4.1953,-4.1797,-4.1074,-4.0156,-3.9824,-3.9844,-3.9883,-3.9355,-3.8808,-3.9554,-3.9231,-3.836,0.0,0.0,0.0,-3.9942,-4.0358,-4.0803,-4.486,-4.6034,-4.6613,0.0,0.0,0.0,0.0,0.0,0.0,0.0,0.0,0.0,0.0,0.0,0.0,0.0,0.0,0.0,0.0,0.0,0.0,0.0,0.0,0.0,0.0,0.0,0.0,-5.1297,-5.1367,-5.1022,-5.0182,-5.0163,-4.9772,-4.8935,-4.8935,-4.8915,-4.8876,-4.8818,-4.8408,-4.7664,-4.7664,-4.7217,-4.6477,-4.7312,-4.7667,-4.759,-4.6777,-4.6406,-4.6367,-4.6367,-4.6348,-4.6308,-4.6308,-4.6328,-4.6367,0.0,0.0,0.0,0.0,0.0,0.0,0.0,0.0,0.0,0.0,0.0,0.0,0.0,-4.2598,-4.207,-4.1269,-4.1191,0.0,0.0,0.0,0.0,0.0,0.0,0.0,-4.1574,-4.126,-4.1004,-4.0805,-4.0716,-4.191,-4.4273,-4.5097,-4.6113,-4.7304,-4.7519,-4.7246,-4.6504,-4.3945,-4.2578,-4.207,-4.1758,-4.1777,-4.1953,-4.1719,-4.2129,-4.2617,-4.123,-4.0371,-3.998,-4.0547,-4.0156,-3.9394,-3.9119,-3.8798,-3.8213,-3.6704,-3.6826,-3.7699,-3.8922,-3.982,-4.0912,-4.3024,-4.4339,-4.5414,-4.6621,0.0,0.0,0.0,0.0,0.0,0.0,0.0,0.0,0.0,0.0,0.0,0.0,0.0,0.0,0.0,0.0,0.0,0.0,0.0,0.0,0.0,0.0,0.0,-5.046,-5.0038,-4.9635,-4.9286,-4.9267,-4.9111,-4.8798,-4.8291,-4.8037,-4.8017,-4.7451,-4.7042,-4.6768,-4.6768,-4.6593,-4.6321,-4.6625,-4.6765,-4.6747,-4.6425,-4.6308,-4.6308,-4.6308,-4.6308,-4.6308,-4.6308,-4.6308,-4.6308,0.0,0.0,0.0,0.0,0.0,0.0,0.0,0.0,-4.3398,-4.2519,0.0,0.0,0.0,0.0,-4.207,-4.1269,-4.1191,-4.1191,-4.1191,-4.1191,0.0,0.0,0.0,0.0,-4.1109,-4.0834,-4.0442,-3.9893,-4.0133,-4.0995,-4.2421,-4.3594,-4.4609,-4.5449,-4.5723,-4.6348,-4.6992,-4.4375,-4.2969,-4.248,-4.248,-4.2617,-4.2871,-4.3223,-4.3867,-4.4433,-4.3301,-4.2168,-4.1269,-4.1836,-4.1094,-3.9805,-3.9219,-3.8396,-3.7427,-3.6183,-3.685,-3.7998,-3.7965,-3.8994,-4.0424,0.0,0.0,-4.379,-4.5296,0.0,0.0,0.0,0.0,0.0,0.0,0.0,0.0,0.0,0.0,0.0,0.0,0.0,0.0,0.0,0.0,0.0,0.0,0.0,0.0,0.0,0.0,0.0,-4.9628,-4.9177,-4.8755,-4.8408,-4.8115,-4.7959,-4.7959,-4.7432,-4.7159,-4.7159,-4.6573,-4.63,-4.63,-4.63,-4.63,-4.6302,-4.6309,-4.6293,-4.6294,-4.6307,-4.6308,-4.6307,-4.6308,-4.6308,-4.6308,-4.6308,-4.6308,-4.6308,0.0,0.0,0.0,0.0,0.0,0.0,0.0,0.0,-4.3457,-4.2558,0.0,0.0,0.0,0.0,0.0,-4.1308,-4.123,-4.123,-4.1191,-4.1191,0.0,0.0,0.0,0.0,-4.1092,-4.0347,-3.9918,-3.9861,-3.9041,-3.9882,-4.2285,-4.2344,-4.3711,-4.6035,-4.3555,-4.3828,-4.6133,-4.5234,-4.4883,-4.4961,-4.4922,-4.4453,-4.4023,-4.6562,-4.7012,-4.6308,-4.6308,-4.5195,-4.373,-4.373,-4.2051,-3.9961,-3.9883,-3.8105,-3.6015,-3.5923,-3.654,-3.7217,0.0,0.0,0.0,0.0,0.0,0.0,0.0,0.0,0.0,0.0,0.0,0.0,0.0,0.0,0.0,0.0,0.0,0.0,0.0,0.0,0.0,0.0,0.0,0.0,0.0,0.0,0.0,0.0,0.0,-4.8721,-4.8841,-4.8839,-4.8443,-4.7588,-4.6749,-4.63,-4.63,-4.63,-4.63,-4.63,-4.63,-4.63,-4.63,-4.63,-4.63,-4.6302,-4.6309,-4.6293,-4.6294,-4.6305,-4.6307,-4.6307,-4.6308,-4.6308,-4.6308,-4.6308,-4.6308,-4.6308,0.0,0.0,0.0,0.0,0.0,-4.8833,-4.6492,-4.5777,-4.4962,0.0,0.0,0.0,-4.2226,-4.2266,-4.2305,-4.209,-4.207,-4.1816,-4.123,-4.1191,-4.1191,-4.1191,-4.1172,-4.1152,-4.1092,-4.0937,-4.0214,-3.8963,-3.9355,-3.957,-3.9687,-4.0937,-4.1914,-4.2637,-4.3125,-4.3398,-4.3379,-4.1933,-4.2363,-4.4004,-4.3379,-4.373,-4.4726,-4.5449,-4.5957,-4.6308,-4.6308,-4.5586,-4.4648,-4.4648,-4.332,-4.1387,-3.9531,-3.8027,-3.6816,-3.6151,-3.7049,-3.8062,-3.7355,0.0,0.0,0.0,0.0,0.0,0.0,0.0,0.0,0.0,0.0,0.0,0.0,0.0,0.0,0.0,0.0,0.0,0.0,0.0,0.0,0.0,0.0,0.0,0.0,0.0,0.0,0.0,-4.8326,-4.7929,-4.7962,-4.7368,-4.691,-4.6671,-4.6436,-4.63,-4.63,-4.63,-4.63,-4.63,-4.63,-4.63,-4.63,-4.63,-4.63,-4.63,-4.6303,-4.6308,-4.6294,-4.6305,-4.6306,-4.6304,-4.6308,-4.6308,-4.6308,-4.6308,-4.6308,-4.6308,0.0,0.0,0.0,-5.0018,-4.9577,-4.8733,-4.6842,-4.6339,-4.5804,0.0,0.0,0.0,-4.3633,-4.3164,-4.2793,-4.2422,-4.2402,-4.2051,-4.125,-4.1191,-4.1191,-4.1191,-4.1191,-4.1172,-4.1132,-4.1172,-4.0527,-3.914,-3.9648,-3.9453,-3.8633,-4.0019,-4.0469,-4.0156,-4.1133,-4.1484,-4.125,-3.9531,-4.0508,-4.3183,-4.3398,-4.3887,-4.457,-4.5664,-4.6172,-4.6348,-4.6719,-4.6289,-4.5547,-4.5547,-4.4141,-4.207,-4.0254,-3.8848,-3.7734,-3.7226,-3.8066,-3.8945,-3.8022,-3.841,-3.9169,-3.9486,0.0,0.0,0.0,-4.1172,0.0,0.0,0.0,0.0,0.0,0.0,0.0,0.0,0.0,0.0,0.0,0.0,0.0,0.0,0.0,0.0,0.0,0.0,0.0,0.0,-4.7495,-4.707,-4.7064,-4.6583,-4.63,-4.63,-4.63,-4.63,-4.63,-4.63,-4.63,-4.63,-4.63,-4.63,-4.63,-4.63,-4.63,-4.63,-4.63,-4.6305,-4.6294,-4.6302,-4.6305,-4.6305,-4.6308,-4.6308,-4.6308,-4.6308,-4.6308,-4.6308,0.0,0.0,-5.0777,-4.992,-4.9207,-4.8379,-4.7351,-4.6639,-4.6219,0.0,-4.6115,-4.5859,-4.5331,-4.4336,-4.3437,-4.2754,-4.2519,-4.2109,-4.1387,-4.125,-4.1191,-4.1191,-4.1191,-4.1191,-4.1191,-4.1191,-4.0762,-3.9902,-3.9805,-3.9355,-3.8613,-3.9297,-3.9199,-3.8457,-3.8555,-3.8984,-3.9512,-3.8164,-3.9394,-4.2402,-4.3945,-4.4277,-4.4101,-4.6426,-4.6894,-4.6406,-4.7187,-4.6953,-4.6289,-4.6191,-4.4609,0.0,-4.1504,-4.0195,-3.8965,-3.8672,-3.9297,-3.9844,-3.8984,-3.9316,-4.0098,-4.0859,0.0,0.0,-4.1464,-4.1283,0.0,0.0,0.0,0.0,0.0,0.0,0.0,0.0,0.0,0.0,0.0,0.0,0.0,0.0,0.0,0.0,0.0,0.0,-4.7352,-4.7375,-4.6696,-4.6307,-4.6302,-4.6309,-4.63,-4.63,-4.63,-4.63,-4.63,-4.63,-4.63,-4.63,-4.63,-4.63,-4.63,-4.63,-4.63,-4.63,-4.63,-4.6305,-4.6294,-4.63,-4.6304,-4.6307,-4.6308,-4.6308,-4.6308,-4.6308,-4.6308,-4.6308,0.0,-4.9394,-4.9923,-4.9759,-4.9579,-4.8954,-4.7358,-4.7039,-4.6751,-4.6114,-4.5526,-4.5638,-4.6876,-4.5036,-4.3906,-4.4453,-4.3203,-4.2324,-4.2187,-4.1562,-4.1191,-4.1191,-4.1191,-4.1191,-4.1191,-4.1191,-4.0762,-3.9902,-3.9199,-3.8769,-3.8594,-3.8066,-3.7715,-3.7578,-3.8281,-3.8301,-3.7871,-3.8945,-4.0176,-4.1465,-4.1797,-4.3066,-4.4805,-4.5312,-4.584,-4.6328,-4.6484,-4.6445,-4.6191,-4.5488,-4.4902,-4.4101,0.0,0.0,0.0,-3.9199,-3.9707,-4.0762,-3.9883,-3.9766,-3.9941,0.0,0.0,0.0,-3.9394,-3.9151,0.0,0.0,0.0,0.0,0.0,0.0,0.0,0.0,0.0,0.0,0.0,0.0,0.0,0.0,0.0,0.0,0.0,0.0,-4.6487,-4.6522,-4.6386,-4.6303,-4.6301,-4.6309,-4.63,-4.63,-4.63,-4.63,-4.63,-4.63,-4.63,-4.63,-4.63,-4.63,-4.63,-4.63,-4.63,-4.63,-4.63,-4.6305,-4.6294,-4.63,-4.6304,-4.6307,-4.6308,-4.6308,-4.6308,-4.6308,-4.6308,-4.6308,-4.7676,-4.8798,-4.9571,-4.9126,-4.8682,-4.8101,-4.7231,-4.712,-4.7171,-4.724,-4.6973,-4.6981,-4.7453,-4.5991,-4.4824,-4.4394,-4.3555,-4.2695,-4.1855,-4.1426,-4.1191,-4.1191,-4.1191,-4.1191,-4.1191,-4.1191,-4.0996,-4.0547,-3.9687,-3.9023,-3.8594,-3.8144,-3.7715,-3.7324,-3.7754,-3.8184,-3.8594,-3.8594,-3.9609,-4.1269,-4.2109,0.0,-4.5058,-4.5488,-4.5918,-4.6308,-4.6308,-4.6308,-4.6172,-4.5293,-4.5,0.0,-4.2988,-4.2715,-4.2715,0.0,-4.1113,-4.1621,-4.0781,-4.0547,0.0,-4.1055,0.0,0.0,0.0,-3.9823,-3.9469,0.0,0.0,0.0,0.0,0.0,0.0,0.0,0.0,0.0,0.0,0.0,0.0,0.0,0.0,0.0,0.0,0.0,-4.6266,-4.6308,-4.6306,-4.6301,-4.6301,-4.6309,-4.63,-4.63,-4.63,-4.63,-4.63,-4.63,-4.63,-4.63,-4.624,-4.624,-4.63,-4.6238,-4.624,-4.63,-4.63,-4.6305,-4.6294,-4.63,-4.6304,-4.6307,-4.6308,-4.6308,-4.6308,-4.6308,-4.6308,-4.6308,-4.6593,-4.7753,-4.8508,-4.7792,-4.7212,-4.6806,-4.6631,-4.6748,-4.7125,-4.788,-4.8109,-4.7989,-4.7504,-4.6584,-4.564,-4.4721,-4.4038,-4.3161,-4.199,-4.16,-4.1347,-4.1211,-4.1191,-4.1191,-4.1191,-4.1191,-4.1191,-4.1191,-4.0156,-3.9297,-3.8594,-3.8262,-3.7812,-3.7305,-3.7305,-3.8164,-3.957,-3.832,-3.9219,-4.1562,0.0,-4.4023,-4.4609,-4.5644,-4.6055,-4.6074,-4.623,-4.6308,-4.6191,-4.5488,-4.5254,-4.5098,-4.4238,-4.4062,0.0,0.0,0.0,-4.2715,0.0,0.0,0.0,0.0,0.0,-4.0859,0.0,0.0,0.0,-4.0625,0.0,0.0,0.0,0.0,0.0,0.0,0.0,0.0,0.0,0.0,0.0,0.0,0.0,0.0,0.0,0.0,-4.5937,-4.6269,-4.5994,-4.5951,-4.6282,-4.6291,-4.6302,-4.63,-4.63,-4.63,-4.63,-4.63,-4.6222,-4.6046,-4.5919,-4.5922,-4.6044,-4.5916,-4.6,-4.63,-4.63,-4.6305,-4.6291,-4.63,-4.6304,-4.6306,-4.6308,-4.6308,-4.6308,-4.6308,-4.6308,-4.6308,-4.4736,-4.5039,-4.5155,-4.5039,-4.5548,-4.5703,-4.4987,-4.549,-4.5988,-4.6079,-4.6211,-4.6542,-4.7179,-4.5878,-4.5803,-4.7862,-4.5274,-4.3797,-4.4442,-4.3021,-4.1882,-4.123,-4.1191,-4.1191,-4.1191,-4.1191,-4.1191,-4.1191,-3.9551,-3.8691,-3.8574,-3.7012,-3.6641,-3.7305,-3.7305,-3.7832,-3.8789,-3.9355,-4.0625,0.0,-4.3301,-4.3301,0.0,-4.4512,-4.5156,-4.5254,-4.6016,-4.6308,-4.6289,0.0,-4.6152,-4.5996,0.0,-4.5371,-4.5683,-4.4023,0.0,0.0,0.0,0.0,0.0,0.0,-4.2832,0.0,0.0,0.0,-4.0644,-3.9199,0.0,0.0,0.0,0.0,0.0,0.0,0.0,0.0,0.0,0.0,0.0,0.0,0.0,0.0,0.0,0.0,0.0,-4.6172,-4.4862,-4.4665,-4.6223,-4.6296,-4.6308,-4.63,-4.63,-4.63,-4.63,-4.63,-4.5909,-4.5146,-4.5006,-4.5028,-4.5146,-4.5003,-4.544,-4.63,-4.63,-4.6302,-4.6303,-4.6297,-4.6302,-4.6303,-4.6308,-4.6308,-4.6308,-4.6308,-4.6308,-4.6308,-4.3576,-4.4246,-4.4439,-4.3924,-4.4117,-4.4407,-4.4574,-4.6148,-4.7134,-4.6619,-4.7087,-4.7778,-4.8627,-4.7315,-4.6975,-4.8476,-4.6437,-4.5028,-4.4905,-4.3269,-4.2407,-4.2637,-4.1719,-4.1426,-4.1894,-4.0937,-4.0449,-4.0449,-3.8691,-3.7851,-3.7812,-3.6582,-3.6738,-3.8047,-3.8047,-3.9082,-4.0801,-4.0703,-4.1328,0.0,0.0,0.0,0.0,-4.4902,-4.5742,-4.5801,-4.6172,-4.6308,-4.6211,0.0,-4.5879,0.0,0.0,0.0,0.0,-4.4824,0.0,0.0,0.0,0.0,0.0,0.0,0.0,0.0,-4.1582,0.0,-4.0234,0.0,0.0,0.0,0.0,0.0,0.0,0.0,0.0,0.0,0.0,0.0,0.0,0.0,0.0,0.0,0.0,0.0,0.0,0.0,0.0,-4.3708,-4.5442,-4.5554,-4.5782,-4.628,-4.63,-4.63,-4.63,-4.5792,-4.5363,-4.499,-4.4318,-4.4072,-4.4249,-4.4065,-4.429,-4.4816,-4.5324,-4.5558,-4.5579,-4.6083,-4.6301,-4.6302,-4.6308,-4.6308,-4.6308,-4.6308,-4.6308,-4.6308,-4.2376,-4.3131,-4.3363,-4.2725,-4.2802,-4.3324,-4.442,-4.6361,-4.7463,-4.6825,-4.734,-4.8269,-4.9621,-4.8554,-4.8234,-4.9488,-4.8097,-4.6703,-4.5601,-4.3921,-4.3187,-4.3623,-4.2069,-4.1562,-4.2361,-4.0976,-4.0137,-3.9902,-3.8398,-3.7656,-3.7637,-3.6523,-3.6934,-3.8613,-3.8848,-4.0117,-4.2051,-4.1933,-4.2363,-4.3105,-4.3105,-4.3262,-4.3652,-4.5312,-4.6094,-4.6308,-4.6308,-4.6308,-4.6191,-4.5566,-4.5781,0.0,-4.5566,0.0,0.0,0.0,0.0,0.0,-4.457,0.0,0.0,0.0,0.0,0.0,0.0,0.0,0.0,0.0,0.0,0.0,0.0,0.0,0.0,0.0,0.0,0.0,0.0,0.0,0.0,0.0,0.0,0.0,0.0,0.0,0.0,0.0,0.0,0.0,-4.4544,-4.4638,-4.4925,-4.5579,-4.5597,-4.5597,-4.5597,-4.4953,-4.4524,-4.4288,-4.3448,-4.3144,-4.3331,-4.3133,-4.3284,-4.3744,-4.4367,-4.4641,-4.4683,-4.5321,-4.5736,-4.5933,-4.5937,-4.6094,-4.6308,-4.6308,-4.6308,-4.6308,-4.0874,-4.0893,-4.0913,-4.0893,-4.1525,-4.2628,-4.4342,-4.5336,-4.5865,-4.5845,-4.5865,-4.6851,-4.9424,-4.8909,-4.9362,-5.1869,-5.0554,-4.8889,-4.7237,-4.5626,-4.4354,-4.3543,-4.2017,-4.1559,-4.2297,-4.1559,-4.0742,-3.9902,-3.9004,-3.8555,-3.8516,-3.6797,-3.6934,-3.8633,-3.9473,-4.0371,-4.1348,-4.2949,-4.4121,-4.4922,-4.4922,-4.543,-4.6094,0.0,-4.5566,-4.6308,-4.6308,0.0,0.0,-4.6269,-4.6289,0.0,0.0,0.0,0.0,0.0,0.0,0.0,0.0,0.0,0.0,-4.4121,0.0,0.0,0.0,0.0,-4.1855,0.0,0.0,0.0,0.0,0.0,-3.9238,-3.7578,0.0,0.0,0.0,0.0,0.0,0.0,0.0,0.0,0.0,0.0,0.0,0.0,0.0,0.0,-4.3607,-4.3742,-4.3758,-4.3783,-4.3783,-4.3783,-4.3783,-4.3764,-4.3313,-4.2472,-4.2245,-4.2252,-4.2432,-4.2221,-4.2707,-4.3705,-4.3725,-4.3748,-4.3734,-4.378,-4.4273,-4.5037,-4.5039,-4.5566,-4.6308,-4.6308,-4.6308,-4.6308,-4.0797,-4.0797,-4.0797,-4.0797,-4.1029,-4.1777,-4.3479,-4.5394,-4.7076,-4.8237,-4.8372,-4.9571,-5.2724,-5.1816,-5.1779,-5.3738,-5.2397,-5.0953,-4.9845,-4.7684,-4.6314,-4.6033,-4.3987,-4.2946,-4.3156,-4.1871,-4.0762,-3.9902,-3.9023,-3.8594,-3.8574,-3.7402,-3.7793,-3.9473,-3.9766,-4.0996,0.0,0.0,0.0,0.0,0.0,-4.5527,-4.6269,0.0,0.0,-4.6308,-4.6308,-4.6308,0.0,-4.6308,-4.6308,-4.6308,-4.6308,-4.6308,-4.6308,-4.6308,-4.6308,0.0,0.0,0.0,-4.5879,-4.4141,0.0,0.0,0.0,0.0,0.0,0.0,0.0,0.0,0.0,-3.9043,-3.8848,-3.8262,-3.793,-3.7129,0.0,0.0,0.0,0.0,0.0,0.0,0.0,0.0,0.0,0.0,0.0,0.0,0.0,-4.2844,-4.3093,-4.3686,-4.3705,-4.3705,-4.3705,-4.3138,-4.2689,-4.2394,-4.1618,-4.1322,-4.1468,-4.1318,-4.1482,-4.1944,-4.2561,-4.2846,-4.2889,-4.3466,-4.386,-4.4136,-4.414,-4.4316,-4.4726,-4.5879,-4.6308,-4.6308,-4.0855,-4.0797,-4.0797,-4.0797,-4.13,-4.2048,-4.315,-4.5722,-4.7966,-4.9088,-4.9765,0.0,-5.402,0.0,-5.3284,0.0,-5.3805,-5.2446,-5.0714,-4.9088,0.0,-4.7262,-4.5209,-4.4186,-4.4406,-4.2836,-4.1454,-4.0289,-3.9722,-3.9314,-3.9043,-3.7851,-3.8066,-3.9453,-3.9766,-4.0976,-4.2871,-4.3789,-4.4668,0.0,0.0,-4.5801,0.0,0.0,-4.6308,-4.6308,0.0,-4.6308,-4.6308,-4.6308,-4.6308,-4.6308,-4.6308,-4.6308,-4.6308,-4.6308,-4.6308,-4.6308,-4.6308,-4.6308,0.0,-4.4512,-4.373,0.0,-4.082,0.0,0.0,0.0,0.0,0.0,0.0,0.0,-3.9414,-3.9101,-3.832,-3.6934,0.0,0.0,0.0,0.0,0.0,0.0,0.0,0.0,-3.8281,-3.9785,0.0,0.0,0.0,0.0,-4.2196,-4.2768,-4.2788,-4.2788,-4.2788,-4.222,-4.1921,-4.1885,-4.1155,-4.0842,-4.0933,-4.0837,-4.0878,-4.1036,-4.1657,-4.1931,-4.1975,-4.2549,-4.2964,-4.324,-4.3242,-4.3437,-4.3867,-4.5312,-4.6035,-4.6308,-4.1009,-4.0893,-4.0913,-4.0913,-4.2241,-4.3305,0.0,0.0,-4.8372,0.0,-4.9997,-5.1699,-5.342,-5.3614,-5.3962,-5.4793,-5.4851,-5.344,-5.0113,-4.9905,0.0,0.0,-4.575,-4.5222,-4.5883,-4.4327,-4.2707,-4.106,-4.1021,-4.0649,-3.9922,-3.8222,-3.7871,-3.8691,-3.9531,0.0,-4.1426,-4.3887,-4.5469,-4.6308,-4.6308,-4.6289,-4.6289,-4.6289,0.0,-4.6308,-4.6308,-4.6308,-4.6308,-4.6308,-4.6308,-4.6308,-4.6308,-4.6308,-4.6308,-4.6308,-4.6308,-4.6308,-4.6308,-4.6308,-4.6094,-4.5215,0.0,0.0,0.0,0.0,-4.3242,0.0,0.0,0.0,0.0,0.0,0.0,-4.0117,-3.916,-3.7344,0.0,0.0,0.0,0.0,0.0,0.0,0.0,-3.7461,-3.707,-3.9512,-3.8203,0.0,0.0,0.0,0.0,-4.1109,-4.1051,-4.1051,-4.1109,-4.1108,-4.1066,-4.099,-4.087,-4.0801,-4.0801,-4.0801,-4.0874,-4.099,-4.1068,-4.1095,-4.1107,-4.1107,-4.1599,-4.2344,-4.2344,-4.2871,-4.373,-4.4609,-4.5488,-4.623,-4.1738,-4.2202,-4.2667,-4.2667,-4.3015,-4.3518,0.0,0.0,0.0,0.0,-5.1757,-5.3478,-5.518,-5.5354,-5.5451,-5.5664,-5.5702,0.0,0.0,0.0,0.0,-4.9115,-4.7509,-4.6437,-4.598,-4.4355,-4.2968,-4.1889,-4.1287,-4.0925,-4.0768,-3.9674,-3.9291,-3.957,0.0,-4.0723,-4.2187,-4.3476,-4.4881,-4.6234,-4.6234,-4.62,0.0,0.0,-4.6234,-4.6237,-4.6288,-4.6308,-4.6308,-4.6308,-4.6308,-4.6308,-4.6308,-4.6308,-4.6308,-4.6308,-4.6308,-4.6308,-4.6308,-4.6308,-4.6094,-4.5215,-4.4512,-4.3691,0.0,0.0,0.0,0.0,0.0,0.0,0.0,0.0,0.0,-4.0996,-3.9043,-3.6875,0.0,0.0,0.0,0.0,0.0,0.0,0.0,0.0,-3.6973,-3.6992,0.0,0.0,0.0,0.0,0.0,-4.1031,-4.0464,-4.0444,-4.109,-4.1057,-4.1028,-4.101,-4.0801,-4.0723,-4.0723,-4.0723,-4.077,-4.085,-4.0971,-4.1044,-4.1095,-4.1104,-4.1226,-4.1442,-4.1484,-4.2012,-4.2832,-4.3711,-4.459,-4.5332,-4.2144,-4.3285,-4.4272,-4.3924,0.0,0.0,-4.5684,-4.6825,0.0,-5.0627,-5.2414,0.0,-5.4793,-5.5567,-5.6012,-5.6012,-5.6012,0.0,-5.3072,0.0,0.0,-4.9784,-4.8826,-4.7936,-4.7068,-4.5742,0.0,-4.2727,-4.228,-4.1507,-4.0478,-3.9989,-3.9376,-3.8715,0.0,-4.0358,-4.1382,-4.3374,-4.4773,-4.5654,-4.6006,0.0,0.0,-4.6142,-4.6153,-4.616,-4.6238,-4.6287,-4.6308,-4.6308,-4.6308,-4.6308,-4.6308,-4.6308,-4.6308,-4.6308,-4.6308,-4.6308,-4.6308,-4.6308,-4.6172,-4.5683,-4.5195,-4.4609,-4.373,-4.3926,-4.4121,0.0,0.0,0.0,0.0,0.0,0.0,-4.0312,-3.8516,-3.6699,0.0,0.0,0.0,0.0,0.0,0.0,0.0,0.0,0.0,0.0,0.0,0.0,0.0,0.0,0.0,-3.9958,-3.9878,-4.0034,-4.0522,-4.0847,-4.0977,-4.0902,-4.0768,-4.0668,-4.0609,-4.0668,-4.0746,-4.0815,-4.094,-4.103,-4.1094,-4.1101,-4.1106,-4.111,-4.1172,-4.1484,-4.1933,-4.2422,-4.3613,-4.5,-4.2647,-4.4291,-4.5703,0.0,0.0,0.0,0.0,-4.8333,0.0,-5.1033,0.0,-5.3826,-5.3826,-5.5122,-5.6012,-5.6012,0.0,-5.4967,-5.2539,-5.3072,-5.2414,-4.9958,-4.9765,-4.9301,-4.8411,-4.7424,-4.5777,0.0,-4.3261,-4.2019,-3.9679,-3.9692,-3.8819,0.0,0.0,0.0,0.0,-4.358,-4.4942,-4.5106,-4.5816,-4.608,-4.6049,-4.608,-4.6084,-4.6095,-4.6158,-4.6237,-4.6289,-4.6308,-4.6308,-4.6308,-4.6308,-4.6308,-4.6308,-4.6308,-4.6308,-4.6308,-4.6308,-4.6308,-4.6308,-4.6308,-4.6308,-4.6094,-4.5332,-4.5176,-4.5176,-4.5176,-4.4551,0.0,0.0,0.0,0.0,0.0,0.0,0.0,0.0,0.0,0.0,0.0,0.0,0.0,0.0,0.0,0.0,0.0,0.0,0.0,0.0,0.0,0.0,0.0,-3.9268,0.0,-3.98,0.0,-4.0914,-4.0806,-4.0703,-4.0609,-4.0504,-4.0615,-4.0723,-4.0796,-4.0926,-4.1022,-4.1091,-4.1097,-4.1105,-4.1112,-4.1152,-4.1191,-4.1191,-4.1191,-4.2676,-4.4668,-4.4188,-4.5626,-4.6593,0.0,0.0,-4.8817,-5.0047,-5.0964,-5.1892,-5.2917,-5.4503,-5.5567,-5.5567,-5.5818,-5.6012,-5.6012,-5.6012,0.0,0.0,0.0,0.0,-5.0763,-5.0055,-4.9301,-4.8411,-4.6844,-4.5137,-4.3318,-4.2602,-4.133,-3.9617,-3.9617,-3.9105,0.0,0.0,0.0,-4.2941,-4.425,0.0,-4.5818,-4.5959,-4.5956,-4.5854,-4.5977,-4.6027,-4.6022,-4.6091,-4.6158,-4.6235,-4.6288,-4.6308,-4.6308,-4.6308,-4.6308,-4.6308,-4.6308,-4.6308,-4.6308,-4.6308,-4.6308,-4.6308,-4.6308,-4.6308,-4.6269,-4.6113,-4.6074,-4.6074,-4.6074,-4.5913,-4.5586,-4.5019,0.0,0.0,0.0,0.0,0.0,0.0,0.0,0.0,0.0,0.0,0.0,0.0,0.0,0.0,0.0,0.0,0.0,0.0,0.0,0.0,0.0,0.0,0.0,0.0,0.0,0.0,-4.0806,-4.063,-4.0519,-4.0496,-4.0527,-4.0602,-4.0717,-4.0791,-4.0906,-4.1017,-4.1085,-4.1105,-4.1092,-4.1112,-4.1152,-4.1191,-4.1191,-4.1894,-4.2851,-4.6421,-4.7163,-4.7731,-4.7811,0.0,0.0,0.0,-5.3343,0.0,-5.3556,-5.4194,-5.4697,-5.4697,-5.549,-5.6012,-5.6012,-5.6012,-5.5296,-5.3614,-5.3498,-5.2724,-5.0975,-5.0531,-4.9939,-4.9088,-4.7811,-4.6109,-4.3982,-4.3092,-4.1363,-3.8888,-3.9333,-3.886,-3.7683,0.0,-4.0801,0.0,0.0,0.0,-4.5364,-4.5735,-4.5867,-4.5814,-4.5861,-4.5905,-4.5904,-4.6018,-4.6064,-4.6109,-4.6167,-4.62,-4.62,-4.62,-4.62,-4.62,-4.62,-4.62,-4.62,-4.62,-4.62,-4.62,-4.62,-4.62,-4.62,-4.62,-4.62,-4.62,-4.62,-4.6165,-4.5738,-4.4412,-4.2811,0.0,0.0,0.0,0.0,0.0,0.0,0.0,0.0,0.0,0.0,0.0,0.0,0.0,0.0,0.0,0.0,0.0,0.0,0.0,0.0,0.0,0.0,0.0,0.0,0.0,-4.0743,-4.0588,-4.0496,-4.0496,-4.0496,-4.0559,-4.07,-4.0721,-4.0839,-4.1016,-4.1062,-4.1101,-4.1106,-4.1108,-4.1111,-4.1152,-4.1152,-4.1425,-4.1836,-4.8438,-4.8725,0.0,0.0,-5.1351,0.0,-5.3401,-5.4929,-5.5528,-5.4194,-5.402,-5.402,-5.402,-5.5219,-5.6012,-5.6012,-5.5838,-5.5103,-5.3594,-5.3323,-5.2531,-5.0975,-5.0898,-5.0511,-4.9726,-4.8856,-4.7231,0.0,-4.3808,-4.1738,-3.876,-3.9268,0.0,0.0,0.0,0.0,0.0,0.0,-4.4142,-4.4971,-4.5577,-4.5807,-4.5807,-4.5807,-4.5807,-4.5801,-4.5929,-4.5964,-4.5975,-4.6022,-4.6053,-4.6098,-4.6098,-4.6098,-4.6098,-4.6098,-4.6098,-4.6098,-4.6098,-4.6098,-4.6098,-4.6098,-4.6098,-4.6098,-4.6075,-4.6075,-4.6036,-4.5841,-4.5659,-4.5044,-4.3486,-4.2164,0.0,0.0,0.0,0.0,0.0,0.0,0.0,0.0,0.0,0.0,0.0,0.0,0.0,0.0,0.0,0.0,-3.4637,-3.4628,0.0,0.0,0.0,0.0,-3.8018,0.0,-3.9721,0.0,-4.0475,-4.0496,-4.0496,-4.0496,-4.0564,-4.0655,-4.0681,-4.081,-4.1016,-4.106,-4.1098,-4.1099,-4.1104,-4.1108,-4.1091,-4.1091,-4.1132,-4.1269,0.0,0.0,0.0,0.0,0.0,0.0,0.0,-5.4929,-5.5935,-5.5799,-5.578,-5.578,-5.578,-5.5915,-5.6012,-5.6012,-5.5335,-5.4503,-5.3556,-5.2763,-5.1892,-5.0937,-5.0898,-5.0511,-4.9726,-4.8856,-4.7502,0.0,0.0,-4.2357,-4.0545,-3.9829,0.0,0.0,0.0,0.0,0.0,-4.4111,-4.4969,-4.5705,-4.5768,-4.5807,-4.5807,-4.5807,-4.5807,-4.5807,-4.5801,-4.5827,-4.5827,-4.5822,-4.5938,-4.6098,-4.6098,-4.6098,-4.6098,-4.6098,-4.6098,-4.6098,-4.6098,-4.6098,-4.6098,-4.6098,-4.6098,-4.6075,-4.6018,-4.6014,-4.5784,-4.4989,-4.4202,-4.3355,-4.2413,-4.2107,-4.1778,0.0,0.0,0.0,0.0,0.0,-3.8725,-3.9376,0.0,0.0,0.0,0.0,0.0,0.0,0.0,0.0,0.0,-3.4547,0.0,-3.569,0.0,-3.6973,-3.7128,-3.8575,0.0,-3.9539,-4.0186,-4.0496,-4.0496,-4.0496,-4.0504,-4.0527,-4.0642,-4.081,-4.1016,-4.1074,-4.1094,-4.1099,-4.1099,-4.1103,-4.1108,-4.1108,-4.1108,-4.1128,0.0,0.0,0.0,0.0,0.0,0.0,0.0,-5.558,-5.5996,-5.6003,-5.6012,-5.6012,-5.6012,-5.6012,-5.6012,-5.6012,-5.5258,-5.4426,-5.3556,-5.2693,-5.1815,-5.0937,-5.0898,-5.0743,-5.0434,-4.9088,-4.7792,0.0,0.0,-4.3208,-4.1506,-4.1158,0.0,0.0,0.0,-4.3266,-4.4091,-4.4439,-4.5065,-4.5807,-4.5807,-4.5807,-4.5807,-4.5807,-4.5807,-4.5807,-4.5807,-4.5793,-4.5791,-4.5791,-4.5848,-4.5922,-4.5919,-4.5914,-4.5922,-4.5919,-4.5914,-4.5916,-4.5916,-4.5885,-4.5853,-4.5853,-4.5853,-4.5847,-4.5835,-4.5447,-4.5001,-4.4652,-4.3459,-4.2408,-4.2111,-4.1651,-4.1228,0.0,0.0,0.0,0.0,0.0,0.0,-3.8894,0.0,-3.6876,0.0,0.0,0.0,0.0,0.0,0.0,0.0,0.0,0.0,-3.4884,0.0,-3.6305,-3.681,-3.7429,-3.8274,-3.9333,-3.9641,-4.0035,-4.0496,-4.0496,-4.0496,-4.0504,-4.0636,-4.0754,-4.083,-4.099,-4.1033,-4.104,-4.1085,-4.1098,-4.1102,-4.1102,-4.1104,-4.1107,-5.361,0.0,-5.33,0.0,-5.4543,-5.4552,-5.5785,-5.598,-5.5961,-5.5959,-5.5968,-5.5977,-5.6003,-5.6012,-5.6012,-5.6012,-5.5026,-5.4155,-5.3536,-5.2434,-5.1544,-5.0937,-5.0898,0.0,-5.0898,-4.9513,-4.8353,-4.7482,-4.578,0.0,-4.2763,0.0,0.0,0.0,-4.3285,-4.402,-4.4613,-4.4852,-4.5271,-4.5805,-4.5805,-4.5778,-4.5771,-4.5771,-4.5778,-4.5805,-4.5805,-4.5798,-4.5803,-4.5788,-4.58,-4.5773,-4.5764,-4.5769,-4.5773,-4.5764,-4.5769,-4.5765,-4.5765,-4.575,-4.5708,-4.5708,-4.5708,-4.57,-4.5711,-4.5047,-4.4342,-4.384,-4.2555,-4.1528,-4.1588,-4.1112,-4.074,0.0,0.0,0.0,0.0,0.0,0.0,0.0,-3.7918,-3.7098,-3.6144,0.0,0.0,0.0,0.0,0.0,0.0,0.0,0.0,0.0,0.0,0.0,0.0,0.0,-3.77,-3.8911,-3.9419,-3.9958,-4.0496,-4.0496,-4.0496,-4.0504,-4.0636,-4.0694,-4.0712,-4.0861,-4.0954,-4.0997,-4.1059,-4.1083,-4.1097,-4.1097,-4.1099,-4.1103,-5.4323,-5.4535,-5.4853,-5.5721,-5.5876,-5.5876,-5.5895,-5.5895,-5.5895,-5.5895,-5.5895,-5.5943,-5.5995,-5.6012,-5.6012,-5.6012,-5.4484,-5.3517,-5.3498,-5.1892,-5.0917,0.0,0.0,-5.0898,-5.0898,-5.0113,-4.9262,-4.8372,0.0,0.0,-4.4555,0.0,-4.3285,-4.3324,-4.4188,-4.4594,-4.4652,-4.5452,-4.5786,-4.5807,-4.5807,-4.5765,-4.5708,-4.5708,-4.5731,-4.5807,-4.5807,-4.5791,-4.58,-4.5803,-4.5758,-4.5708,-4.5708,-4.5708,-4.5708,-4.5708,-4.5708,-4.5708,-4.5708,-4.5708,-4.5708,-4.5708,-4.5708,-4.5692,-4.569,-4.5027,-4.3928,-4.2264,-4.1241,-4.0614,-4.0614,-4.0614,-4.0623,-4.0688,0.0,0.0,0.0,0.0,0.0,-3.9493,-3.7269,-3.6037,-3.6816,0.0,0.0,0.0,0.0,0.0,0.0,0.0,0.0,-3.5468,-3.5509,0.0,-3.5519,-3.7161,-3.7988,-3.8046,-3.9688,-4.0496,-4.0496,-4.0496,-4.0496,-4.0504,-4.0636,-4.0694,-4.0706,-4.0766,-4.0882,-4.099,-4.0994,-4.103,-4.1109,-4.1109,-4.1109,-4.1109,-5.5273,-5.5372,-5.5509,-5.5778,-5.5836,-5.5846,-5.5895,-5.5856,-5.5846,-5.5895,-5.5895,-5.5914,-5.5923,-5.598,-5.5996,0.0,-5.4465,-5.3498,0.0,-5.1868,-5.0897,-5.0897,-5.0852,-5.0836,-5.0836,-5.0005,-4.9437,-4.9148,0.0,0.0,0.0,-4.5333,-4.4947,-4.4947,-4.5237,-4.5352,-4.5372,-4.563,-4.5739,-4.5723,-4.5723,-4.5715,-4.5708,-4.5708,-4.5715,-4.5723,-4.5723,-4.5735,-4.5719,-4.573,-4.569,-4.5637,-4.5637,-4.5654,-4.5706,-4.57,-4.5703,-4.5698,-4.5698,-4.5682,-4.5637,-4.5637,-4.5637,-4.5629,-4.564,-4.4534,-4.3187,-4.2063,-4.1135,-4.0542,-4.0583,-4.061,-4.0612,-4.063,0.0,0.0,0.0,0.0,0.0,0.0,-3.7299,-3.6339,0.0,-3.4745,0.0,0.0,0.0,0.0,0.0,0.0,0.0,0.0,-3.52,0.0,-3.6308,-3.6846,-3.7719,-3.8892,-3.9438,-3.9977,-4.0496,-4.0496,-4.0496,-4.0496,-4.0549,-4.0552,-4.0566,-4.0687,-4.0757,-4.08,-4.0848,-4.0871,-4.0894,-4.0894,-4.0948,-4.1022,-5.5703,-5.5735,-5.5756,-5.5756,-5.5756,-5.5766,-5.5816,-5.5796,-5.567,-5.5411,-5.5653,-5.5711,-5.5403,-5.5692,0.0,-5.5969,-5.4413,-5.3409,-5.3409,-5.1818,-5.0855,-5.0855,-5.081,-5.0801,-5.0801,0.0,0.0,-4.9491,-4.8373,-4.7524,-4.6984,-4.6105,-4.5708,-4.5708,-4.5708,-4.5708,-4.5708,-4.5708,-4.57,-4.5703,-4.5703,-4.5676,-4.566,-4.566,-4.5687,-4.5703,-4.5703,-4.5695,-4.5706,-4.5709,-4.5665,-4.5631,-4.5614,-4.5631,-4.5665,-4.5671,-4.5654,-4.5657,-4.5657,-4.5631,-4.5594,-4.5594,-4.5594,-4.5518,-4.519,-4.4297,-4.3316,-4.247,-4.1585,-4.0997,-4.1039,-4.0777,-4.0554,-4.0564,0.0,-4.0456,-4.0142,0.0,0.0,0.0,0.0,0.0,0.0,-3.5071,0.0,0.0,0.0,0.0,0.0,0.0,0.0,-3.468,-3.5218,0.0,-3.6692,-3.7019,-3.7892,-3.9304,-3.9611,-4.0015,-4.0496,-4.0496,-4.0496,-4.0496,-4.0496,-4.0496,-4.0504,-4.0581,-4.0649,-4.0706,-4.0743,-4.0776,-4.081,-4.081,-4.0846,-4.091,-5.5703,-5.5703,0.0,0.0,-5.5703,0.0,-5.5703,-5.5703,-5.5434,-5.4684,-5.5241,-5.5416,-5.4659,-5.5305,-5.5826,-5.5885,0.0,0.0,0.0,-5.1776,-5.085,-5.0793,-5.085,0.0,-5.0793,-5.0793,-5.0398,-4.9579,-4.7959,-4.7169,-4.7149,-4.627,-4.5873,-4.5873,-4.5873,-4.5835,-4.5796,-4.5827,-4.5811,-4.5693,-4.575,-4.5706,-4.5594,-4.5594,-4.564,-4.5693,-4.5693,-4.5679,-4.5692,-4.569,-4.5693,-4.5684,-4.5622,-4.5594,-4.5594,-4.5594,-4.5594,-4.5594,-4.5594,-4.5594,-4.5594,-4.5594,-4.5594,-4.5383,-4.4586,-4.4335,-4.4085,-4.3335,-4.2489,-4.1865,-4.1808,-4.1143,-4.0573,-4.0516,-4.0496,-4.0215,-3.9398,0.0,0.0,0.0,0.0,0.0,0.0,-3.5502,-3.547,0.0,0.0,0.0,0.0,0.0,-3.468,-3.5558,-3.5577,-3.6,-3.6865,-3.768,-3.8527,-3.94,-4.015,-4.0496,-4.0496,-4.0496,-4.0496,-4.0496,-4.0496,-4.0496,-4.0496,-4.0496,-4.0559,-4.0681,-4.0681,-4.0715,-4.0786,-4.0786,-4.0791,-4.0801,0.0,0.0,-5.5703,-5.5703,-5.5703,-5.5703,-5.5703,-5.5703,-5.5626,-5.5434,-5.5568,-5.5637,-5.5436,-5.559,-5.5735,-5.5745,-5.4246,-5.331,-5.331,-5.2308,-5.1413,-5.0758,-5.1318,-5.1357,-5.075,-5.0721,-5.0625,-5.0413,-4.9355,-4.8835,-4.8816,-4.795,-4.7526,-4.7526,-4.7526,-4.7199,-4.6651,-4.7276,-4.6786,-4.5689,-4.6354,-4.621,-4.5594,-4.5594,-4.5622,-4.5631,-4.5631,-4.5612,-4.562,-4.5612,-4.5631,-4.5622,-4.5614,-4.5594,-4.5594,-4.5594,-4.5594,-4.5594,-4.5594,-4.5594,-4.5594,-4.5594,-4.5594,-4.5556,-4.5344,-4.4778,-4.4239,-4.4066,-4.3355,-4.2585,-4.1923,-4.1643,-4.1277,-4.0612,-4.0496,-4.0227,-3.9407,-3.8734,0.0,0.0,-3.6181,-3.5739,-3.5514,-3.5494,-3.5225,0.0,0.0,0.0,0.0,0.0,-3.5565,-3.6385,-3.6423,-3.7161,-3.8661,-3.8892,-3.94,-4.0227,-4.0419,-4.0496,-4.0496,-4.0496,-4.0496,-4.0496,-4.0496,-4.0496,-4.0496,-4.0496,-4.0519,-4.0549,-4.0549,-4.0552,-4.0568,-4.0568,-4.0636,-4.0723,-5.5703,-5.5703,-5.5703,-5.5703,-5.5703,-5.5703,-5.5703,-5.5703,-5.5568,-5.5203,-5.5472,-5.5549,-5.5184,-5.5472,-5.5703,-5.5703,-5.4572,-5.3677,-5.3273,-5.2435,-5.1588,-5.075,-5.1126,-5.1144,-5.0712,-5.0712,-5.0712,-5.0712,-4.9817,-4.9394,-4.9375,-4.8509,-4.8105,-4.8105,-4.8105,-4.7855,-4.749,-4.7913,-4.7567,-4.6778,-4.7259,-4.7163,-4.674,-4.674,-4.674,-4.674,-4.674,-4.6509,-4.6182,-4.6182,-4.5932,-4.5594,-4.5594,-4.5594,-4.5594,-4.5594,-4.5594,-4.5594,-4.5594,-4.5594,-4.5594,-4.5594,-4.5594,-4.5594,-4.5594,-4.5229,-4.4893,-4.4893,-4.422,-4.3393,-4.2547,-4.2066,-4.1508,-4.065,-4.0189,-3.9669,-3.8815,-3.7969,0.0,-3.675,-3.6308,-3.6212,-3.6596,-3.6635,-3.6276,-3.5411,0.0,0.0,-3.4834,-3.5596,-3.625,-3.6692,-3.6692,-3.7546,-3.9284,-3.9669,-4.0073,-4.0496,-4.0496,-4.0496,-4.0496,-4.0496,-4.0496,-4.0496,-4.0496,-4.0496,-4.0496,-4.0496,-4.0496,-4.0496,-4.0496,-4.0496,-4.0496,-4.0496,-4.0549,-4.0602,-5.5703,-5.5703,-5.5703,-5.5703,-5.5703,-5.5703,-5.5703,-5.5703,-5.5453,-5.4761,-5.528,-5.5434,-5.4761,-5.528,-5.5703,-5.5703,-5.5068,-5.426,-5.326,-5.2635,-5.1875,-5.0914,-5.102,-5.102,-5.0875,-5.077,-5.0712,-5.0712,-4.9952,-4.9606,-4.9586,-4.8836,-4.849,-4.849,-4.849,-4.8413,-4.8298,-4.8432,-4.8336,-4.8105,-4.824,-4.8221,-4.8105,-4.8105,-4.8105,-4.8105,-4.8105,-4.7663,-4.7077,-4.7077,-4.6509,-4.5806,-4.5806,-4.571,-4.5594,-4.5594,-4.5594,-4.5594,-4.5594,-4.5594,-4.5594,-4.5594,-4.5594,-4.5594,-4.5594,-4.5594,-4.5594,-4.5594,-4.5017,-4.4239,-4.3431,-4.2585,-4.172,-4.0843,-3.9919,-3.8996,-3.8123,0.0,-3.6846,-3.6712,-3.6808,-3.7199,-3.793,-3.8007,-3.77,-3.6942,-3.6904,0.0,0.0,-3.6519,-3.6962,-3.7084,-3.7084,-3.7853,-3.9477,-4.0169,-4.0496,-4.0496,-4.0496,-4.0496,-4.0496,-4.0496,-4.0496,-4.0496,-4.0496,-4.0496,-4.0496,-4.0496,-4.0496,-4.0496,-4.0496,-4.0496,-4.0496,-4.0496,-4.0496,-4.0496,-5.5703,-5.5703,-5.5703,-5.5703,-5.5703,-5.5703,-5.5703,-5.5703,-5.5665,-5.553,-5.5607,-5.5645,-5.553,-5.5626,-5.5703,-5.5703,-5.5588,-5.4857,-5.3299,-5.376,-5.3376,-5.1769,-5.2414,-5.2472,-5.1731,-5.1048,-5.0712,-5.0712,-5.0558,-5.05,-5.05,-5.0366,-5.0308,-5.0308,-5.0308,-4.9894,-4.924,-4.9971,-4.9452,-4.8163,-4.8894,-4.8759,-4.8105,-4.8105,-4.8105,-4.8105,-4.8105,-4.8029,-4.7913,-4.7913,-4.7375,-4.6701,-4.6701,-4.6182,-4.5594,-4.5594,-4.5594,-4.5594,-4.5594,-4.5594,-4.5594,-4.5594,-4.5594,-4.5594,-4.5594,-4.5594,-4.5594,-4.5594,-4.5498,-4.5152,-4.4259,-4.3451,-4.2604,-4.1739,-4.0315,-3.8996,0.0,0.0,-3.7526,-3.6788,-3.7353,-3.7853,-3.7988,-3.8007,-3.795,-3.7815,-3.7796,-3.7738,-3.7623,-3.7738,-3.8142,-3.8873,-3.8892,-3.9361,-4.0304,-4.0439,-4.0496,-4.0496,-4.0496,-4.0496,-4.0496,-4.0496,-4.0496,-4.0496,-4.0496,-4.0496,-4.0496,-4.0496,-4.0496,-4.0496,-4.0496,-4.0496,-4.0496,-4.0496,-4.0496,-4.0496,-5.5703,-5.5703,-5.5703,-5.5703,-5.5703,-5.5703,-5.5703,-5.5703,-5.5703,-5.5703,-5.5703,-5.5703,-5.5703,-5.5703,-5.5703,-5.5703,-5.5703,-5.5184,-5.3972,-5.428,-5.3933,-5.2654,-5.2991,-5.2799,-5.1923,-5.1106,-5.0712,-5.0712,-5.0712,-5.0712,-5.0712,-5.0712,-5.0712,-5.0712,-5.0712,-5.0481,-5.0125,-5.0539,-5.025,-4.9529,-4.9933,-4.9856,-4.949,-4.949,-4.949,-4.949,-4.949,-4.9202,-4.8798,-4.8798,-4.7952,-4.6904,-4.6904,-4.6297,-4.5594,-4.5594,-4.5594,-4.5594,-4.5594,-4.5594,-4.5594,-4.5594,-4.5594,-4.5594,-4.5594,-4.5594,-4.5594,-4.5594,-4.5594,-4.5325,-4.4451,-4.3643,-4.2816,-4.1942,-4.0008,0.0,0.0,-3.7892,-3.7507,-3.8046,-3.845,-3.8873,-3.9296,-3.9361,-3.9161,-3.8719,-3.87,-3.8488,-3.8027,-3.845,-3.8873,-3.9284,-3.9727,-4.0131,-4.0496,-4.0496,-4.0496,-4.0496,-4.0496,-4.0496,-4.0496,-4.0496,-4.0496,-4.0496,-4.0496,-4.0496,-4.0496,-4.0496,-4.0496,-4.0496,-4.0496,-4.0496,-4.0496,-4.0496,-4.0496,-4.0496,-5.5703,-5.5703,-5.5703,-5.5703,-5.5703,-5.5703,-5.5703,-5.5703,-5.5703,-5.5703,-5.5703,-5.5703,-5.5703,-5.5703,-5.5703,-5.5703,-5.5703,-5.5434,-5.4818,-5.478,-5.4395,-5.3549,-5.3318,-5.2799,-5.1923,-5.1106,-5.0712,-5.0712,-5.0712,-5.0712,-5.0712,-5.0712,-5.0712,-5.0712,-5.0712,-5.0712,-5.0712,-5.0712,-5.0712,-5.0712,-5.0712,-5.0712,-5.0712,-5.0712,-5.0712,-5.0712,-5.0712,-5.0269,-4.9702,-4.9702,-4.8702,-4.7451,-4.724,-4.6721,-4.6095,-4.571,-4.5594,-4.5594,-4.5594,-4.5594,-4.5594,-4.5594,-4.5594,-4.5594,-4.5594,-4.5594,-4.5594,-4.5594,-4.5594,-4.5402,-4.472,-4.3932,-4.3104,-4.2239,0.0,0.0,0.0,-3.8142,-3.7796,-3.915,-3.9477,-3.9823,-4.0439,-4.0496,-4.0246,-3.9631,-3.9573,-3.9284,-3.8623,-3.9227,-3.9573,-3.9573,-4.0189,-4.0496,-4.0496,-4.0496,-4.0496,-4.0496,-4.0496,-4.0496,-4.0496,-4.0496,-4.0496,-4.0496,-4.0496,-4.0496,-4.0496,-4.0496,-4.0496,-4.0496,-4.0496,-4.0496,-4.0496,-4.0496,-4.0496,-4.0496,-5.5703,-5.5703,-5.5703,-5.5703,-5.5703,-5.5703,-5.5703,-5.5703,-5.5703,-5.5703,-5.5703,-5.5703,-5.5703,-5.5703,-5.5703,-5.5703,-5.5703,-5.5665,-5.5607,-5.5607,-5.5241,-5.4434,-5.3626,-5.2799,-5.1923,-5.1106,-5.0712,-5.0712,-5.0712,-5.0712,-5.0712,-5.0712,-5.0712,-5.0712,-5.0712,-5.0712,-5.0712,-5.0712,-5.0712,-5.0712,-5.0712,-5.0712,-5.0712,-5.0712,-5.0712,-5.0712,-5.0712,-5.0654,-5.0596,-5.0596,-4.999,-4.9067,-4.8279,-4.7971,-4.7605,-4.6056,-4.5594,-4.5594,-4.5594,-4.5594,-4.5594,-4.5594,-4.5594,-4.5594,-4.5594,-4.5594,-4.5594,-4.5594,-4.5594,-4.5575,-4.5518,-4.4797,-4.3951,-4.3143,0.0,0.0,-3.94,-3.9188,-3.9169,-3.9284,-3.9958,-4.0439,-4.0496,-4.0496,-4.0477,-4.0419,-4.0419,-4.0381,-4.0323,-4.0381,-4.0419,-4.0419,-4.0477,-4.0496,-4.0496,-4.0496,-4.0496,-4.0496,-4.0496,-4.0496,-4.0496,-4.0496,-4.0496,-4.0496,-4.0496,-4.0496,-4.0496,-4.0496,-4.0496,-4.0496,-4.0496,-4.0496,-4.0496,-4.0496,-4.0496,-4.0496,-5.5703,-5.5703,-5.5703,-5.5703,-5.5703,-5.5703,-5.5703,-5.5703,-5.5703,-5.5703,-5.5703,-5.5703,-5.5703,-5.5703,-5.5703,-5.5703,-5.5703,-5.5703,-5.5703,-5.5703,-5.5549,-5.5261,-5.4453,-5.3857,-5.353,-5.2145,-5.1433,-5.1433,-5.0933,-5.0712,-5.0712,-5.0712,-5.0712,-5.0712,-5.0712,-5.0712,-5.0712,-5.0712,-5.0712,-5.0712,-5.0712,-5.0712,-5.0712,-5.0712,-5.0712,-5.0712,-5.0712,-5.0712,-5.0712,-5.0712,-5.0106,-4.9336,-4.9009,-4.8548,-4.7875,-4.674,-4.6009,-4.5594,-4.5594,-4.5594,-4.5594,-4.5594,-4.5594,-4.5594,-4.5594,-4.5594,-4.5594,-4.5594,-4.5594,-4.5594,-4.5594,-4.4902,-4.4047,-4.3239,0.0,-4.04,-4.0092,-3.9611,-3.9496,-3.9977,-4.0304,-4.0496,-4.0496,-4.0496,-4.0496,-4.0496,-4.0496,-4.0496,-4.0496,-4.0496,-4.0496,-4.0496,-4.0496,-4.0496,-4.0496,-4.0496,-4.0496,-4.0496,-4.0496,-4.0496,-4.0496,-4.0496,-4.0496,-4.0496,-4.0496,-4.0496,-4.0496,-4.0496,-4.0496,-4.0496,-4.0496,-4.0496,-4.0496,-4.0496,-4.0496,-4.0496,-5.5703,-5.5703,-5.5703,-5.5703,-5.5703,-5.5703,-5.5703,-5.5703,-5.5703,-5.5703,-5.5703,-5.5703,-5.5703,-5.5703,-5.5703,-5.5703,-5.5703,-5.5703,-5.5703,-5.5703,-5.5703,-5.5703,-5.4934,-5.4491,-5.4491,-5.3068,-5.2173,-5.1904,-5.1356,-5.0952,-5.0712,-5.0712,-5.0712,-5.0712,-5.0712,-5.0712,-5.0712,-5.0712,-5.0712,-5.0712,-5.0712,-5.0712,-5.0712,-5.0712,-5.0712,-5.0712,-5.0712,-5.0712,-5.0712,-5.0712,-5.0308,-4.976,-4.949,-4.8798,-4.799,-4.7451,-4.6663,-4.5951,-4.5671,-4.5594,-4.5594,-4.5594,-4.5594,-4.5594,-4.5594,-4.5594,-4.5594,-4.5594,-4.5594,-4.5594,-4.5594,-4.5114,-4.4432,-4.3605,-4.2258,-4.1227,-4.095,-4.0208,-3.9881,-4.0439,-4.0496,-4.0496,-4.0496,-4.0496,-4.0496,-4.0496,-4.0496,-4.0496,-4.0496,-4.0496,-4.0496,-4.0496,-4.0496,-4.0496,-4.0496,-4.0496,-4.0496,-4.0496,-4.0496,-4.0496,-4.0496,-4.0496,-4.0496,-4.0496,-4.0496,-4.0496,-4.0496,-4.0496,-4.0496,-4.0496,-4.0496,-4.0496,-4.0496,-4.0496,-4.0496,-4.0496,-5.5703,-5.5703,-5.5703,-5.5703,-5.5703,-5.5703,-5.5703,-5.5703,-5.5703,-5.5703,-5.5703,-5.5703,-5.5703,-5.5703,-5.5703,-5.5703,-5.5703,-5.5703,-5.5703,-5.5703,-5.5703,-5.5703,-5.4934,-5.4511,-5.4511,-5.3664,-5.2799,-5.1923,-5.1904,-5.151,-5.0712,-5.0712,-5.0712,-5.0712,-5.0712,-5.0712,-5.0712,-5.0712,-5.0712,-5.0712,-5.0712,-5.0712,-5.0712,-5.0712,-5.0712,-5.0712,-5.0712,-5.0712,-5.0712,-5.0712,-5.0712,-5.0558,-4.9683,-4.8817,-4.8105,-4.8105,-4.7548,-4.6721,-4.5845,-4.5614,-4.5594,-4.5594,-4.5594,-4.5594,-4.5594,-4.5594,-4.5594,-4.5594,-4.5594,-4.5594,-4.5594,-4.5594,-4.5306,-4.4432,-4.3624,-4.2797,-4.1923,-4.1066,-4.0516,-4.0496,-4.0496,-4.0496,-4.0496,-4.0496,-4.0496,-4.0496,-4.0496,-4.0496,-4.0496,-4.0496,-4.0496,-4.0496,-4.0496,-4.0496,-4.0496,-4.0496,-4.0496,-4.0496,-4.0496,-4.0496,-4.0496,-4.0496,-4.0496,-4.0496,-4.0496,-4.0496,-4.0496,-4.0496,-4.0496,-4.0496,-4.0496,-4.0496,-4.0496,-4.0496,-4.0496,-4.0496,-5.5703,-5.5703,-5.5703,-5.5703,-5.5703,-5.5703,-5.5703,-5.5703,-5.5703,-5.5703,-5.5703,-5.5703,-5.5703,-5.5703,-5.5703,-5.5703,-5.5703,-5.5703,-5.5703,-5.5703,-5.5703,-5.5703,-5.5472,-5.5338,-5.5338,-5.453,-5.3972,-5.3722,-5.3106,-5.2375,-5.1548,-5.1548,-5.1241,-5.0712,-5.0712,-5.0712,-5.0712,-5.0712,-5.0712,-5.0712,-5.0712,-5.0712,-5.0712,-5.0712,-5.0712,-5.0712,-5.0712,-5.0712,-5.0712,-5.0712,-5.0712,-5.0654,-5.0385,-4.9702,-4.9009,-4.9009,-4.8009,-4.6827,-4.6586,-4.6067,-4.5594,-4.5594,-4.5594,-4.5594,-4.5594,-4.5594,-4.5594,-4.5594,-4.5594,-4.5594,-4.5594,-4.5594,-4.5306,-4.4432,-4.4105,-4.3431,-4.2,-4.1585,-4.1181,-4.0573,-4.0496,-4.0496,-4.0496,-4.0496,-4.0496,-4.0496,-4.0496,-4.0496,-4.0496,-4.0496,-4.0496,-4.0496,-4.0496,-4.0496,-4.0496,-4.0496,-4.0496,-4.0496,-4.0496,-4.0496,-4.0496,-4.0496,-4.0496,-4.0496,-4.0496,-4.0496,-4.0496,-4.0496,-4.0496,-4.0496,-4.0496,-4.0496,-4.0496,-4.0496,-4.0496,-4.0496,-5.5531,-5.5531,-5.5531,-5.5531,-5.5629,-5.5703,-5.5703,-5.5703,-5.5703,-5.5703,-5.5703,-5.5703,-5.5703,-5.5703,-5.5703,-5.5703,-5.5703,-5.5703,-5.5703,-5.5703,-5.5703,-5.5703,-5.5703,-5.5703,-5.5703,-5.5222,-5.4818,-5.4491,-5.3972,-5.328,-5.2404,-5.2058,-5.1635,-5.1164,-5.1164,-5.0991,-5.075,-5.1414,-5.1491,-5.1202,-5.1548,-5.1471,-5.1164,-5.1164,-5.0971,-5.0712,-5.0712,-5.0712,-5.0712,-5.0712,-5.0712,-5.0712,-5.0712,-5.0346,-4.9856,-4.949,-4.8682,-4.7817,-4.7471,-4.6759,-4.6105,-4.6105,-4.5864,-4.5594,-4.5594,-4.5594,-4.5594,-4.5594,-4.5594,-4.5594,-4.5594,-4.5594,-4.5441,-4.4893,-4.4509,-4.3951,-4.2931,-4.2508,-4.2124,-4.1585,-4.1219,-4.1008,-4.1008,-4.0708,-4.0496,-4.0496,-4.0496,-4.0496,-4.0496,-4.0496,-4.0496,-4.0496,-4.0496,-4.0496,-4.0496,-4.0496,-4.0496,-4.0496,-4.0496,-4.0496,-4.0496,-4.0496,-4.0496,-4.0496,-4.0496,-4.0496,-4.0496,-4.0496,-4.0496,-4.0496,-4.0496,-4.0496,-4.0496,-4.0496,-4.0496,-4.0496,-5.5262,-5.5262,-5.5262,-5.5262,-5.5461,-5.5629,-5.5651,-5.5662,-5.5662,-5.5703,-5.5703,-5.5703,-5.5703,-5.5703,-5.5703,-5.5703,-5.5703,-5.5703,-5.5703,-5.5703,-5.5703,-5.5703,-5.5703,-5.5703,-5.5703,-5.5703,-5.5338,-5.4607,-5.4607,-5.4164,-5.3299,-5.25,-5.2096,-5.2019,-5.2019,-5.1606,-5.102,-5.2549,-5.2731,-5.2096,-5.2876,-5.2712,-5.2019,-5.2019,-5.151,-5.0808,-5.0808,-5.077,-5.0712,-5.0712,-5.0712,-5.0712,-5.0712,-5.0712,-5.0539,-4.974,-4.9452,-4.9221,-4.8432,-4.7625,-4.6981,-4.6923,-4.6288,-4.5664,-4.5605,-4.5594,-4.5594,-4.5594,-4.5594,-4.5594,-4.5594,-4.5594,-4.5594,-4.5594,-4.4932,-4.4393,-4.4316,-4.3662,-4.3181,-4.3104,-4.2412,-4.1923,-4.1923,-4.1123,-4.0573,-4.0516,-4.0496,-4.0489,-4.0473,-4.0489,-4.0481,-4.043,-4.0481,-4.0489,-4.0473,-4.0489,-4.0496,-4.0496,-4.0496,-4.0496,-4.0496,-4.0496,-4.0496,-4.0496,-4.0496,-4.0496,-4.0496,-4.0496,-4.0496,-4.0496,-4.0496,-4.0496,-4.0496,-4.0496,-4.0496,-4.0496,-5.4909,-5.4909,-5.4909,-5.4909,-5.4952,-5.5078,-5.5351,-5.5389,-5.5461,-5.5662,-5.5703,-5.5703,-5.5703,-5.5703,-5.5703,-5.5703,-5.5703,-5.5703,-5.5703,-5.5703,-5.5703,-5.5703,-5.5703,-5.5703,-5.5703,-5.5703,-5.5607,-5.5434,-5.5434,-5.5011,-5.4203,-5.403,-5.3568,-5.2933,-5.2933,-5.2818,-5.2683,-5.3049,-5.3087,-5.2933,-5.3126,-5.3087,-5.2933,-5.2933,-5.2395,-5.1635,-5.1635,-5.1221,-5.0712,-5.0712,-5.0712,-5.0712,-5.0712,-5.0712,-5.0654,-5.0481,-4.9933,-4.9356,-4.9163,-4.849,-4.7702,-4.7058,-4.6609,-4.6185,-4.5713,-4.5594,-4.5594,-4.5594,-4.5594,-4.5594,-4.5594,-4.5594,-4.5594,-4.5594,-4.5441,-4.5075,-4.4393,-4.4143,-4.3816,-4.3162,-4.2931,-4.2816,-4.2816,-4.2027,-4.1239,-4.0554,-4.0496,-4.0441,-4.0278,-4.0406,-4.0328,-3.9964,-4.0311,-4.0414,-4.0269,-4.0433,-4.0496,-4.0496,-4.0496,-4.0496,-4.0496,-4.0496,-4.0496,-4.0496,-4.0496,-4.0496,-4.0496,-4.0496,-4.0496,-4.0496,-4.0496,-4.0496,-4.0496,-4.0496,-4.0496,-4.0496,-5.456,-5.456,-5.456,-5.456,-5.47,-5.4851,-5.5023,-5.5069,-5.5105,-5.525,-5.5263,-5.5263,-5.5263,-5.5263,-5.5263,-5.5263,-5.5263,-5.5345,-5.5497,-5.5516,-5.5573,-5.5684,-5.5703,-5.5703,-5.5703,-5.5703,-5.5703,-5.5703,-5.5703,-5.5472,-5.5049,-5.4684,-5.4169,-5.3568,-5.3568,-5.3357,-5.3012,-5.3836,-5.4038,-5.3857,-5.4241,-5.4164,-5.3818,-5.3818,-5.3029,-5.1904,-5.1904,-5.1375,-5.0712,-5.0712,-5.0712,-5.0712,-5.0712,-5.0712,-5.0673,-5.0504,-5.0146,-4.975,-4.9621,-4.8957,-4.82,-4.778,-4.6965,-4.6104,-4.5534,-4.541,-4.541,-4.541,-4.541,-4.541,-4.541,-4.541,-4.5381,-4.5232,-4.5429,-4.5405,-4.4806,-4.4841,-4.4759,-4.4335,-4.3932,-4.3528,-4.3143,-4.2701,-4.2066,-4.1181,-4.1123,-4.0858,-4.0233,-4.0304,-4.0185,-3.9819,-4.0043,-4.0129,-4.0022,-4.011,-4.0176,-4.0157,-4.0397,-4.0496,-4.0496,-4.0496,-4.0496,-4.0496,-4.0496,-4.0496,-4.0496,-4.0496,-4.0496,-4.0496,-4.0496,-4.0496,-4.0496,-4.0496,-4.0496,-4.0496,-5.4212,-5.4212,-5.4212,-5.4212,-5.4446,-5.4654,-5.47,-5.4716,-5.4731,-5.4791,-5.4791,-5.4791,-5.4791,-5.4791,-5.4791,-5.4791,-5.4791,-5.4909,-5.5191,-5.5204,-5.5307,-5.5543,-5.5543,-5.5543,-5.5543,-5.5543,-5.5607,-5.5703,-5.5703,-5.5703,-5.5684,-5.4979,-5.448,-5.4218,-5.4167,-5.3741,-5.3156,-5.46,-5.4994,-5.4688,-5.536,-5.5267,-5.4703,-5.4703,-5.3722,-5.2308,-5.2173,-5.151,-5.0712,-5.0712,-5.0712,-5.0712,-5.0712,-5.0712,-5.0624,-5.0294,-5.0195,-5.0147,-4.9865,-4.9259,-4.8678,-4.8545,-4.7312,-4.5994,-4.5388,-4.5211,-4.5129,-4.5129,-4.5129,-4.5129,-4.5129,-4.5129,-4.5063,-4.4843,-4.518,-4.539,-4.515,-4.5322,-4.5457,-4.5457,-4.4833,-4.4066,-4.3251,-4.3209,-4.2881,-4.2008,-4.1868,-4.1396,-4.0463,-4.0262,-4.0052,-3.9754,-3.9786,-3.9786,-3.9742,-3.9786,-3.9808,-3.9808,-4.0184,-4.0406,-4.0457,-4.0481,-4.0496,-4.0496,-4.0496,-4.0496,-4.0496,-4.0496,-4.0496,-4.0496,-4.0496,-4.0496,-4.0496,-4.0496,-4.0496,-4.0496,-5.387,-5.387,-5.387,-5.387,-5.3907,-5.4035,-5.4313,-5.4364,-5.4463,-5.4761,-5.4791,-5.4791,-5.4791,-5.4791,-5.4791,-5.4791,-5.4791,-5.4821,-5.4866,-5.4866,-5.488,-5.4924,-5.4924,-5.4924,-5.4924,-5.4924,-5.5185,-5.5703,-5.5703,-5.5703,-5.5684,-5.5346,-5.5173,-5.5116,-5.4809,-5.4638,-5.4528,-5.4771,-5.4993,-5.5198,-5.5313,-5.5427,-5.553,-5.553,-5.4953,-5.4049,-5.3299,-5.201,-5.0712,-5.0712,-5.0712,-5.0712,-5.0712,-5.0712,-5.0624,-5.0294,-5.0195,-5.0147,-4.9865,-4.9709,-4.9443,-4.8678,-4.7631,-4.6558,-4.5721,-4.5186,-4.4849,-4.4849,-4.4849,-4.4849,-4.4849,-4.4849,-4.4837,-4.4819,-4.4849,-4.4903,-4.4849,-4.4891,-4.4915,-4.4915,-4.4801,-4.4391,-4.3525,-4.3666,-4.3454,-4.2642,-4.208,-4.1637,-4.1256,-4.0587,-4.0011,-3.9556,-3.9717,-3.9728,-3.9544,-3.9717,-3.9808,-3.9808,-3.9861,-4.0013,-4.0251,-4.0425,-4.0496,-4.0496,-4.0496,-4.0496,-4.0496,-4.0496,-4.0496,-4.0496,-4.0496,-4.0496,-4.0496,-4.0496,-4.0496,-4.0496,-5.3813,-5.3813,-5.3813,-5.3813,-5.3813,-5.3851,-5.4,-5.4017,-5.4072,-5.4212,-5.4246,-5.4246,-5.4246,-5.4246,-5.4246,-5.4246,-5.4246,-5.4313,-5.4511,-5.4528,-5.4607,-5.4791,-5.4791,-5.4791,-5.4791,-5.4791,-5.4938,-5.5198,-5.5198,-5.5275,-5.5461,-5.5145,-5.4924,-5.4727,-5.4591,-5.4528,-5.4528,-5.4528,-5.4716,-5.5009,-5.5009,-5.5091,-5.5198,-5.5198,-5.4409,-5.3092,-5.1775,-5.0839,-5.0209,-5.0209,-5.0302,-5.0421,-5.0421,-5.0554,-5.0604,-5.0111,-4.9987,-4.9878,-4.9416,-4.9296,-4.9202,-4.8812,-4.8044,-4.713,-4.629,-4.5574,-4.497,-4.4659,-4.4572,-4.4572,-4.4572,-4.4572,-4.4519,-4.4374,-4.4599,-4.4739,-4.4599,-4.4701,-4.4788,-4.4788,-4.4788,-4.4655,-4.4264,-4.4334,-4.4049,-4.3201,-4.29,-4.224,-4.1071,-4.0681,-4.0104,-3.9285,-3.9364,-3.9364,-3.9272,-3.9364,-3.9408,-3.9408,-3.9555,-3.975,-3.9973,-4.0072,-4.0194,-4.033,-4.033,-4.0408,-4.0496,-4.0496,-4.0496,-4.0496,-4.0496,-4.0496,-4.0496,-4.0496,-4.0496,-4.0496]},{"header":{"parameterUnit":"m.s-1","parameterCategory":1,"la1":30.6,"la2":28.766,"lo1":-90.7593,"lo2":-88.6598,"dy":0.0162,"dx":0.0183,"nx":116,"ny":114,"refTime":"2024-05-17T06:00:00:Z","depth":0,"parameterNumber":3,"parameterNumberName":"V-component_of_WINDS"},"data":[0.0,0.0,0.0,0.0,0.0,0.0,0.0,0.0,0.0,0.0,0.0,0.0,0.0,0.0,0.0,0.0,0.0,0.0,0.0,0.0,0.0,0.0,0.0,0.0,0.0,0.0,0.0,0.0,0.0,0.0,0.0,0.0,0.0,0.0,0.0,0.0,0.0,0.0,0.0,0.0,0.0,0.0,0.0,0.0,0.0,0.0,0.0,0.0,0.0,0.0,0.0,0.0,0.0,0.0,0.0,0.0,0.0,0.0,0.0,0.0,0.0,0.0,0.0,0.0,0.0,0.0,0.0,0.0,0.0,0.0,0.0,0.0,0.0,0.0,0.0,0.0,0.0,0.0,0.0,0.0,0.0,0.0,0.0,0.0,0.0,0.0,0.0,0.0,0.0,0.0,0.0,0.0,0.0,0.0,0.0,0.0,0.0,0.0,0.0,0.0,0.0,0.0,0.0,0.0,0.0,0.0,0.0,0.0,0.0,0.0,0.0,0.0,0.0,0.0,0.0,0.0,0.0,0.0,0.0,0.0,0.0,0.0,0.0,0.0,0.0,0.0,0.0,0.0,0.0,0.0,0.0,0.0,0.0,0.0,0.0,0.0,0.0,0.0,0.0,0.0,0.0,0.0,0.0,0.0,0.0,0.0,0.0,0.0,0.0,0.0,0.0,0.0,0.0,0.0,0.0,0.0,0.0,0.0,0.0,0.0,0.0,0.0,0.0,0.0,0.0,0.0,0.0,0.0,0.0,0.0,0.0,0.0,0.0,0.0,0.0,0.0,0.0,0.0,0.0,0.0,0.0,0.0,0.0,0.0,0.0,0.0,0.0,0.0,0.0,0.0,0.0,0.0,0.0,0.0,0.0,0.0,0.0,0.0,0.0,0.0,0.0,0.0,0.0,0.0,0.0,0.0,0.0,0.0,0.0,0.0,0.0,0.0,0.0,0.0,0.0,0.0,0.0,0.0,0.0,0.0,0.0,0.0,0.0,0.0,0.0,0.0,0.0,0.0,0.0,0.0,0.0,0.0,0.0,0.0,0.0,0.0,0.0,0.0,0.0,0.0,0.0,0.0,0.0,0.0,0.0,0.0,0.0,0.0,0.0,0.0,0.0,0.0,0.0,0.0,0.0,0.0,0.0,0.0,0.0,0.0,0.0,0.0,0.0,0.0,0.0,0.0,0.0,0.0,0.0,0.0,0.0,0.0,0.0,0.0,0.0,0.0,0.0,0.0,0.0,0.0,0.0,0.0,0.0,0.0,0.0,0.0,0.0,0.0,0.0,0.0,0.0,0.0,0.0,0.0,0.0,0.0,0.0,0.0,0.0,0.0,0.0,0.0,0.0,0.0,0.0,0.0,0.0,0.0,0.0,0.0,0.0,0.0,0.0,0.0,0.0,0.0,0.0,0.0,0.0,0.0,0.0,0.0,0.0,0.0,0.0,0.0,0.0,0.0,0.0,0.0,0.0,0.0,0.0,0.0,0.0,0.0,0.0,0.0,0.0,0.0,0.0,0.0,0.0,0.0,0.0,0.0,0.0,0.0,0.0,0.0,0.0,0.0,0.0,0.0,0.0,0.0,0.0,0.0,0.0,0.0,0.0,0.0,0.0,0.0,0.0,0.0,0.0,0.0,0.0,0.0,0.0,0.0,0.0,0.0,0.0,0.0,0.0,0.0,0.0,0.0,0.0,0.0,0.0,0.0,0.0,0.0,0.0,0.0,0.0,0.0,0.0,0.0,0.0,0.0,0.0,0.0,0.0,0.0,0.0,0.0,0.0,0.0,0.0,0.0,0.0,0.0,0.0,0.0,0.0,0.0,0.0,0.0,0.0,0.0,0.0,0.0,0.0,0.0,0.0,0.0,0.0,0.0,0.0,0.0,0.0,0.0,0.0,0.0,0.0,0.0,0.0,0.0,0.0,0.0,0.0,0.0,0.0,0.0,0.0,0.0,0.0,0.0,0.0,0.0,0.0,0.0,0.0,0.0,0.0,0.0,0.0,0.0,0.0,0.0,0.0,0.0,0.0,0.0,0.0,0.0,0.0,0.0,0.0,0.0,0.0,0.0,0.0,0.0,0.0,0.0,0.0,0.0,0.0,0.0,0.0,0.0,0.0,0.0,0.0,0.0,0.0,0.0,0.0,0.0,0.0,0.0,0.0,0.0,0.0,0.0,0.0,0.0,0.0,0.0,0.0,0.0,0.0,0.0,0.0,0.0,0.0,0.0,0.0,0.0,0.0,0.0,0.0,0.0,0.0,0.0,0.0,0.0,0.0,0.0,0.0,0.0,0.0,0.0,0.0,0.0,0.0,0.0,0.0,0.0,0.0,0.0,0.0,0.0,0.0,0.0,0.0,0.0,0.0,0.0,0.0,0.0,0.0,0.0,0.0,0.0,0.0,0.0,0.0,0.0,0.0,0.0,0.0,0.0,0.0,0.0,0.0,0.0,0.0,0.0,0.0,0.0,0.0,0.0,0.0,0.0,0.0,0.0,0.0,0.0,0.0,0.0,0.0,0.0,0.0,0.0,0.0,0.0,0.0,0.0,0.0,0.0,0.0,0.0,0.0,0.0,0.0,0.0,0.0,0.0,0.0,0.0,0.0,0.0,0.0,0.0,0.0,0.0,0.0,0.0,0.0,0.0,0.0,0.0,0.0,0.0,0.0,0.0,0.0,0.0,0.0,0.0,0.0,0.0,0.0,0.0,0.0,0.0,0.0,0.0,0.0,0.0,0.0,0.0,0.0,0.0,0.0,0.0,0.0,0.0,0.0,0.0,0.0,0.0,0.0,0.0,0.0,0.0,0.0,0.0,0.0,0.0,0.0,0.0,0.0,0.0,0.0,0.0,0.0,0.0,0.0,0.0,0.0,0.0,0.0,0.0,0.0,0.0,0.0,0.0,0.0,0.0,0.0,0.0,0.0,0.0,0.0,0.0,0.0,0.0,0.0,0.0,0.0,0.0,0.0,0.0,0.0,0.0,0.0,0.0,0.0,0.0,0.0,0.0,0.0,0.0,0.0,0.0,0.0,0.0,0.0,0.0,0.0,0.0,0.0,0.0,0.0,0.0,0.0,0.0,0.0,0.0,0.0,0.0,0.0,0.0,0.0,0.0,0.0,0.0,0.0,0.0,0.0,0.0,0.0,0.0,0.0,0.0,0.0,0.0,0.0,0.0,0.0,0.0,0.0,0.0,0.0,0.0,0.0,0.0,0.0,0.0,0.0,0.0,0.0,0.0,0.0,0.0,0.0,0.0,0.0,0.0,0.0,0.0,0.0,0.0,0.0,0.0,0.0,0.0,0.0,0.0,0.0,0.0,0.0,0.0,0.0,0.0,0.0,0.0,0.0,0.0,0.0,0.0,0.0,0.0,0.0,0.0,0.0,0.0,0.0,0.0,0.0,0.0,0.0,0.0,0.0,0.0,0.0,0.0,0.0,0.0,0.0,0.0,0.0,0.0,0.0,0.0,0.0,0.0,0.0,0.0,0.0,0.0,0.0,0.0,0.0,0.0,0.0,0.0,0.0,0.0,0.0,0.0,0.0,0.0,0.0,0.0,0.0,0.0,0.0,0.0,0.0,0.0,0.0,0.0,0.0,0.0,0.0,0.0,0.0,0.0,0.0,0.0,0.0,0.0,0.0,0.0,0.0,0.0,0.0,0.0,0.0,0.0,0.0,0.0,0.0,0.0,0.0,0.0,0.0,0.0,0.0,0.0,0.0,0.0,0.0,0.0,0.0,0.0,0.0,0.0,0.0,0.0,0.0,0.0,0.0,0.0,0.0,0.0,0.0,0.0,0.0,0.0,0.0,0.0,0.0,0.0,0.0,0.0,0.0,0.0,0.0,0.0,0.0,0.0,0.0,0.0,0.0,0.0,0.0,0.0,0.0,0.0,0.0,0.0,0.0,0.0,0.0,0.0,0.0,0.0,0.0,0.0,0.0,0.0,0.0,0.0,0.0,0.0,0.0,0.0,0.0,0.0,0.0,0.0,0.0,0.0,0.0,0.0,0.0,0.0,0.0,0.0,0.0,0.0,0.0,0.0,0.0,0.0,0.0,0.0,0.0,0.0,0.0,0.0,0.0,0.0,0.0,0.0,0.0,0.0,0.0,0.0,0.0,0.0,0.0,0.0,0.0,0.0,0.0,0.0,0.0,0.0,0.0,0.0,0.0,0.0,0.0,0.0,0.0,0.0,0.0,0.0,0.0,0.0,0.0,0.0,0.0,0.0,0.0,0.0,0.0,0.0,0.0,0.0,0.0,0.0,0.0,0.0,0.0,0.0,0.0,0.0,0.0,0.0,0.0,0.0,0.0,0.0,0.0,0.0,0.0,0.0,0.0,0.0,0.0,0.0,0.0,0.0,0.0,0.0,0.0,0.0,0.0,0.0,0.0,0.0,0.0,0.0,0.0,0.0,0.0,0.0,0.0,0.0,0.0,0.0,0.0,0.0,0.0,0.0,0.0,0.0,0.0,0.0,0.0,0.0,0.0,0.0,0.0,0.0,0.0,0.0,0.0,0.0,0.0,0.0,0.0,0.0,0.0,0.0,0.0,0.0,0.0,0.0,0.0,0.0,0.0,0.0,0.0,0.0,0.0,0.0,0.0,0.0,0.0,0.0,0.0,0.0,0.0,0.0,0.0,0.0,0.0,0.0,0.0,0.0,0.0,0.0,0.0,0.0,0.0,0.0,0.0,0.0,0.0,0.0,0.0,0.0,0.0,0.0,0.0,0.0,0.0,0.0,0.0,0.0,0.0,0.0,0.0,0.0,0.0,0.0,0.0,0.0,0.0,0.0,0.0,0.0,0.0,0.0,0.0,0.0,0.0,0.0,0.0,0.0,0.0,0.0,0.0,0.0,0.0,0.0,0.0,0.0,0.0,0.0,0.0,0.0,0.0,0.0,0.0,0.0,0.0,0.0,0.0,0.0,0.0,0.0,0.0,0.0,0.0,0.0,0.0,0.0,0.0,0.0,0.0,0.0,0.0,0.0,0.0,0.0,0.0,0.0,0.0,0.0,0.0,0.0,0.0,0.0,0.0,0.0,0.0,0.0,0.0,0.0,0.0,0.0,0.0,0.0,0.0,0.0,0.0,0.0,0.0,0.0,0.0,0.0,0.0,0.0,0.0,0.0,0.0,0.0,0.0,0.0,0.0,0.0,0.0,0.0,0.0,0.0,0.0,0.0,0.0,0.0,0.0,0.0,0.0,0.0,0.0,0.0,0.0,0.0,0.0,0.0,0.0,0.0,0.0,0.0,0.0,0.0,0.0,0.0,0.0,0.0,0.0,0.0,0.0,0.0,0.0,0.0,0.0,0.0,0.0,0.0,0.0,0.0,0.0,0.0,0.0,0.0,0.0,0.0,0.0,0.0,0.0,0.0,0.0,0.0,0.0,0.0,0.0,0.0,0.0,0.0,0.0,0.0,0.0,0.0,0.0,0.0,0.0,0.0,0.0,0.0,0.0,0.0,0.0,0.0,0.0,0.0,0.0,0.0,0.0,0.0,0.0,0.0,0.0,0.0,0.0,0.0,0.0,0.0,0.0,0.0,0.0,0.0,0.0,0.0,0.0,0.0,0.0,0.0,0.0,0.0,0.0,0.0,0.0,0.0,0.0,0.0,0.0,0.0,0.0,0.0,0.0,0.0,0.0,0.0,0.0,0.0,0.0,0.0,0.0,0.0,0.0,0.0,0.0,0.0,0.0,0.0,0.0,0.0,0.0,0.0,0.0,0.0,0.0,0.0,0.0,0.0,0.0,0.0,0.0,0.0,0.0,0.0,0.0,0.0,0.0,0.0,0.0,0.0,0.0,0.0,0.0,0.0,0.0,0.0,0.0,0.0,0.0,0.0,0.0,0.0,0.0,0.0,0.0,0.0,0.0,0.0,0.0,0.0,0.0,0.0,0.0,0.0,0.0,0.0,0.0,0.0,0.0,0.0,0.0,0.0,0.0,0.0,0.0,0.0,0.0,0.0,0.0,0.0,0.0,0.0,0.0,0.0,0.0,0.0,0.0,0.0,0.0,0.0,0.0,0.0,0.0,0.0,0.0,0.0,0.0,0.0,0.0,0.0,0.0,0.0,0.0,0.0,0.0,0.0,0.0,0.0,0.0,0.0,-0.005,0.0,0.0,0.0,0.0,0.0,0.0,0.0,0.0,0.0,0.0,0.0,0.0,0.0,0.0,0.0,0.0,0.0,0.0,0.0,0.0,0.0,0.0,0.0,0.0,-0.6658,-0.6306,-0.5393,-0.4262,-0.3053,-0.1685,0.0,0.0,0.0,0.0,0.0,0.0,0.0,0.0,0.0,0.0,0.0,0.0,0.0,0.0,0.0,0.0,0.0,0.0,0.0,0.0,0.0,0.0,0.0,0.0,0.0,0.0,0.0,0.0,0.0,0.0,0.0,0.0,0.0,0.0,0.0,0.0,0.0,0.0,0.0,0.0,0.0,0.0,0.0,0.0,0.0,0.0,0.0,0.0,0.0,0.0,0.0,0.0,0.0,0.0,0.0,0.0,0.0,0.0,0.0,0.0,0.0,0.0,0.0,0.0,0.0,0.0,0.0,0.0,0.0,0.0,0.0,0.0,0.0,0.0,0.0,0.0,0.0,0.0,0.0,0.0,0.0,0.0,0.0,0.0,0.0,0.0,-0.0103,0.0,0.0,0.0,0.0,0.0,0.0,0.0,0.0,0.0,0.0,0.0,0.0,0.0,0.0,0.0,0.0,0.0,0.0,0.0,0.0,0.0,-0.6013,-0.6504,-0.6654,-0.643,-0.5629,-0.435,-0.3106,-0.1959,-0.0707,0.0,0.0,0.0,0.0,0.0,0.0,0.0,0.0,0.0,0.0,0.0,0.0,0.0,0.0,0.0,0.0,0.0,0.0,0.0,0.0,0.0,0.0,0.0,0.0,0.0,0.0,0.0,0.0,0.0,0.0,0.0,0.0,0.0,0.0,0.0,0.0,0.0,0.0,0.0,0.0,0.0,0.0,0.0,0.0,0.0,0.0,0.0,0.0,0.0,0.0,0.0,0.0,0.0,0.0,0.0,0.0,0.0,0.0,0.0,0.0,0.0,0.0,0.0,0.0,0.0,0.0,0.0,0.0,0.0,0.0,0.0,0.0,0.0,0.0,0.0,0.0,0.0,0.0,0.0,0.0,0.0,0.0,0.0,0.0,0.0,0.0,0.0,0.0,0.0,0.0,0.0,0.0,0.0,0.0,0.0,0.0,0.0,0.0,0.0,0.0,0.0,0.0,0.0,0.0,0.0,0.0,0.0,-0.6169,-0.662,-0.6867,-0.6956,-0.6926,-0.487,-0.3412,-0.3027,-0.1121,0.0,0.0,0.0,0.0,0.0,0.0,0.0,0.0,0.0,0.0,0.0,0.0,0.0,0.0,0.0,-0.0127,-0.0331,0.0,0.0,0.0,0.0,0.0,0.0,0.0,0.0,0.0,0.0,0.0,0.0,0.0,0.0,0.0,0.0,0.0,0.0,0.0,0.0,0.0,0.0,0.0,0.0,0.0,0.0,0.0,0.0,0.0,0.0,0.0,0.0,0.0,0.0,0.0,0.0,0.0,0.0,0.0,0.0,0.0,0.8592,0.8347,0.0,0.0,0.0,0.0,0.0,0.0,0.0,0.0,0.0,0.0,0.0,0.0,0.0,0.0,0.0414,0.0123,0.0,0.0,0.0,0.0,0.0,0.0,0.0,0.0,0.0,0.0,0.0,0.0,0.0,0.0,0.0,0.0,0.0,0.0,0.0,0.0,0.0,0.0,0.0,0.0,0.0,0.0,0.0,0.0,0.0,0.0,0.0,0.0,0.0,-0.7005,-0.7073,-0.7211,-0.5071,-0.3589,-0.3241,-0.1196,0.0,0.0,0.0,0.0,0.0,0.0,0.0,0.0,0.0,0.0,0.0,0.0,0.0,0.0,0.0,-0.0096,-0.0315,-0.0465,0.0,0.0,0.0,0.0,0.0,0.0,0.0,0.0,0.0,0.0,0.0,0.0,0.0,0.0,0.0,0.0,0.0,0.0,0.0,0.0,0.0,0.0,0.0,0.0,0.0,0.0,0.0,0.0,0.0,0.0,0.0,0.0,0.0,0.0,0.0,0.0,0.0,0.0,0.0,0.8571,0.8801,0.8635,0.8818,0.8719,0.0,0.0,0.0,0.0,0.0,0.0,0.0,0.0,0.0,0.1041,0.094,0.0765,0.058,0.0397,0.0201,0.0,0.0,0.0,0.0,0.0,0.0,0.0,0.0,0.0,0.0,0.0,0.0,0.0,0.0,0.0,0.0,0.0,0.0,-0.1084,0.0,0.0,0.0,0.0,0.0,0.0,0.0,0.0,0.0,0.0,0.0,0.0,-0.701,-0.7081,-0.7046,-0.676,-0.4892,-0.3443,-0.2846,-0.1062,0.0,0.0,0.0,0.0,0.0,0.0,0.0,0.0,0.0,0.0,0.0,0.0,0.0,0.0,0.0,-0.0107,-0.0246,-0.0506,-0.0692,-0.0857,0.0,0.0,0.0,0.0,0.0,0.0,0.0,0.0,0.0,0.0,0.0,0.0,0.0,0.0,0.0,0.0,0.0,0.0,0.0,0.0,0.0,0.0,0.0,0.0,0.0,0.0,0.0,0.0,0.0,0.0,0.0,0.0,0.0,0.0,0.0,0.0,0.0,0.8859,0.9011,0.8896,0.9144,0.8961,0.0,0.0,0.0,0.0,0.0,0.0,0.2757,0.1855,0.1384,0.1356,0.1323,0.115,0.0898,0.0698,0.0421,0.014,0.0069,0.0,0.0,0.0,0.0,0.0,0.0,0.0,0.0,0.0,0.0,0.0,0.0,0.0,0.0,0.0,-0.011,-0.0273,0.0,0.0,0.0,0.0,0.0,0.0,0.0,0.0,0.0,0.0,0.0,-0.6884,-0.6921,-0.7078,-0.6718,-0.5597,-0.4229,-0.2949,0.0,-0.0612,0.0,0.0,0.0,0.0,0.0,0.0,0.0,0.0,0.0,0.0,0.0,0.0,0.0,0.0,0.0,0.0,-0.0054,-0.0494,-0.0656,-0.0638,-0.1089,0.0,0.0,0.0,0.0,0.0,0.0,0.0,0.0,0.0,0.0,0.0,0.0,0.0,0.0,0.0,0.0,0.0,0.0,0.0,0.0,0.0,0.0,0.0,0.0,0.0,0.0,0.0,0.0,0.0,0.0,0.0,0.0,0.0,0.0,0.0,0.0,0.0,0.0,0.9347,0.9608,0.0,0.0,0.0,0.0,0.4099,0.4049,0.3547,0.2182,0.2112,0.2158,0.2122,0.1805,0.168,0.1612,0.0982,0.0561,0.0561,0.0208,0.0,0.0,0.0,0.0,0.0,0.0,0.0,0.0,0.0,0.0,0.0,0.0,0.0,0.0,0.0,0.0,0.0,0.0,0.0,0.0,0.0,0.0,-0.5888,-0.5789,-0.587,-0.5983,-0.6122,-0.6499,-0.6908,-0.719,-0.7134,-0.693,-0.6569,-0.4693,-0.3287,-0.2798,-0.1019,0.0,0.0,0.0,0.0,0.0,0.0,0.0,0.0,0.0,0.0,0.0,0.0,0.0,-0.0061,-0.0901,-0.0829,-0.0058,-0.0539,-0.0703,-0.0705,-0.1216,-0.1352,0.0,0.0,0.0,0.0,0.0,0.0,0.0,0.0,0.0,0.0,0.0,0.0,0.0,0.0,0.0,0.0,0.0,0.0,0.0,0.0,0.0,0.0,0.0,0.0,0.0,0.0,0.0,0.0,0.0,0.0,0.0,0.0,0.0,0.0,0.0,0.0,0.0,0.9812,1.0073,0.0,0.9361,0.8565,0.7324,0.5528,0.4666,0.3601,0.2247,0.2202,0.2227,0.2258,0.2127,0.1998,0.1797,0.1223,0.0864,0.0576,0.0211,0.0,0.0,0.0,0.0,0.0,0.0,0.0,0.0,0.0,0.0,0.0,0.0,0.0,0.0,0.0,0.0,0.0,0.0,0.0,0.0,0.0,-0.6262,-0.5888,-0.5888,-0.6001,-0.6162,-0.6351,-0.6764,-0.715,-0.7383,-0.7316,-0.7106,-0.6636,-0.508,-0.3799,-0.2926,-0.138,-0.0353,0.0,0.0,0.0,0.0,0.0,0.0,0.0,0.0,-0.0244,-0.0679,-0.0679,-0.0925,-0.1355,-0.2255,-0.2238,-0.1502,-0.1956,-0.1834,-0.1396,-0.2316,-0.238,-0.197,0.0,0.0,0.0,0.0,0.0,0.0,0.0,0.0,0.0,0.0,0.0,0.0,0.0,0.0,0.0,0.0,0.0,0.0,0.0,0.0,0.0,0.0,0.0,0.0,0.0,0.0,0.0,0.0,0.0,0.0,0.0,0.0,0.0,0.0,0.0,0.9556,1.0065,1.0477,1.0241,0.9077,0.8621,0.7407,0.5104,0.4485,0.3702,0.233,0.2279,0.23,0.232,0.233,0.2193,0.1981,0.1615,0.1173,0.0802,0.0426,0.014,0.0,0.0,0.0,0.0,0.0,0.0,0.0,0.0,0.0,0.0,0.0,0.0,0.0,0.0,0.0,0.0,0.0,0.0,0.0,-0.6489,-0.6036,-0.5892,-0.5896,-0.6132,-0.6354,-0.6501,-0.7251,-0.7674,-0.7412,-0.7622,-0.7179,-0.5586,-0.5312,-0.4249,-0.2019,-0.1696,-0.1109,-0.0051,0.0,0.0,0.0,0.0,0.0,0.0,-0.0061,-0.074,-0.1973,-0.2035,-0.271,-0.3875,-0.3937,-0.4148,-0.4452,-0.4865,-0.4116,-0.2889,-0.4385,-0.4341,-0.3269,0.0,0.0,0.0,0.0,0.0,0.0,0.0,0.0,0.0,0.0,0.0,0.0,0.0,0.0,0.0,0.0,0.0,0.0,0.0,0.0,0.0,0.0,0.0,0.0,0.0,0.0,0.0,0.0,0.0,0.0,0.0,0.0,0.0,0.9248,0.8632,0.8559,0.9991,1.0685,0.9814,0.6608,0.7717,0.686,0.26,0.3551,0.372,0.2367,0.2349,0.238,0.238,0.2408,0.2409,0.238,0.2007,0.1626,0.1168,0.0782,0.0421,0.0,0.0,0.0,0.0,0.0,0.0,0.0,0.0,0.0,0.0,0.0,0.0,0.0,0.0,0.0,0.0,0.0,0.0,-0.7242,-0.6674,-0.6193,-0.5896,-0.5845,-0.6089,-0.6392,-0.6603,-0.7048,-0.7369,-0.7403,-0.7383,-0.7198,-0.6747,-0.5798,-0.462,-0.3187,-0.2183,-0.11,-0.0051,0.0,0.0,0.0,0.0,0.0,0.0,-0.098,-0.1665,-0.2035,-0.2956,-0.3569,-0.3937,-0.4921,-0.4969,-0.4515,-0.6695,-0.6894,-0.5824,-0.5488,-0.4543,-0.3381,0.0,0.0,0.0,0.0,0.0,0.0,0.0,0.0,0.0,0.0,0.0,0.0,0.0,0.0,0.0,0.0,0.0,0.0,0.0,0.0,0.0,0.0,0.0,0.0,0.0,0.0,0.0,0.0,0.0,0.0,0.0,0.0,0.5091,0.6609,0.6819,0.704,0.7669,0.7934,0.7727,0.6894,0.6211,0.5327,0.4092,0.3329,0.2758,0.2387,0.2402,0.2411,0.2411,0.2419,0.2419,0.2411,0.2034,0.1572,0.1182,0.0793,0.0354,0.0,0.0,0.0,0.0,0.0,0.0,0.0,0.0,0.0,0.0,0.0,0.0,0.0,0.0,0.0,0.0,0.0,-0.7535,-0.7053,-0.6566,-0.6207,-0.5958,-0.5806,-0.6076,-0.6429,-0.6749,-0.7127,-0.7427,-0.755,-0.7458,-0.7334,-0.7208,-0.591,-0.4657,-0.3572,-0.1903,-0.0672,-0.0054,0.0,0.0,0.0,-0.0533,-0.0839,-0.0852,-0.2147,-0.3079,-0.3633,-0.4369,-0.5044,-0.5594,-0.6394,-0.6578,-0.6383,-0.8035,-0.8516,-0.8082,-0.7456,-0.6067,-0.4308,-0.4033,-0.2844,-0.1359,-0.0964,-0.0719,-0.0531,-0.0277,0.0,0.0,0.0,0.0,0.0,0.0,0.0,0.0,0.0,0.0,0.0,0.0,0.0,0.0,0.0,0.0,0.0,0.0,0.0,0.0,0.0,0.0,0.0,0.0,0.4513,0.3886,0.4253,0.5071,0.5868,0.6677,0.6835,0.6682,0.6075,0.5192,0.4413,0.3816,0.2941,0.2423,0.2423,0.2435,0.2442,0.2442,0.2455,0.2455,0.2443,0.2213,0.1891,0.1411,0.102,0.0645,0.0212,0.007,0.0,0.0,0.0,0.0,0.0,0.0,0.0,0.0,0.0,0.0,0.0,0.0,0.0,0.0,0.0,-0.7186,-0.7129,-0.6313,-0.6128,-0.6042,-0.5845,-0.6087,-0.6467,-0.6849,0.0,-0.765,-0.7798,-0.7654,-0.7472,-0.7217,-0.5838,-0.4487,0.0,0.0,0.0,0.0,0.0,-0.0059,-0.0242,-0.139,-0.2068,-0.2219,-0.3509,-0.4737,-0.5906,-0.6029,-0.6766,-0.7933,-0.7933,-0.8302,-0.8915,-0.8915,-0.9207,-0.9632,-0.9615,-0.8014,-0.5518,-0.4915,-0.3243,-0.1247,-0.0609,-0.0406,-0.0362,-0.0096,0.0,0.0,0.0,0.0,0.0,0.0,0.0,0.0,0.0,0.0,0.0,0.0,0.0,0.0,0.0,0.0,0.0,0.0,0.0,0.0,0.0,0.0,0.0,0.0,0.3695,0.3354,0.2378,0.3439,0.4861,0.6135,0.6421,0.5926,0.46,0.4434,0.3866,0.2505,0.2432,0.2433,0.2433,0.0,0.0,0.0,0.0,0.2502,0.2474,0.2474,0.2214,0.1712,0.1398,0.0944,0.0501,0.0141,0.0,0.0,0.0,0.0,0.0,0.0,0.0,0.0,0.0,0.0,0.0,0.0,0.0,0.0,0.0,-0.6806,-0.6482,-0.602,-0.603,-0.6044,-0.5848,-0.6081,-0.6504,-0.6984,-0.7285,-0.7537,-0.7788,-0.7567,-0.737,-0.7209,-0.5838,-0.4106,0.0,0.0,0.0,0.0,0.0,-0.0482,-0.1596,-0.1842,-0.2518,-0.3507,-0.486,-0.5659,-0.5906,-0.7011,-0.7625,-0.7933,-0.8183,-0.8549,-0.8915,-0.9156,-0.9441,-0.9771,-0.9656,-0.8014,-0.5538,-0.5168,-0.3455,-0.1198,-0.0637,-0.0426,-0.0378,-0.0105,0.0,0.0,0.0,0.0,0.0,0.0,0.0,0.0,0.0,0.0,0.0,0.0,0.0,0.0,0.0,0.0,0.0,0.0,0.0,0.0,0.0,0.0,0.0,0.3707,0.3055,0.2481,0.2273,0.2566,0.2863,0.3116,0.3237,0.3192,0.2897,0.2882,0.2767,0.2537,0.2483,0.2497,0.2497,0.2502,0.0,0.2506,0.2511,0.2512,0.2506,0.2506,0.2165,0.1433,0.0,0.0,0.0143,0.0,0.0,0.0,0.0,0.0,0.0,0.0,0.0,0.0,0.0,0.0,0.0,0.0,0.0,0.0,-0.6909,-0.6693,-0.6481,-0.6188,-0.6272,-0.623,-0.5941,-0.6112,-0.6487,-0.6923,-0.7102,-0.7301,-0.7674,-0.703,-0.6502,-0.6323,-0.4449,0.0,0.0,-0.0281,0.0,0.0,0.0,-0.0612,-0.1973,-0.2648,-0.357,-0.4921,-0.6274,-0.6888,-0.6888,-0.7564,-0.7994,-0.818,-0.8308,-0.8671,-0.9095,-0.9214,-0.9518,-0.9815,-0.9744,-0.8464,-0.6479,-0.5346,-0.3305,-0.0995,-0.0439,-0.022,-0.0166,-0.0054,0.0,0.0,0.0,0.0,0.0,0.0,0.0,0.0,0.0,0.0,0.0,0.0,0.0,0.0,0.0,0.0,0.0,0.0,0.0,0.266,0.0,0.0,0.2857,0.292,0.2538,0.2256,0.2287,0.2303,0.2317,0.2331,0.2373,0.2401,0.2401,0.2456,0.2491,0.2491,0.2506,0.2515,0.2515,0.2515,0.2515,0.2515,0.2515,0.2515,0.2515,0.2515,0.2251,0.1817,0.1505,0.1036,0.0578,0.0217,0.0,0.0,0.0,0.0,0.0,0.0,0.0,0.0,0.0,0.0,0.0,0.0,0.0,0.0,-0.684,-0.6773,-0.6725,-0.6504,-0.6555,-0.6477,-0.6101,-0.6197,-0.645,-0.6831,-0.6866,-0.7001,-0.7227,-0.6328,-0.5444,0.0,0.0,0.0,0.0,0.0,0.0,0.0,0.0,-0.074,-0.2341,-0.3386,-0.4674,-0.6274,-0.7378,-0.7872,-0.7872,-0.7994,-0.8119,-0.843,-0.8552,-0.8854,-0.9275,-0.9396,-0.9579,-0.9822,-0.9822,-0.8922,-0.7378,-0.5487,-0.3298,-0.1121,-0.028,0.0,0.0,0.0,0.0,0.0,0.0,0.0,0.0,0.0,0.0051,0.0,0.0,0.0,0.0,0.0,0.0,0.0,0.0,0.1799,0.184,0.1877,0.1928,0.1982,0.2035,0.209,0.2147,0.2208,0.2259,0.2292,0.2298,0.2318,0.2333,0.2333,0.2381,0.2417,0.2423,0.2473,0.2508,0.2514,0.2515,0.2515,0.2515,0.2515,0.2515,0.2515,0.2515,0.2515,0.2515,0.2515,0.2406,0.2272,0.159,0.1196,0.1095,0.0365,0.0,0.0,0.0,0.0,0.0,0.0,0.0,0.0,0.0,0.0,0.0,0.0,0.0,0.0,0.0,-0.7054,-0.7049,-0.6733,-0.6628,-0.6515,-0.6284,-0.6273,-0.6412,-0.6685,-0.6844,-0.6692,-0.6159,-0.5858,-0.4773,-0.2482,0.0,0.0,-0.0057,0.0,0.0,0.0,0.0,-0.1171,-0.363,-0.3815,-0.5165,-0.7686,-0.7811,-0.7872,-0.7933,-0.8183,-0.8369,-0.843,-0.8976,-0.9214,-0.9339,-0.964,-0.9761,-0.9822,-0.9822,-0.8922,-0.7386,-0.5558,-0.3904,-0.2293,-0.0616,0.0,0.0,0.0,0.0,0.0,0.0,0.0,0.0,0.0,0.0157,0.0362,0.0412,0.0835,0.1335,0.171,0.1785,0.1824,0.0,0.1969,0.1972,0.2028,0.2065,0.2099,0.2133,0.2167,0.221,0.2271,0.2286,0.23,0.2324,0.233,0.2333,0.2333,0.2363,0.2394,0.242,0.2455,0.2485,0.2512,0.2515,0.2515,0.2515,0.2515,0.2515,0.2515,0.2515,0.2515,0.2515,0.2515,0.2251,0.1893,0.1514,0.1047,0.0657,0.0219,0.0,0.0,0.0,0.0,0.0,0.0,0.0,0.0,0.0,0.0,0.0,0.0,0.0,0.0,0.0,-0.7216,-0.7312,-0.7202,-0.6945,-0.6688,-0.6498,-0.6371,-0.6375,-0.6539,-0.6173,-0.5846,-0.5703,-0.4589,-0.3113,-0.1373,-0.0996,-0.0634,-0.0056,0.0,0.0,0.0,-0.0744,-0.2042,-0.3865,-0.4635,-0.5965,-0.7872,-0.7872,-0.7994,-0.8183,-0.8308,-0.8613,-0.8912,-0.9217,-0.9445,-0.9698,-0.9711,-0.9795,-0.9876,-0.9768,-0.9271,-0.8384,-0.5862,-0.44,-0.3415,-0.0884,0.0,0.0,0.0,0.0,0.0,0.0,0.0,0.0,0.0,0.0104,0.0261,0.0585,0.0867,0.116,0.1414,0.1396,0.1318,0.1608,0.1697,0.1784,0.2017,0.2114,0.2145,0.2176,0.2206,0.2241,0.0,0.2305,0.232,0.2331,0.2319,0.2308,0.2308,0.232,0.2352,0.2417,0.2451,0.2482,0.2512,0.2515,0.2515,0.2515,0.2515,0.2515,0.2515,0.2515,0.2515,0.2515,0.2515,0.2251,0.1817,0.1439,0.1047,0.0584,0.0219,0.0,0.0,0.0,0.0,0.0,0.0,0.0,0.0,0.0,0.0,0.0,0.0,0.0,0.0,0.0,-0.724,-0.7446,-0.7484,-0.7134,-0.6788,-0.6714,-0.6451,-0.6337,-0.6439,-0.5728,-0.5099,-0.4784,-0.3154,-0.1735,-0.0786,-0.0539,-0.0261,0.0,0.0,0.0,0.0,-0.1305,-0.2616,-0.39,-0.5313,-0.6664,-0.7973,-0.8094,-0.8282,-0.8535,-0.8717,-0.9023,-0.9452,-0.9516,-0.9761,-1.0097,-0.9839,-0.9792,-0.996,-0.9727,-0.9517,-0.9078,-0.6034,-0.4727,-0.4115,-0.1092,0.0,0.0,0.0,0.0,0.0,0.0,0.0,0.0,0.0,0.0052,0.0211,0.0759,0.0889,0.0966,0.1166,0.103,0.1,0.125,0.1343,0.1504,0.1909,0.2,0.2097,0.2194,0.2225,0.2256,0.2286,0.2315,0.2333,0.2333,0.2309,0.2291,0.2291,0.2283,0.231,0.239,0.2426,0.246,0.2499,0.2502,0.2506,0.2514,0.2515,0.2515,0.2515,0.2515,0.2515,0.2515,0.2515,0.2247,0.1808,0.1436,0.1045,0.0581,0.0217,0.0,0.0,0.0,0.0,0.0,0.0,0.0,0.0,0.0,0.0,0.0,0.0,0.0,0.0,0.0,0.0,-0.7257,-0.7484,-0.7022,-0.6676,-0.6865,-0.6563,-0.6303,-0.6306,-0.5674,-0.462,-0.3058,-0.1847,-0.102,-0.0738,-0.0519,-0.0299,0.0,0.0,0.0,0.0,-0.1365,-0.2705,-0.409,-0.5547,-0.6935,-0.8159,-0.8605,-0.8797,-0.8797,-0.9427,-0.9745,-0.9808,-1.0136,-1.027,-1.0263,-1.0041,-0.9977,-0.996,-0.9727,-0.9517,-0.9055,-0.5881,-0.4597,-0.41,-0.1086,0.0,0.0,0.0,0.0,0.0,0.0,0.0,0.0,0.0,0.016,0.0428,0.0707,0.084,0.093,0.0914,0.0945,0.103,0.103,0.1054,0.1206,0.152,0.16,0.1758,0.2126,0.2225,0.2256,0.2286,0.2315,0.2333,0.2333,0.2309,0.2291,0.2291,0.2264,0.2199,0.0,0.2363,0.2405,0.2465,0.247,0.2483,0.2512,0.2515,0.2515,0.2515,0.2515,0.2515,0.2515,0.2515,0.2237,0.1784,0.143,0.104,0.0573,0.0212,0.0,0.0,0.0,0.0,0.0,0.0,0.0,0.0,0.0,0.0,0.0,0.0,0.0,0.0,0.0,0.0,0.0,-0.758,-0.7193,-0.6906,-0.6947,-0.6661,-0.6443,-0.6443,-0.5277,0.0,0.0,0.0,0.0,0.0,-0.0992,-0.0823,-0.0537,-0.0389,-0.0287,-0.0237,-0.2237,-0.3498,-0.3967,-0.6226,-0.7681,-0.831,-0.8496,-0.8741,-0.911,-0.9354,-0.9601,-0.9786,-0.9913,-1.0032,-1.0048,-0.9863,-0.993,-1.0161,-0.9659,-0.949,-0.9199,-0.5915,-0.4636,-0.409,0.0,0.0,0.0,0.0,0.0,0.0,0.0,0.0,0.0,0.0,0.0053,0.0219,0.0455,0.0412,0.0365,0.0505,0.0452,0.0393,0.0596,0.0669,0.0874,0.1472,0.1598,0.1739,0.2122,0.2192,0.2208,0.2279,0.2299,0.2311,0.233,0.2324,0.2304,0.2265,0.2286,0.0,0.0,0.0,0.0,0.2463,0.2469,0.2482,0.2512,0.2515,0.2515,0.2515,0.2515,0.2515,0.2515,0.2515,0.2169,0.1429,0.0743,0.0367,0.0217,0.0071,0.0,0.0,0.0,0.0,0.0,0.0,0.0,0.0,0.0,0.0,0.0,0.0,0.0,0.0,0.0,0.0,0.0,0.0,0.0,0.0,0.0,0.0,0.0,0.0,0.0,0.0,0.0,0.0,0.0,0.0,0.0,-0.1081,-0.0791,-0.0651,-0.0558,-0.0516,-0.2865,-0.4157,-0.4139,-0.6693,-0.8191,-0.8418,-0.86,-0.8891,-0.9351,-0.9474,-0.9688,-0.9985,-0.9927,-0.9958,-1.0032,-0.9734,-0.9778,-0.9992,-0.9445,-0.9283,-0.898,-0.5772,-0.4491,0.0,-0.1039,0.0,0.0,0.0,0.0,0.0,0.0,0.0,0.0,0.0,0.0,0.0056,0.0237,0.0122,0.0063,0.0195,0.0132,0.0066,0.0267,0.0334,0.0467,0.1062,0.1311,0.1504,0.1942,0.2069,0.2219,0.2244,0.2267,0.2292,0.2342,0.2331,0.2307,0.2209,0.2301,0.2307,0.0,0.0,0.0,0.2431,0.2457,0.2477,0.2497,0.2508,0.2515,0.2515,0.2515,0.2515,0.2515,0.2504,0.2081,0.1278,0.044,0.0,0.0,0.0,0.0,0.0,0.0,0.0,0.0,0.0,0.0,0.0,0.0,0.0,0.0,0.0,0.0,0.0,0.0,0.0,0.0,0.0,0.0,0.0,0.0,0.0,0.0,0.0,0.0,0.0,0.0,0.0,0.0,0.0,0.0,0.0,-0.0879,0.0,0.0,-0.0817,-0.32,-0.4512,-0.4574,-0.6967,-0.8318,-0.8494,-0.885,-0.9229,-0.95,-0.9809,-1.007,-1.0205,-1.0059,-0.9995,-1.0036,-0.9693,-0.9581,-0.9547,-0.9047,-0.8875,-0.8498,-0.5378,0.0,0.0,-0.0996,0.0,0.0,0.0,0.0,0.0,0.0,0.0,0.0,0.0,0.0,0.0,0.0,0.0,0.0,0.0,0.0,0.0,0.0,0.0,0.0066,0.0453,0.0764,0.1076,0.1539,0.0,0.2091,0.2181,0.2223,0.2277,0.2365,0.2332,0.2307,0.0,0.0,0.0,0.0,0.0,0.0,0.2378,0.0,0.2468,0.2471,0.2499,0.2515,0.2515,0.2515,0.2514,0.2512,0.248,0.2054,0.1188,0.0362,0.0,0.0,0.0,0.0,0.0,0.0,0.0,0.0,0.0,0.0,0.0,0.0,0.0,0.0,0.0,0.0,0.0,0.0,0.0,0.0,0.0,0.0,0.0,0.0,0.0,0.0,0.0,0.0,0.0,0.0,0.0,0.0,0.0,0.0,0.0,-0.1423,0.0,0.0,0.0,0.0,-0.3598,-0.4414,-0.6063,-0.7373,-0.8417,-0.8533,-0.8744,-0.905,-0.9165,-0.9185,-0.9279,-0.9181,-0.9165,-0.9218,-0.914,-0.9171,-0.9299,0.0,-0.8336,-0.7448,0.0,0.0,0.0,-0.0928,-0.0154,0.0,0.0,0.0,0.0,0.0,0.0,0.0,0.0,0.0,0.0,0.0,0.0,0.0,0.0,0.0,0.0,0.0,0.0,0.0065,0.0446,0.056,0.0795,0.1411,0.1625,0.1795,0.2055,0.2196,0.0,0.2365,0.2385,0.0,0.2369,0.24,0.2408,0.237,0.2408,0.0,0.0,0.2427,0.2455,0.25,0.251,0.2515,0.2515,0.2515,0.2504,0.248,0.1821,0.1421,0.1189,0.0366,0.0,0.0,0.0,0.0,0.0,0.0,0.0,0.0,0.0,0.0,0.0,0.0,0.0,0.0,0.0,0.0,0.0,0.0,0.0,0.0,0.0,0.0,0.0,0.0,0.0,0.0,0.0,0.0,0.0,0.0,0.0,0.0,0.0,0.0,0.0,0.0,0.0,0.0,-0.1368,-0.235,-0.3414,-0.4575,-0.5794,-0.7023,-0.8371,0.0,0.0,-0.8838,-0.8838,-0.8817,-0.8878,-0.8814,-0.8838,-0.8832,-0.8767,0.0,0.0,0.0,0.0,0.0,0.0,0.0,-0.2307,-0.0929,-0.0206,0.0,0.0,0.0,0.0,0.0,0.0,0.0,0.0,0.0,0.0,0.0,0.0,0.0,0.0,0.0,0.0,0.0,0.0,0.0063,0.0244,0.0355,0.0638,0.1168,0.144,0.1674,0.1993,0.0,0.0,0.2364,0.2393,0.2407,0.0,0.2448,0.0,0.2421,0.2449,0.2467,0.0,0.2463,0.2472,0.2493,0.2507,0.2515,0.2515,0.2502,0.2474,0.2429,0.1646,0.1186,0.1179,0.0366,0.0,0.0,0.0,0.0,0.0,0.0,0.0,0.0,0.0,0.0,0.0,0.0,0.0,0.0,0.0,0.0,0.0,0.0,0.0,0.0,0.0,0.0,0.0,0.0,0.0,0.0,0.0,0.0,0.0,0.0,0.0,0.0,0.0,0.0,0.0,0.0,0.0,0.0,-0.1576,-0.2503,-0.3554,-0.4772,-0.5729,-0.6891,-0.8241,0.0,0.0,0.0,0.0,0.0,0.0,0.0,0.0,0.0,0.0,0.0,0.0,0.0,0.0,0.0,0.0,0.0,-0.2281,-0.092,-0.0206,0.0,0.0,0.0,0.0,0.0,0.0,0.0,0.0,0.0,0.0,0.0,0.0,0.0,0.0,0.0,0.0,0.0,0.0,0.0,0.0,0.0168,0.0439,0.0776,0.1146,0.155,0.1869,0.2109,0.2231,0.2355,0.2375,0.2401,0.2461,0.2472,0.2475,0.2475,0.2475,0.2486,0.2512,0.2515,0.2503,0.2476,0.25,0.2512,0.2508,0.2475,0.2431,0.2378,0.1632,0.118,0.1168,0.0364,0.0,0.0,0.0,0.0,0.0,0.0,0.0,0.0,0.0,0.0,0.0,0.0,0.0,0.0,0.0,0.0,0.0,0.0,0.0,0.0,0.0,0.0,0.0,0.0,0.0,0.0,0.0,-0.1629,-0.1522,0.0,0.0,0.0,0.0,0.0,0.0,0.0,0.0,0.0,0.0,-0.1782,-0.2818,-0.4772,-0.4974,-0.6037,-0.8029,0.0,0.0,0.0,0.0,0.0,0.0,0.0,0.0,0.0,0.0,0.0,0.0,0.0,0.0,0.0,0.0,0.0,0.0,-0.1005,-0.0212,0.0,0.0,0.0,0.0,0.0,0.0,0.0,0.0,0.0,0.0,0.0,0.0,0.0,0.0,0.0,0.0,0.0,0.0,0.0,0.0,0.0055,0.0163,0.0423,0.0832,0.1168,0.1512,0.1854,0.2176,0.232,0.2363,0.2401,0.0,0.2491,0.2506,0.2506,0.2506,0.0,0.0,0.0,0.2512,0.2506,0.2512,0.2503,0.2478,0.2423,0.2389,0.2378,0.1619,0.117,0.1167,0.0361,0.0,0.0,0.0,0.0,0.0,0.0,0.0,0.0,0.0,0.0,0.0,0.0,0.0,0.0,0.0,0.0,0.0,0.0,0.0,0.0,0.0,0.0,0.0,0.0,-0.2073,-0.1555,-0.163,-0.1615,-0.1591,-0.1575,-0.1545,-0.1478,0.0,0.0,0.0,0.0,0.0,0.0,0.0,0.0,-0.262,-0.4772,-0.4824,-0.5827,0.0,0.0,0.0,0.0,0.0,0.0,0.0,0.0,0.0,0.0,0.0,0.0,0.0,0.0,0.0,0.0,0.0,0.0,0.0,0.0,-0.0215,0.0,0.0,0.0,0.0,0.0,0.0,0.0,0.0,0.0,0.0,0.0,0.0,0.0,0.0,0.0,0.0,0.0,0.0,0.0,0.0,0.0,0.0106,0.0365,0.0709,0.1084,0.1391,0.1801,0.2127,0.2247,0.2303,0.2367,0.2458,0.2482,0.2497,0.2513,0.2515,0.0,0.0,0.0,0.0,0.2514,0.25,0.247,0.2423,0.2393,0.2371,0.2355,0.161,0.1168,0.1167,0.036,0.0,0.0,0.0,0.0,0.0,0.0,0.0,0.0,0.0,0.0,0.0,0.0,0.0,0.0,0.0,0.0,0.0,0.0,0.0,0.0,0.0,0.0,0.0,0.0,-0.2069,-0.1618,-0.1695,-0.1685,-0.1665,-0.1647,-0.1592,-0.155,0.0,0.0,0.0,0.0,0.0,0.0,0.0,0.0,0.0,-0.4772,0.0,0.0,0.0,0.0,0.0,0.0,0.0,0.0,0.0,0.0,0.0,0.0,0.0,0.0,0.0,0.0,0.0,0.0,0.0,0.0,0.0,0.0,-0.027,0.0,0.0,0.0,0.0,0.0,0.0,0.0,0.0,0.0,0.0,0.0,0.0,0.0,0.0,0.0,0.0,0.0,0.0,0.0,0.0,0.0,0.0052,0.026,0.0645,0.0943,0.1294,0.1688,0.1999,0.2175,0.2243,0.232,0.2427,0.2451,0.0,0.2493,0.2495,0.0,0.0,0.0,0.0,0.2493,0.2466,0.2428,0.238,0.2372,0.2357,0.2333,0.1678,0.1311,0.1163,0.0502,0.0071,0.0,0.0,0.0,0.0,0.0,0.0,0.0,0.0,0.0,0.0,0.0,0.0,0.0,0.0,0.0,0.0,0.0,0.0,0.0,0.0,0.0,0.0,0.0,-0.165,-0.1718,-0.1699,-0.1702,-0.171,-0.1789,-0.1738,-0.1678,0.0,0.0,0.0,0.0,0.0,0.0,0.0,0.0,0.0,0.0,0.0,0.0,0.0,0.0,0.0,0.0,0.0,0.0,0.0,0.0,0.0,0.0,0.0,0.0,0.0,0.0,0.0,0.0,0.0,0.0,0.0,0.0,-0.0485,0.0,0.0,0.0,0.0,0.0,0.0,0.0,0.0,0.0,0.0,0.0,0.0,0.0,0.0,0.0,0.0,0.0,0.0,0.0,0.0,0.0,0.0,0.0052,0.0261,0.0588,0.0966,0.1346,0.1717,0.2135,0.2211,0.2202,0.2337,0.0,0.0,0.2431,0.2432,0.0,0.0,0.0,0.0,0.0,0.2403,0.2384,0.2378,0.2351,0.2335,0.2333,0.1895,0.1595,0.1219,0.0778,0.0349,0.0,0.0,0.0,0.0,0.0,0.0,0.0,0.0,0.0,0.0,0.0,0.0,0.0,0.0,0.0,0.0,0.0,0.0,0.0,0.0,0.0,0.0,-0.1695,-0.16,-0.1658,-0.1777,-0.1716,-0.1722,-0.1772,-0.1756,-0.1718,-0.1656,0.0,0.0,0.0,0.0,0.0,0.0,0.0,0.0,0.0,0.0,-0.5925,-0.8177,-0.8035,0.0,0.0,0.0,0.0,0.0,0.0,0.0,0.0,0.0,0.0,0.0,0.0,0.0,0.0,0.0,0.0,0.0,0.0,0.0,0.0,0.0,0.0,0.0,0.0,0.0,0.0,0.0,0.0,0.0,0.0,0.0,0.0,0.0,0.0,0.0,0.0,0.0,0.0,0.0,0.0,0.0,0.0,0.0208,0.0528,0.0886,0.1199,0.161,0.1988,0.2109,0.2178,0.2294,0.2329,0.0,0.0,0.0,0.0,0.0,0.0,0.0,0.0,0.2375,0.237,0.2351,0.2339,0.2333,0.2333,0.1954,0.1582,0.1216,0.0764,0.0341,0.0,0.0,0.0,0.0,0.0,0.0,0.0,0.0,0.0,0.0,0.0,0.0,0.0,0.0,0.0,0.0,0.0,0.0,0.0,0.0,0.0,-0.2342,-0.1687,-0.1594,-0.165,-0.1757,-0.1714,-0.1734,-0.1777,-0.179,-0.1778,-0.1735,-0.1705,0.0,0.0,0.0,0.0,0.0,0.0,0.0,0.0,0.0,-0.5938,-0.7865,-0.8158,-0.8255,0.0,0.0,0.0,0.0,0.0,0.0,0.0,0.0,0.0,0.0,0.0,0.0,0.0,0.0,0.0,0.0,0.0,0.0,0.0,0.0,0.0,0.0,0.0,0.0,0.0,0.0,0.0,0.0,0.0,0.0,0.0,0.0,0.0,0.0,0.0,0.0,0.0,0.0,0.0,0.0,0.0,0.0155,0.0417,0.0702,0.1005,0.1282,0.1791,0.1906,0.2041,0.2223,0.0,0.2292,0.0,0.0,0.0,0.0,0.0,0.0,0.0,0.2353,0.2355,0.2333,0.2333,0.2329,0.232,0.2005,0.163,0.1195,0.0816,0.0467,0.0,0.0,0.0,0.0,0.0,0.0,0.0,0.0,0.0,0.0,0.0,0.0,0.0,0.0,0.0,0.0,0.0,0.0,0.0,0.0,0.0,0.0,-0.1486,-0.1634,-0.1652,-0.1622,-0.1695,-0.1804,-0.1804,-0.1777,-0.1795,-0.1794,-0.1821,0.0,0.0,0.0,0.0,0.0,0.0,0.0,0.0,0.0,-0.5677,-0.6895,-0.8234,-0.8875,-0.8875,-0.8875,0.0,0.0,0.0,0.0,0.0,0.0,0.0,0.0,0.0,0.0,0.0,0.0,0.0,0.0,0.0,0.0,0.0,0.0,0.0,0.0,0.0,0.0,0.0,0.0,0.0,0.0,0.0,0.0,0.0,0.0,0.0,0.0,0.0,0.0,0.0,0.0,0.0,0.0,0.0,0.0,0.0102,0.0424,0.0494,0.0742,0.1439,0.1568,0.1751,0.0,0.0,0.2213,0.0,0.0,0.0,0.0,0.0,0.0,0.0,0.2333,0.2333,0.2333,0.2333,0.232,0.2292,0.2261,0.18,0.1077,0.1129,0.072,0.0,0.0,0.0,0.0,0.0,0.0,0.0,0.0,0.0,0.0,0.0,0.0,0.0,0.0,0.0,0.0,0.0,0.0,0.0,0.0,0.0,0.0,0.0,-0.1558,-0.1588,-0.1641,-0.1654,-0.1682,-0.1797,-0.1777,-0.1795,-0.1795,-0.1822,0.0,0.0,0.0,0.0,0.0,0.0,0.0,0.0,0.0,-0.5728,-0.7022,-0.8189,-0.8886,-0.9083,-0.8984,-0.8834,-0.8781,0.0,0.0,0.0,0.0,0.0,0.0,0.0,0.0,0.0,0.0,0.0,0.0,0.0,0.0,0.0,0.0,0.0,0.0,0.0,0.0,0.0,0.0,0.0,0.0,0.0,0.0,0.0,0.0,0.0,0.0,0.0,0.0,0.0,0.0,0.0,0.0,0.0,0.0,0.0104,0.0445,0.051,0.0757,0.1419,0.0,0.0,0.2068,0.223,0.0,0.0,0.0,0.0,0.0,0.0,0.0,0.0,0.0,0.2261,0.2303,0.2283,0.2259,0.2229,0.2178,0.1875,0.1459,0.1166,0.0767,0.0318,0.0125,0.0,0.0,0.0,0.0,0.0,0.0,0.0,0.0,0.0,0.0,0.0,0.0,0.0,0.0,0.0,0.0,0.0,0.0,0.0,0.0,0.0,-0.1558,-0.1577,-0.1673,-0.1641,-0.1671,-0.1727,-0.177,-0.1795,-0.1795,-0.1778,0.0,0.0,0.0,0.0,0.0,0.0,0.0,-0.2662,-0.4351,-0.5665,-0.66,-0.8183,-0.9089,-0.932,-0.9174,-0.9076,-0.9008,-0.8764,0.0,0.0,0.0,0.0,0.0,0.0,0.0,0.0,0.0,0.0,0.0,0.0,0.0,0.0,0.0,0.0,0.0,0.0,0.0,0.0,0.0,0.0,0.0,0.0,0.0,0.0,0.0,0.0,0.0,0.0,0.0,0.0,0.0,0.0,0.0,0.0,0.0,0.0051,0.0272,0.0335,0.0517,0.0,0.0,0.0,0.1876,0.0,0.0,0.0,0.0,0.0,0.0,0.0,0.0,0.0,0.0,0.2195,0.2221,0.2215,0.2196,0.2166,0.2117,0.189,0.1555,0.1203,0.0814,0.0501,0.0,0.0,0.0,0.0,0.0,0.0,0.0,0.0,0.0,0.0,0.0,0.0,0.0,0.0,0.0,0.0,0.0,0.0,0.0,0.0,0.0,0.0,-0.1579,-0.1604,-0.1624,-0.1647,-0.1701,-0.1701,-0.1757,-0.1795,-0.1795,0.0,0.0,0.0,0.0,0.0,0.0,0.0,0.0,-0.1709,-0.4073,-0.5427,-0.5708,-0.8093,-0.9417,-0.9622,-0.9469,-0.9367,-0.9204,-0.9015,-0.8892,0.0,0.0,0.0,0.0,0.0,0.0,0.0,0.0,0.0,0.0,0.0,0.0,0.0,0.0,0.0,0.0,0.0,0.0,0.0,0.0,0.0,0.0,0.0,0.0,0.0,0.0,0.0,0.0,0.0,0.0,0.0,0.0,0.0,0.0,0.0,0.0,0.0,0.0,0.0,0.0111,0.0,0.0537,0.0,0.0,0.0,0.0,0.0,0.0,0.0,0.0,0.0,0.0,0.0,0.0,0.0,0.2101,0.2127,0.2129,0.2103,0.2073,0.1916,0.1511,0.1181,0.0864,0.0494,0.0,0.0,0.0,0.0,0.0,0.0,0.0,0.0,0.0,0.0,0.0,0.0,0.0,0.0,0.0,0.0,0.0,0.0,0.0,0.0,0.0,0.0,0.0,0.0,0.0,-0.1681,-0.1724,-0.1724,-0.1746,-0.1795,0.0,0.0,0.0,0.0,0.0,0.0,0.0,0.0,0.0,-0.1794,-0.3253,-0.4615,-0.5751,-0.729,-0.8605,-0.9768,-0.9625,-0.9412,-0.9207,-0.9173,-0.9042,0.0,0.0,0.0,0.0,0.0,0.0,0.0,0.0,0.0,0.0,0.0,-0.0593,0.0,0.0,0.0,0.0,0.0,0.0,0.0,0.0,0.0,0.0,0.0,0.0,0.0,0.0,0.0,0.0,0.0,0.0,0.0,0.0,0.0,0.0,0.0,0.0,0.0,0.0,0.0,0.0115,0.0473,0.0,0.0,0.1226,0.0,0.0,0.0,0.0,0.0,0.0,0.0,0.0,0.0,0.0,0.0,0.2009,0.2015,0.2025,0.2039,0.2011,0.1993,0.1862,0.1547,0.1235,0.0864,0.0,0.0,0.0,0.0,0.0,0.0,0.0,0.0,0.0,0.0,0.0,0.0,0.0,0.0,0.0,0.0,0.0,0.0,0.0,0.0,0.0,0.0,0.0,0.0,0.0,0.0,0.0,0.0,0.0,0.0,0.0,0.0,0.0,0.0,0.0,0.0,0.0,0.0,-0.178,-0.1805,-0.2991,-0.4014,-0.4872,-0.6683,-0.8047,-0.8958,-0.9436,-0.9507,-0.9204,-0.9011,-0.8944,0.0,0.0,0.0,0.0,0.0,0.0,0.0,0.0,0.0,0.0,-0.0892,-0.1276,0.0,-0.288,-0.2906,-0.2505,0.0,0.0,0.0,0.0,-0.0624,-0.0765,-0.1186,-0.0661,0.0,0.0,0.0,0.0,0.0,0.0,0.0,0.0,0.0,0.0,0.0,-0.0467,-0.0623,-0.0109,-0.0447,0.0,0.0,0.0,0.0666,0.0,0.0,0.0,0.0,0.0,0.0,0.0,0.0,0.0,0.0,0.0,0.1992,0.0,0.1977,0.1984,0.1999,0.1984,0.1977,0.1977,0.1667,0.1297,0.0988,0.0,0.0,0.0,0.0,0.0,0.0,0.0,0.0,0.0,0.0,0.0,0.0,0.0,0.0,0.0,0.0,0.0,0.0,0.0,0.0,0.0,0.0,0.0,0.0,0.0,0.0,0.0,0.0,0.0,0.0,0.0,0.0,0.0,0.0,0.0,0.0,0.0,-0.1795,-0.1785,-0.1819,-0.283,-0.3509,-0.3816,-0.6002,-0.7339,-0.7919,-0.8961,-0.9403,-0.9197,-0.8869,-0.8706,0.0,0.0,0.0,0.0,0.0,0.0,0.0,0.0,0.0,0.0,0.0,0.0,0.0,-0.4261,-0.4358,-0.3707,-0.3387,0.0,0.0,0.0,0.0,0.0,-0.267,-0.1752,-0.0464,-0.0458,-0.0469,-0.0533,-0.0471,-0.0469,-0.0417,-0.0261,-0.0257,-0.0255,-0.026,-0.1093,-0.1467,0.0,0.0,0.0,-0.0755,-0.0454,0.0,0.0,0.0,0.0,0.0,0.0,0.0,0.0,0.0,0.0,0.0,0.0,0.0,0.0,0.1977,0.1977,0.1977,0.1977,0.1977,0.1977,0.1729,0.1359,0.0988,0.0678,0.0,0.0,0.0,0.0,0.0,0.0,0.0,0.0,0.0,0.0,0.0,0.0,0.0,0.0,0.0,0.0,0.0,0.0,0.0,0.0,0.0,0.0,0.0,0.0,0.0,0.0,0.0,0.0,0.0,0.0,0.0,0.0,0.0,0.0,0.0,-0.1795,-0.1795,-0.1805,-0.1826,-0.2007,-0.2678,-0.3885,-0.4255,-0.5639,-0.7919,-0.7986,-0.845,-0.9204,-0.8977,-0.8303,-0.7318,0.0,0.0,0.0,0.0,0.0,0.0,0.0,0.0,0.0,0.0,0.0,0.0,-0.4933,-0.5269,-0.5084,-0.3908,0.0,0.0,0.0,0.0,0.0,-0.2945,-0.2863,-0.269,-0.257,-0.2701,-0.2867,-0.271,-0.2699,-0.2434,-0.1538,-0.1359,-0.135,-0.1375,-0.1696,-0.182,0.0,0.0,-0.2409,0.0,0.0,0.0,0.0,0.0,0.0,0.0,0.0,0.0,0.0,0.0,0.0,0.0,0.0,0.0,0.1977,0.0,0.1977,0.1977,0.1977,0.1977,0.1977,0.1977,0.1606,0.0987,0.0975,0.0605,0.0,0.0,0.0,0.0,0.0,0.0,0.0,0.0,0.0,0.0,0.0,0.0,0.0,0.0,0.0,0.0,0.0,0.0,0.0,0.0,0.0,0.0,0.0,0.0,0.0,0.0,0.0,0.0,0.0,0.0,0.0,0.0,0.0,0.0,-0.1795,-0.1779,-0.1793,-0.1782,-0.1783,-0.217,-0.2869,-0.3589,-0.4915,-0.6834,-0.7991,-0.881,-0.9262,-0.8282,-0.7532,-0.6985,-0.5196,-0.4081,0.0,0.0,0.0,0.0,0.0,0.0,0.0,0.0,0.0,0.0,0.0,-0.6426,-0.6313,-0.4993,0.0,0.0,0.0,0.0,0.0,-0.4367,-0.4649,-0.487,-0.4812,-0.4116,-0.3451,-0.3325,-0.3375,-0.3276,-0.2698,-0.2567,-0.2566,-0.256,0.0,-0.3838,-0.3809,0.0,0.0,0.0,0.0,0.0,0.0,0.0,0.0,0.0,0.0,0.0,0.0,0.0,0.0,0.0,0.0,0.0,0.0,0.1977,0.1977,0.1977,0.1977,0.1977,0.1977,0.1977,0.1721,0.1219,0.1089,0.072,0.0179,0.0,0.0,0.0,0.0,0.0,0.0,0.0,0.0,0.0,0.0,0.0,0.0,0.0,0.0,0.0,0.0,0.0,0.0,0.0,0.0,0.0,0.0,0.0,0.0,0.0,0.0,0.0,0.0,0.0,0.0,0.0,0.0,-0.1739,-0.1683,-0.1759,-0.1774,-0.1849,-0.178,-0.1881,-0.1986,-0.2998,-0.4319,-0.5934,-0.8187,-0.9168,-0.8903,-0.7566,-0.6759,-0.6146,-0.436,-0.3413,0.0,0.0,0.0,0.0,0.0,0.0,0.0,0.0,0.0,0.0,0.0,0.0,0.0,0.0,0.0,0.0,-0.4962,-0.491,-0.521,-0.5644,-0.6015,-0.6311,-0.6281,-0.5265,-0.4228,-0.4267,-0.4257,-0.4205,-0.394,-0.3863,-0.3866,-0.3865,-0.4705,0.0,-0.6109,-0.5208,0.0,0.0,0.0,0.0,0.0,0.0,0.0,0.0,0.0,0.0,0.0,0.0,0.0,0.0,0.0,0.0,0.0,0.1977,0.1977,0.1977,0.1977,0.1977,0.1977,0.1969,0.177,0.1388,0.1198,0.083,0.041,0.0173,0.0057,0.0,0.0,0.0,0.0,0.0,0.0,0.0,0.0,0.0,0.0,0.0,0.0,0.0,0.0,0.0,0.0,0.0,0.0,0.0,0.0,0.0,0.0,0.0,0.0,0.0,0.0,0.0,0.0,0.0,0.0,-0.1683,-0.1346,-0.1576,-0.1763,-0.188,-0.1827,-0.187,-0.2016,-0.2115,-0.3396,-0.579,-0.8333,-0.8842,-0.7564,-0.7423,-0.6055,-0.386,-0.3692,-0.2967,-0.1907,-0.1851,0.0,0.0,0.0,0.0,0.0,0.0,0.0,0.0,0.0,0.0,0.0,0.0,0.0,-0.676,-0.5296,-0.5606,-0.631,-0.5966,-0.6075,-0.6289,-0.6127,-0.6146,-0.6312,-0.6671,-0.6577,-0.6198,-0.5503,-0.532,-0.5262,-0.5268,-0.5316,-0.5903,-0.7509,0.0,0.0,0.0,0.0,0.0,0.0,0.0,0.0,0.0,0.0,0.0,0.0,0.0,0.0,0.0,0.0,0.0,0.0,0.0,0.1977,0.1977,0.1977,0.1977,0.1976,0.1948,0.1752,0.1387,0.1404,0.1038,0.0403,0.0396,0.0225,0.0,0.0,0.0,0.0,0.0,0.0,0.0,0.0,0.0,0.0,0.0,0.0,0.0,0.0,0.0,0.0,0.0,0.0,0.0,0.0,0.0,0.0,0.0,0.0,0.0,0.0,0.0,0.0,0.0,-0.1275,-0.1458,-0.129,-0.1573,-0.1752,-0.1855,-0.1817,-0.1868,-0.2018,-0.282,-0.4121,-0.5856,-0.6679,-0.7232,-0.7432,-0.5803,-0.4472,-0.3471,-0.2787,-0.2229,-0.1823,-0.1787,0.0,0.0,0.0,0.0,0.0,0.0,0.0,0.0,0.0,-0.7513,-0.7634,-0.7197,-0.7174,-0.7165,-0.6422,-0.6338,-0.6391,-0.6119,-0.6167,-0.6306,-0.6259,-0.632,-0.6462,-0.6804,-0.6912,-0.6901,-0.6661,-0.661,-0.6583,-0.6583,0.0,-0.6918,0.0,0.0,0.0,0.0,0.0,0.0,0.0,0.0,0.0,0.0,0.0,0.0,0.0,0.0,0.0,0.0,0.0,0.0,0.0,0.0,0.1939,0.192,0.192,0.192,0.192,0.1928,0.1792,0.164,0.1504,0.1144,0.0679,0.0506,0.0224,0.0,0.0,0.0,0.0,0.0,0.0,0.0,0.0,0.0,0.0,0.0,0.0,0.0,0.0,0.0,0.0,0.0,0.0,0.0,0.0,0.0,0.0,0.0,0.0,0.0,0.0,0.0,0.0,-0.0635,-0.1032,-0.127,-0.116,-0.1519,-0.1757,-0.1781,-0.1802,-0.1854,-0.2005,-0.333,-0.4446,-0.5266,-0.5495,-0.5866,-0.6327,-0.4402,-0.3319,-0.2917,-0.1997,-0.1658,-0.1643,-0.156,-0.1319,0.0,0.0,0.0,0.0,0.0,0.0,0.0,0.0,-0.7102,-0.7587,-0.7682,-0.7573,-0.7324,-0.7103,-0.6819,-0.6518,-0.6256,-0.6208,-0.6309,-0.627,-0.6328,-0.6462,-0.6796,-0.6986,-0.7168,-0.7404,-0.7421,-0.7336,-0.7336,-0.7462,0.0,0.0,0.0,0.0,0.0,0.0,0.0,0.0,0.0,0.0,0.0,0.0,0.0,0.0,0.0,0.0,0.0,0.0,0.0,0.0,0.0,0.0,0.1886,0.1886,0.1881,0.1872,0.1892,0.1822,0.1782,0.1601,0.1304,0.0897,0.0673,0.0336,0.0,0.0,0.0,0.0,0.0,0.0,0.0,0.0,0.0,0.0,0.0,0.0,0.0,0.0,0.0,0.0,0.0,0.0,0.0,0.0,0.0,0.0,0.0,0.0,0.0,0.0,0.0,0.0,-0.0052,-0.0791,-0.1172,-0.0907,-0.1463,-0.1778,-0.1781,-0.1781,-0.1881,-0.1975,-0.3313,-0.3966,-0.391,-0.5027,-0.4931,-0.3811,-0.3571,-0.2866,-0.1792,-0.1431,-0.1311,-0.1259,-0.1002,-0.0715,-0.0426,0.0,0.0,0.0,0.0,0.0,0.0,0.0,-0.6322,-0.7083,-0.746,-0.7495,-0.7324,-0.7103,-0.7023,-0.6888,-0.6438,-0.6322,-0.6287,-0.6119,-0.6274,-0.6497,-0.6904,-0.6989,-0.7124,-0.7606,-0.7606,-0.7521,-0.7521,-0.7521,0.0,0.0,0.0,0.0,0.0,0.0,0.0,0.0,0.0,0.0,0.0,0.0,0.0,0.0,0.0,0.0,0.0,0.0,0.0,0.0,0.0,0.0,0.1885,0.1885,0.187,0.1782,0.1782,0.1782,0.1782,0.1808,0.1458,0.0897,0.0897,0.0561,0.0,0.0,0.0,0.0,0.0,0.0,0.0,0.0,0.0,0.0,0.0,0.0,0.0,0.0,0.0,0.0,0.0,0.0,0.0,0.0,0.0,0.0,0.0,0.0,0.0,0.0,0.0,0.0,0.0,-0.061,-0.0935,-0.0906,-0.143,-0.1726,-0.1807,-0.1812,-0.1836,-0.1881,-0.2327,-0.2973,-0.3842,-0.3284,-0.3234,-0.3682,-0.2728,-0.1983,-0.1462,-0.1345,-0.1189,-0.1039,-0.0934,-0.0707,-0.0426,0.0,0.0,0.0,0.0,0.0,0.0,0.0,0.0,0.0,-0.7266,-0.735,-0.737,-0.7328,-0.7066,-0.6722,-0.6451,-0.6345,-0.6309,-0.6273,-0.6524,-0.6874,-0.7117,-0.7171,-0.7342,-0.7739,-0.7728,-0.7646,-0.7646,-0.7646,0.0,0.0,0.0,0.0,0.0,0.0,0.0,0.0,0.0,0.0,0.0,0.0,0.0,0.0,0.0,0.0,0.0,0.0,0.0,0.0,0.0,0.0,0.1822,0.1822,0.1817,0.1808,0.1808,0.1808,0.1808,0.1799,0.157,0.1177,0.1009,0.0673,0.028,0.0056,0.0,0.0,0.0,0.0,0.0,0.0,0.0,0.0,0.0,0.0,0.0,0.0,0.0,0.0,0.0,0.0,0.0,0.0,-0.0264,-0.0159,0.0,0.0,0.0,0.0,0.0,0.0,0.0,-0.0393,-0.0703,-0.0886,-0.131,-0.1603,-0.1776,-0.1795,-0.1804,-0.1804,-0.1859,-0.227,-0.3014,-0.2243,-0.2266,-0.2892,-0.2016,-0.1513,-0.1279,-0.1058,-0.0849,-0.0697,-0.0594,-0.0429,-0.0263,0.0,0.0,0.0,0.0,0.0,0.0,0.0,0.0,0.0,-0.7063,-0.7213,-0.7292,-0.7265,-0.7001,-0.6713,-0.6541,-0.6452,-0.6407,-0.6407,-0.6733,-0.7108,-0.7323,-0.7429,-0.7554,-0.7818,-0.7741,-0.7644,-0.7693,-0.7622,0.0,0.0,0.0,0.0,0.0,0.0,0.0,0.0,0.0,0.0,0.0,0.0,0.0,0.0,0.0,0.0,0.0,0.0,0.0,0.0,0.0,0.0,0.1795,0.1795,0.1795,0.1795,0.1795,0.1795,0.1795,0.1795,0.1627,0.129,0.0897,0.0505,0.0224,0.0056,0.0,0.0,0.0,0.0,0.0,0.0,0.0,0.0,0.0,0.0,0.0,0.0,0.0,0.0,0.0,0.0,0.0,0.0,0.0,0.0,0.0,0.0,0.0,0.0,0.0,0.0,0.0,0.0,-0.0533,-0.0908,-0.1204,-0.1506,-0.1804,-0.1804,-0.1803,-0.18,-0.1832,-0.1844,-0.1787,-0.1789,-0.1772,-0.1735,-0.1424,-0.1258,-0.1165,-0.0625,-0.0362,-0.0363,-0.0105,0.0,0.0,0.0,0.0,0.0,0.0,0.0,0.0,0.0,0.0,0.0,-0.6874,-0.7061,-0.7098,-0.6999,-0.6913,-0.6771,-0.6636,-0.6562,-0.6605,-0.6616,-0.6899,-0.7317,-0.7606,-0.7684,-0.772,-0.7845,0.0,-0.757,-0.7682,0.0,0.0,0.0,0.0,0.0,0.0,0.0,0.0,0.0,0.0,0.0,0.0,0.0,0.0,0.0,0.0,0.0,0.0,0.0,0.0,0.0,0.0,0.0,0.1795,0.1795,0.1795,0.0,0.1795,0.1795,0.1795,0.1795,0.1627,0.1234,0.0673,0.028,0.0,0.0,0.0,0.0,0.0,0.0,0.0,0.0,0.0,0.0,0.0,0.0,0.0,0.0,0.0,0.0,0.0,0.0,0.0,0.0,0.0,0.0,0.0,0.0,0.0,0.0,0.0,0.0,0.0,0.0,-0.0573,-0.0907,-0.143,-0.1743,-0.1804,-0.1804,-0.1792,-0.1714,-0.1813,-0.176,-0.1724,-0.1748,-0.1611,-0.1338,-0.1313,-0.1046,-0.0561,-0.0451,-0.0301,-0.0102,0.0,0.0,0.0,0.0,0.0,0.0,0.0,0.0,0.0,0.0,0.0,0.0,-0.6293,-0.6908,-0.726,-0.6956,-0.6838,-0.6732,-0.6424,-0.6418,-0.6449,-0.6594,-0.6961,-0.7342,-0.7519,-0.7557,-0.7616,-0.7828,-0.7761,-0.7671,-0.7698,0.0,0.0,0.0,0.0,0.0,0.0,0.0,0.0,0.0,0.0,0.0,0.0,0.0,0.0,0.0,0.0,0.0,0.0,0.0,0.0,0.0,0.0,0.1795,0.1795,0.1795,0.1795,0.0,0.1795,0.1795,0.1795,0.1795,0.1514,0.0953,0.0841,0.0505,0.0,0.0,0.0,0.0,0.0,0.0,0.0,0.0,0.0,0.0,0.0,0.0,0.0,0.0,0.0,0.0,0.0,0.0,0.0,0.0,0.0,0.0,0.0,0.0,0.0,0.0,0.0,0.0,0.0,-0.0139,-0.043,-0.0868,-0.1336,-0.164,-0.1804,-0.179,-0.172,-0.1704,-0.176,-0.1752,-0.1685,-0.1783,-0.1596,-0.1213,-0.1133,-0.087,-0.0398,-0.0244,-0.0146,0.0,0.0,0.0,0.0,0.0,0.0,-0.0046,-0.0503,0.0,0.0,0.0,0.0,0.0,0.0,0.0,-0.6853,-0.6629,-0.6545,-0.6529,-0.6349,-0.6352,-0.6457,-0.6801,-0.7108,-0.7312,-0.7491,-0.7519,-0.7554,-0.7676,-0.7608,-0.7527,0.0,0.0,0.0,0.0,0.0,0.0,0.0,0.0,0.0,0.0,0.0,0.0,0.0,0.0,0.0,0.0,0.0,0.0,0.0,0.0,0.0,0.0,0.1795,0.1795,0.1795,0.1795,0.1795,0.1795,0.1795,0.1795,0.1795,0.1795,0.1458,0.0897,0.0897,0.0561,0.0,0.0,0.0,0.0,0.0,0.0,0.0,0.0,0.0,0.0,0.0,0.0,0.0,0.0,0.0,0.0,0.0,0.0,0.0,0.0,0.0,0.0,0.0,0.0,0.0,0.0,0.0,0.0,0.0,-0.0046,-0.0336,-0.0876,-0.1169,-0.1456,-0.178,-0.1702,-0.1686,-0.1681,-0.1663,-0.1709,-0.1715,-0.176,-0.1529,-0.1111,-0.096,-0.0699,-0.0293,-0.0096,0.0,0.0,0.0,0.0,0.0,0.0,0.0,-0.0091,-0.0893,-0.1156,-0.1338,-0.2492,0.0,0.0,0.0,0.0,-0.618,-0.6229,-0.6241,-0.6268,-0.6197,-0.6274,-0.6521,-0.7059,-0.7201,-0.7307,-0.7429,-0.7456,-0.7456,-0.7456,-0.7391,0.0,0.0,0.0,0.0,0.0,0.0,0.0,0.0,0.0,0.0,0.0,0.0,0.0,0.0,0.0,0.0,0.0,0.0,0.0,0.0,0.0,0.1458,0.1795,0.1795,0.1795,0.1795,0.1795,0.1795,0.1795,0.1795,0.1792,0.1787,0.1787,0.151,0.0953,0.0894,0.0558,0.0056,0.0,0.0,0.0,0.0,0.0,0.0,0.0,0.0,0.0,0.0,0.0,0.0,0.0,0.0,0.0,0.0,0.0,0.0,0.0,0.0,0.0,0.0,0.0,0.0,0.0,0.0,0.0,0.0,0.0,0.0,-0.0861,-0.1172,-0.1379,-0.1635,-0.163,-0.1615,-0.159,-0.1612,-0.1637,-0.1714,-0.1643,-0.1373,-0.0859,-0.0808,-0.0545,-0.0048,0.0,0.0,0.0,0.0,0.0,0.0,0.0,0.0,0.0,-0.0128,-0.0172,-0.035,-0.1309,-0.1897,0.0,0.0,0.0,0.0,-0.579,-0.61,-0.619,-0.5739,-0.5961,-0.6407,-0.6888,-0.7021,-0.7062,0.0,0.0,-0.7259,0.0,0.0,0.0,0.0,0.0,0.0,0.0,0.0,0.0,0.0,0.0,0.0,0.0,0.0,0.0,0.0,0.0,0.0,0.0,0.0,0.0,0.0,0.0504,0.1458,0.1795,0.1795,0.1795,0.1795,0.1795,0.1795,0.1795,0.1795,0.1781,0.181,0.181,0.1604,0.1233,0.0994,0.0713,0.0329,0.0108,0.0,0.0,0.0,0.0,0.0,0.0,0.0,0.0,0.0,0.0,0.0,0.0,0.0,0.0,0.0,0.0,0.0,0.0,0.0,0.0,0.0,0.0,0.0,0.0,0.0,0.0,0.0,-0.0094,0.0,0.0,-0.0854,-0.1156,-0.1393,-0.1541,-0.1577,-0.1546,-0.1413,-0.1392,-0.1431,-0.1217,-0.1022,-0.0833,-0.067,-0.0352,0.0,0.0,0.0,0.0,0.0,0.0,0.0,0.0,0.0,0.0,0.0,0.0,-0.0043,-0.0476,-0.1049,-0.1716,-0.2595,0.0,0.0,0.0,-0.5306,-0.567,-0.5006,-0.5576,-0.6126,-0.5239,-0.602,-0.6834,-0.6329,-0.6717,-0.721,0.0,0.0,0.0,0.0,0.0,0.0,0.0,0.0,0.0,0.0,0.0,0.0,0.0,0.0,0.0,0.0,0.0,0.0,0.0,0.0,0.0,-0.1902,0.0,0.129,0.1795,0.1795,0.0,0.1795,0.1795,0.1787,0.1825,0.1752,0.1737,0.1724,0.1724,0.1569,0.1307,0.1028,0.0701,0.0377,0.0107,0.0,0.0,0.0,0.0,0.0,0.0,0.0,0.0,0.0,0.0,0.0,0.0,0.0,0.0,0.0,0.0,0.0,0.0,0.0,0.0,0.0,0.0,0.0,0.0,0.0,0.0,0.0,0.0,0.0,0.0,0.0,-0.0933,-0.1162,-0.1444,-0.1482,-0.142,-0.1218,-0.1154,-0.1119,-0.081,-0.0725,-0.0756,-0.0526,-0.0254,0.0,0.0,0.0,0.0,0.0,0.0,0.0,0.0,0.0,0.0,0.0,0.0,0.0,0.0,-0.0477,-0.1078,-0.1344,0.0,0.0,0.0,0.0,-0.4941,-0.4717,-0.5418,-0.5828,-0.4474,-0.5294,-0.6272,0.0,0.0,0.0,0.0,0.0,0.0,0.0,0.0,0.0,0.0,0.0,0.0,0.0,0.0,0.0,0.0,0.0,0.0,0.0,0.0,0.0,0.0,0.0,0.0,-0.2236,-0.0224,0.1175,0.1784,0.1783,0.178,0.1772,0.1772,0.1761,0.1792,0.1715,0.17,0.1694,0.1694,0.1584,0.1367,0.1057,0.0742,0.0477,0.0158,0.0,0.0,0.0,0.0,0.0,0.0,0.0,0.0,0.0,0.0,0.0,0.0,0.0,0.0,0.0,0.0,0.0,0.0,0.0,0.0,0.0,0.0,0.0,0.0,0.0,0.0,0.0,0.0,0.0,0.0,0.0,0.0,-0.1114,-0.1321,-0.132,-0.1112,-0.1026,-0.0977,-0.0933,-0.056,-0.042,-0.0446,-0.0425,-0.0254,0.0,0.0,0.0,0.0,0.0,0.0,0.0,0.0,0.0,0.0,0.0,0.0,0.0,0.0,-0.0043,-0.0212,-0.1122,-0.1456,-0.1717,0.0,0.0,0.0,-0.5303,-0.5582,-0.5644,-0.6105,-0.555,-0.4951,0.0,0.0,0.0,0.0,0.0,0.0,0.0,0.0,0.0,0.0,0.0,0.0,0.0,0.0,0.0,0.0,0.0,0.0,0.0,0.0,0.0,0.0,0.0,0.0,-0.1063,0.0224,0.1169,0.1807,0.1807,0.1792,0.1709,0.1709,0.1708,0.1707,0.1705,0.169,0.1717,0.1717,0.1649,0.1572,0.1084,0.0884,0.0831,0.0255,0.0,0.0,0.0,0.0,0.0,0.0,0.0,0.0,0.0,0.0,0.0,0.0,0.0,0.0,0.0,0.0,0.0,0.0,0.0,0.0,0.0,0.0,0.0,0.0,0.0,0.0,0.0,0.0,0.0,0.0,0.0,0.0,-0.0816,-0.09,-0.0984,-0.1113,-0.0755,-0.0594,-0.058,-0.0295,-0.0151,-0.0155,-0.0156,-0.0103,0.0,0.0,0.0,0.0,0.0,0.0,0.0,0.0,0.0,0.0,0.0,0.0,0.0,0.0,0.0,-0.0043,-0.0384,-0.0889,-0.1501,-0.2325,-0.2817,-0.3174,-0.3534,-0.4185,-0.4616,-0.4143,-0.4905,-0.5626,-0.5054,0.0,0.0,0.0,0.0,0.0,0.0,0.0,0.0,0.0,0.0,0.0,0.0,0.0,0.0,0.0,0.0,0.0,0.0,0.0,0.0,0.0,0.0,0.0,-0.0936,0.0218,0.1137,0.1721,0.172,0.1715,0.1704,0.1686,0.1677,0.1677,0.1657,0.1643,0.1633,0.1633,0.1627,0.1567,0.1221,0.1071,0.102,0.0304,0.0101,0.0253,0.0051,0.0,0.0,0.0,0.0,0.0,0.0,0.0,0.0,0.0,0.0,0.0,0.0,0.0,0.0,0.0,0.0,0.0,0.0,0.0,0.0,0.0,0.0,0.0,0.0,0.0,0.0,0.0,0.0,0.0,-0.0583,-0.0668,-0.075,-0.087,-0.0525,-0.0313,-0.0278,-0.0095,0.0,0.0,0.0,0.0,0.0,0.0,0.0,0.0,0.0,0.0,0.0,0.0,0.0,0.0,0.0,0.0,0.0,0.0,0.0,0.0,0.0,-0.0377,-0.1021,-0.1857,-0.2173,-0.2282,-0.2488,-0.3154,-0.3625,0.0,0.0,-0.4892,-0.3963,0.0,0.0,0.0,0.0,0.0,0.0,0.0,0.0,0.0,0.0,0.0,0.0,0.0,0.0,0.0,0.0,0.0,0.0,0.0,0.0,0.0,0.0,0.0,-0.0325,0.0483,0.117,0.169,0.168,0.1675,0.1675,0.1656,0.1647,0.1647,0.1626,0.1617,0.1617,0.1617,0.1617,0.1566,0.1314,0.1212,0.1162,0.0404,0.0253,0.0354,0.0101,0.0,0.0,0.0,0.0,0.0,0.0,0.0,0.0,0.0,0.0,0.0,0.0,0.0,0.0047,0.0046,0.0,0.0,0.0,0.0,0.0,0.0,0.0,0.0,0.0,0.0,0.0,0.0,0.0,0.0,-0.0403,-0.0572,-0.0566,-0.0391,-0.0341,-0.0174,0.0,0.0,0.0,0.0,0.0,0.0,0.0,0.0,0.0,0.0,0.0,0.0,0.0,0.0,0.0,0.0,0.0,0.0,0.0,0.0,0.0,0.0,0.0,0.0,-0.0157,-0.1019,-0.1276,-0.1462,0.0,0.0,0.0,0.0,0.0,0.0,0.0,0.0,0.0,0.0,0.0,0.0,0.0,0.0,0.0,0.0,0.0,0.0,0.0,0.0,0.0,0.0,0.0,0.0,0.0,0.0,0.0,0.0,0.0,-0.0957,0.0799,0.0906,0.1163,0.1662,0.1633,0.1617,0.1617,0.1617,0.1617,0.1617,0.1617,0.1617,0.1617,0.1617,0.1617,0.1566,0.1314,0.1212,0.1162,0.0606,0.0404,0.0404,0.0101,0.0,0.0,0.0,0.0,0.0,0.0,0.0,0.0,0.0,0.0,0.2666,0.2894,0.1999,0.1276,0.0,0.0,0.0,0.0,0.0,0.0,0.0,0.0,0.0,0.0,0.0,0.0,0.0,-0.009,-0.018,-0.0403,-0.0268,-0.0263,-0.0383,-0.0172,-0.0043,0.0,0.0,0.0,0.0,0.0,0.0,0.0,0.0,0.0,0.0,0.0,0.0,0.0,0.0,0.0,0.0,0.0,0.0,0.0,0.0,0.0,0.0,0.0,0.0,-0.004,-0.0276,-0.0364,-0.054,-0.1427,0.0,0.0,0.0,0.0,0.0,0.0,0.0,0.0,0.0,0.0,0.0,0.0,0.0,0.0,0.0,0.0,0.0,0.0,0.0,0.0,0.0,0.0,0.0,0.0,0.0,0.0,0.0,-0.116,-0.0105,0.0785,0.1189,0.1484,0.163,0.1622,0.1617,0.1617,0.1617,0.1617,0.1617,0.1617,0.1617,0.1617,0.1617,0.1617,0.1617,0.1516,0.1364,0.1162,0.0606,0.0505,0.0657,0.0202,0.0,0.0,0.0,0.0,0.0,0.0,0.0,0.0,0.4211,0.3847,0.3621,0.3995,0.3139,0.225,0.0,0.0,0.0,0.0048,0.0,0.0,0.0,0.0,0.0,0.0,0.0,0.0,0.0,0.0,-0.009,-0.0224,-0.009,-0.0088,-0.0213,-0.0086,0.0,0.0,0.0,0.0,0.0,0.0,0.0,0.0,0.0,0.0,0.0,0.0,0.0,0.0,0.0,0.0,0.0,0.0,0.0,0.0,0.0,0.0,0.0,0.0,0.0,0.0,0.0,0.0,-0.0127,-0.0622,-0.0754,-0.0897,-0.1422,0.0,0.0,0.0,-0.2834,0.0,0.0,0.0,0.0,0.0,0.0,0.0,0.0,0.0,0.0,0.0,0.0,0.0,0.0,0.0,0.0,0.0,0.0,0.0,0.0,-0.0674,0.0257,0.077,0.1322,0.1617,0.1617,0.1617,0.1617,0.1617,0.1617,0.1617,0.1617,0.1617,0.1617,0.1617,0.1617,0.1617,0.1617,0.1617,0.1465,0.1162,0.0758,0.0606,0.0606,0.0152,0.0,0.0,0.0,0.0,0.0,0.0,0.0,0.4275,0.5247,0.4521,0.4126,0.5029,0.4286,0.3181,0.0,0.1862,0.1351,0.0297,0.0048,0.0,0.0,0.0,0.0,0.0,0.0,0.0,0.0,0.0,0.0,0.0,0.0,0.0,0.0,0.0,0.0,0.0,0.0,0.0,0.0,0.0,0.0,0.0,0.0,0.0,0.0,0.0,0.0,0.0,0.0,0.0,0.0,0.0,0.0,0.0,0.0,0.0,0.0,0.0,0.0,0.0,0.0,0.0,0.0,0.0,0.0,0.0,0.0,0.0,0.0,-0.0181,-0.1442,0.0,0.0,0.0,0.0,0.0,0.0,0.0,0.0,0.0,0.0,0.0,0.0,0.0,0.0,0.0,0.0,0.0,0.0,-0.1705,-0.1603,-0.056,0.0303,0.0758,0.1314,0.1617,0.1617,0.1617,0.1617,0.1617,0.1617,0.1617,0.1617,0.1617,0.1617,0.1617,0.1617,0.1617,0.1617,0.1617,0.1465,0.1162,0.0909,0.0657,0.0354,0.0101,0.0,0.0,0.0,0.0,0.0,0.0,0.6229,0.6406,0.6606,0.6472,0.6282,0.6287,0.5359,0.4553,0.4237,0.2685,0.1544,0.133,0.054,0.0,0.0,0.0,0.0,0.0,0.0,0.0,0.0,0.0,0.0,0.0,0.0,0.0,0.0,0.0,0.0,0.0,0.0,0.0,0.0,0.0,0.0,0.0,0.0,0.0,0.0,0.0,0.0,0.0,0.0,0.0,0.0,0.0,0.0,0.0,0.0,0.0,0.0,0.0,0.0,0.0,0.0,0.0,0.0,0.0,0.0,0.0,0.0,0.0,0.0,-0.0043,-0.0854,0.0,0.0,0.0,0.0,0.0,0.0,0.0,0.0,0.0,0.0,0.0,0.0,0.0,0.0,0.0,0.0,0.0,0.0,-0.1268,-0.0406,0.0253,0.0707,0.0808,0.1314,0.1617,0.1617,0.1617,0.1617,0.1617,0.1617,0.1617,0.1617,0.1617,0.1617,0.1617,0.1617,0.1617,0.1617,0.1617,0.1465,0.1162,0.0909,0.0657,0.0354,0.0101,0.0,0.0,0.0,0.0,0.0,0.67,0.6858,0.6967,0.6904,0.6842,0.676,0.6638,0.6151,0.5583,0.4965,0.3027,0.1692,0.1605,0.0652,0.0,0.0,0.0,0.0,0.0,0.0,0.0,0.0,0.0,0.0,0.0,0.0,0.0,0.0,0.0,0.0,0.0,0.0,0.0,0.0,0.0,0.0,0.0,0.0,0.0,0.0,0.0,0.0,0.0,0.0,0.0,0.0,0.0,0.0,0.0,0.0,0.0,0.0,0.0,0.0,0.0,0.0,0.0,0.0,0.0,0.0,0.0,0.0,0.0,0.0,0.0,-0.0348,-0.0517,0.0,0.0,0.0,0.0,0.0,0.0,0.0,0.0,0.0,0.0,0.0,0.0,0.0,0.0,0.0,0.0,0.0,-0.0555,-0.0051,0.0505,0.0808,0.0808,0.1314,0.1617,0.1617,0.1617,0.1617,0.1617,0.1617,0.1617,0.1617,0.212,0.212,0.1617,0.217,0.212,0.1617,0.1617,0.1465,0.1162,0.0909,0.0657,0.0354,0.0101,0.0,0.0,0.0,0.0,0.0,0.6548,0.6711,0.6817,0.6717,0.6635,0.6578,0.6554,0.657,0.6256,0.5402,0.3575,0.2358,0.2282,0.1271,0.0647,0.0683,0.0625,0.0518,0.0366,0.0318,0.0226,0.0,0.0,0.0,0.0,0.0,0.0,0.0,0.0,0.0,0.0,0.0,0.0,0.0,0.0,0.0,0.0,0.0,0.0,0.0,0.0,0.0,0.0,0.0,0.0,0.0,0.0,0.0,0.0,0.0,0.0,0.0,0.0,0.0,0.0,0.0,0.0,0.0,0.0,0.0,0.0,0.0,0.0,0.0,0.0,0.0,0.0,0.0,0.0,0.0,0.0,0.0,0.0,0.0,0.0,0.0,0.0,0.0,0.0,0.0,0.0,0.0,0.0,0.0,0.0,0.0,0.0452,0.0752,0.0808,0.1263,0.1566,0.1617,0.1617,0.1617,0.1617,0.1617,0.1614,0.1608,0.2658,0.2608,0.1658,0.2708,0.2612,0.1617,0.1617,0.1465,0.1263,0.0909,0.0657,0.0455,0.0101,0.0,0.0,0.0,0.0,0.0,0.6287,0.638,0.6396,0.638,0.6401,0.6423,0.6323,0.6393,0.6361,0.6271,0.5214,0.4482,0.4595,0.356,0.2952,0.319,0.2967,0.2487,0.1649,0.1502,0.1005,0.0045,0.0,0.0,0.0,0.0,0.0,0.0,0.0,0.0,0.0,0.0,0.0,0.0,0.0,0.0,0.0,0.0,0.0,0.0,0.0,0.0,0.0,0.0,0.0,0.0,0.0,0.0,0.0,0.0,0.0,0.0,0.0,0.0,0.0,0.0,0.0,0.0,0.0,0.0,0.0,0.0,0.0,0.0,0.0,0.0,0.0,0.0,0.0,0.0,0.0,0.0,0.0,0.0,0.0,0.0,0.0,0.0,0.0,0.0,0.0,0.0,0.0,0.0,0.0,0.0,0.0294,0.0536,0.0807,0.1061,0.1364,0.1617,0.1617,0.1617,0.1617,0.1617,0.1603,0.1626,0.2556,0.2508,0.1626,0.2605,0.2481,0.1617,0.1617,0.1566,0.1516,0.101,0.0758,0.0707,0.0202,0.0,0.0,0.0,0.0,0.0,0.6124,0.6268,0.6295,0.6173,0.62,0.6241,0.6314,0.6486,0.6624,0.65,0.5625,0.5074,0.5218,0.3464,0.2667,0.3656,0.284,0.2114,0.1813,0.1653,0.111,0.0047,0.0,0.0,0.0,0.0,0.0,0.0,0.0,0.0,0.0,0.0,0.0,0.0,0.0,0.0,0.0,0.0,0.0,0.0,0.0,0.0,0.0,0.0,0.0,0.0,0.0,0.0,0.0,0.0,0.0,0.0,0.0,0.0,0.0,0.0,0.0,0.0,0.0,0.0,0.0,0.0,0.0,0.0,0.0,0.0,0.0,0.0,0.0,0.0,0.0,0.0,0.0,0.0,0.0,0.0,0.0,0.0,0.0,0.0,0.0,0.0,0.0,0.0,0.0,0.0,0.0,0.0524,0.0793,0.1044,0.1299,0.1616,0.1617,0.1617,0.1617,0.1599,0.1584,0.162,0.3196,0.3082,0.1594,0.3178,0.3048,0.1565,0.1583,0.1591,0.1542,0.1006,0.0808,0.0758,0.0202,0.0,0.0,0.0,0.0,0.0,0.5956,0.6062,0.6094,0.6005,0.6015,0.6089,0.6292,0.6516,0.6671,0.6581,0.597,0.5606,0.5818,0.4141,0.3479,0.4656,0.3733,0.2959,0.2739,0.235,0.1744,0.0904,0.0321,0.0136,0.0416,0.0134,0.0,0.0,0.0,0.0,0.0,0.0,0.0,0.0,0.0,0.0,0.0,0.0,0.0,0.0,0.0,0.0,0.0,0.0,0.0,0.0,0.0,0.0,0.0,0.0,0.0,0.0,0.0,0.0,0.0,0.0,0.0,0.0,0.0,0.0,0.0,0.0,0.0,0.0,0.0,0.0,0.0,0.0,0.0,0.0,0.0,0.0,0.0,0.0,0.0,0.0,0.0,0.0,0.0,0.0,0.0,0.0,0.0,0.0,0.0,0.0,0.0,0.0,0.0778,0.0974,0.1225,0.1542,0.1592,0.1592,0.1592,0.157,0.1555,0.1595,0.3563,0.3443,0.156,0.3584,0.3407,0.148,0.1549,0.1559,0.1463,0.0989,0.0748,0.0651,0.02,0.0,0.0,0.0,0.0,0.0,0.5699,0.5702,0.5704,0.5702,0.5836,0.5991,0.6281,0.6372,0.6395,0.6392,0.6395,0.6532,0.6891,0.6765,0.6773,0.7174,0.6992,0.6328,0.5173,0.3992,0.3247,0.3093,0.11,0.0499,0.1523,0.0544,0.0,0.0,0.0,0.0,0.0,0.0,0.0,0.0,0.0,0.0,0.0,0.0,0.0,0.0,0.0,0.0,0.0,0.0,0.0,0.0,0.0,0.0,0.0,0.0,0.0,0.0,0.0,0.0,0.0,0.0,0.0,0.0,0.0,0.0,0.0,0.0,0.0,0.0,0.0,0.0,0.0,0.0,0.0,0.0,0.0,0.0,0.0,0.0,0.0,0.0,0.0,0.0,0.0,0.0,0.0,0.0,0.0,0.0,0.0,0.0,0.0,0.0,0.0761,0.0811,0.1003,0.1481,0.1481,0.1481,0.1481,0.148,0.1513,0.153,0.3417,0.3325,0.1574,0.3462,0.3267,0.1478,0.1479,0.1384,0.1193,0.0907,0.0628,0.0393,0.0098,0.0,0.0,0.0,0.0,0.0,0.5688,0.5688,0.5688,0.5688,0.5721,0.5871,0.6111,0.638,0.6616,0.6779,0.6798,0.6967,0.741,0.6534,0.6358,0.7493,0.6608,0.5862,0.5404,0.4224,0.3493,0.332,0.12,0.0515,0.1554,0.0548,0.0,0.0,0.0,0.0,0.0,0.0,0.0,0.0,0.0,0.0,0.0,0.0,0.0,0.0,0.0,0.0,0.0,0.0,0.0,0.0,0.0,0.0,0.0,0.0,0.0,0.0,0.0,0.0,0.0,0.0,0.0,0.0,0.0,0.0,0.0,0.0,0.0,0.0,0.0,0.0,0.0,0.0,0.0,0.0,0.0,0.0,0.0,0.0,0.0,0.0,0.0,0.0,0.0,0.0,0.0,0.0,0.0,0.0,0.0,0.0,0.0,0.0,0.0,0.0795,0.1034,0.1478,0.1478,0.1478,0.1478,0.1506,0.1491,0.1527,0.3412,0.3661,0.2491,0.3706,0.3629,0.2382,0.1765,0.1449,0.1357,0.0948,0.0766,0.0626,0.0193,0.0,0.0,0.0,0.0,0.0,0.5696,0.5688,0.5688,0.5688,0.5758,0.5909,0.6064,0.6426,0.6741,0.6899,0.6994,0.0,0.7592,0.0,0.6601,0.0,0.6845,0.6207,0.6058,0.4943,0.0,0.4551,0.2419,0.1688,0.2765,0.173,0.095,0.0571,0.0563,0.0386,0.0,0.0,0.0,0.0,0.0,0.0,0.0,0.0,0.0,0.0,0.0,0.0,0.0,0.0,0.0,0.0,0.0,0.0,0.0,0.0,0.0,0.0,0.0,0.0,0.0,0.0,0.0,0.0,0.0,0.0,0.0,0.0,0.0,0.0,0.0,0.0,0.0,0.0,0.0,0.0,0.0,0.0,0.0,0.0,0.0,0.0,0.0,0.0,0.0,0.0,0.0,0.0,0.0,0.0,0.0,0.0,0.0,0.0,0.0,0.0,0.0967,0.1447,0.1447,0.1447,0.1447,0.1474,0.1647,0.2012,0.3555,0.3978,0.3401,0.4022,0.3801,0.2825,0.1864,0.1373,0.1191,0.0882,0.0656,0.0472,0.0142,0.0,0.0,0.0,0.0,0.0,0.5718,0.5702,0.5704,0.5704,0.5937,0.6086,0.0,0.0,0.6798,0.0,0.7027,0.7266,0.7508,0.7535,0.7584,0.7701,0.7709,0.751,0.7043,0.6072,0.0,0.0,0.4556,0.3907,0.4974,0.3829,0.2706,0.1658,0.1657,0.1109,0.0087,0.0083,0.0041,0.0,0.0,0.0,0.0,0.0,0.005,0.0101,0.0101,0.0101,0.0151,0.0101,0.0,0.0051,0.0,0.0,0.0,0.0,0.0,0.0,0.0,0.0,0.0,0.0,0.0,0.0,0.0,0.0,0.0,0.0,0.0,0.0,0.0,0.0,0.0,0.0,0.0,0.0,0.0,0.0,0.0,0.0,0.0,0.0,0.0,0.0,0.0,0.0,0.0,0.0,0.0,0.0,0.0,0.0,0.0,0.0,0.0,0.0,0.0,0.1391,0.1389,0.1389,0.1391,0.1436,0.1973,0.2911,0.389,0.4378,0.4378,0.4378,0.3846,0.2911,0.1928,0.1211,0.0718,0.0718,0.0454,0.0046,0.0,0.0,0.0,0.0,0.0,0.0,0.5866,0.5931,0.5996,0.5996,0.6045,0.6116,0.0,0.0,0.0,0.0,0.7274,0.7516,0.7755,0.778,0.7793,0.7823,0.7828,0.0,0.0,0.0,0.0,0.6848,0.4627,0.391,0.4985,0.3734,0.291,0.2654,0.257,0.2055,0.1023,0.1039,0.0686,0.0,0.0,0.0,0.0,0.0,0.0441,0.1211,0.1211,0.1664,0.0,0.0,0.1211,0.111,0.0303,0.0,0.0,0.0,0.0,0.0,0.0,0.0,0.0,0.0,0.0,0.0,0.0,0.0,0.0,0.0,0.0,0.0,0.0,0.0,0.0,0.0,0.0,0.0,0.0,0.0,0.0,0.0,0.0,0.0,0.0,0.0,0.0,0.0,0.0,0.0,0.0,0.0,0.0,0.0,0.0,0.0,0.0,0.0,0.0,0.1388,0.1413,0.1412,0.139,0.2152,0.2644,0.2913,0.4559,0.5361,0.5361,0.5361,0.4825,0.3888,0.291,0.2016,0.1211,0.0852,0.063,0.0497,0.0136,0.0,0.0,0.0,0.0,0.0,0.5923,0.6083,0.6222,0.6173,0.0,0.0,0.642,0.6581,0.0,0.7172,0.7366,0.0,0.7701,0.7809,0.7872,0.7872,0.7872,0.0,0.7459,0.0,0.0,0.6997,0.5725,0.525,0.5779,0.501,0.0,0.3738,0.3699,0.3084,0.1989,0.2008,0.1719,0.1098,0.0,0.1013,0.0587,0.0662,0.1026,0.1644,0.2109,0.0,0.0,0.2519,0.2318,0.2167,0.1059,0.0404,0.0,0.0,0.0,0.0,0.0,0.0,0.0,0.0,0.0,0.0,0.0,0.0,0.0,0.0,0.0,0.0,0.0,0.0,0.0,0.0,0.0,0.0,0.0,0.0,0.0,0.0,0.0,0.0,0.0,0.0,0.0,0.0,0.0,0.0,0.0,0.0,0.0,0.0,0.0,0.0,0.0,0.0,0.0,0.1352,0.1393,0.1398,0.1415,0.2409,0.309,0.3534,0.5006,0.5897,0.6296,0.5897,0.5184,0.4245,0.3312,0.2285,0.1256,0.0987,0.0762,0.0538,0.0135,0.0,0.0,0.0,0.0,0.0,0.5994,0.6225,0.6423,0.0,0.0,0.0,0.0,0.6793,0.0,0.7229,0.0,0.7565,0.7565,0.7747,0.7872,0.7872,0.0,0.7725,0.7325,0.7459,0.7366,0.7021,0.6994,0.6929,0.6804,0.6665,0.6027,0.0,0.4881,0.4185,0.2905,0.2993,0.2885,0.0,0.0,0.0,0.0,0.1712,0.1864,0.2117,0.3053,0.3475,0.3624,0.3475,0.3425,0.3274,0.2217,0.111,0.0202,0.0051,0.0,0.0,0.0,0.0,0.0,0.0,0.0,0.0,0.0,0.0,0.0,0.0,0.0,0.0,0.0,0.0,0.0,0.0,0.0097,0.0,0.0,0.0,0.0,0.0,0.0,0.0,0.0,0.0,0.0,0.0,0.0,0.0,0.0,0.0,0.0,0.0,0.0,0.0,0.0,0.0,0.0,0.0,0.15,0.0,0.139,0.0,0.3624,0.4334,0.5359,0.6296,0.7051,0.6251,0.5361,0.4423,0.3491,0.2419,0.1345,0.1166,0.0807,0.0359,0.0135,0.0045,0.0,0.0,0.0,0.0,0.6259,0.6412,0.6548,0.0,0.0,0.6861,0.7089,0.7163,0.7293,0.7437,0.766,0.7809,0.7809,0.7845,0.7872,0.7872,0.7872,0.0,0.0,0.0,0.0,0.7191,0.7035,0.6929,0.6804,0.6584,0.6243,0.5847,0.5751,0.5075,0.3858,0.3858,0.3464,0.0,0.0,0.0,0.272,0.2755,0.0,0.426,0.4425,0.5033,0.5732,0.4832,0.4533,0.4381,0.3324,0.2217,0.116,0.0303,0.0,0.0,0.0,0.0,0.0,0.0,0.0,0.0,0.0,0.0,0.0,0.0,0.0,0.0,0.0,0.0,0.0,0.0,0.0701,0.1343,0.1326,0.0,0.0,0.0,0.0,0.0,0.0,0.0,0.0,0.0,0.0,0.0,0.0,0.0,0.0,0.0,0.0,0.0,0.0,0.0,0.0,0.0,0.0,0.0,0.0,0.0,0.0,0.4334,0.6027,0.6962,0.7095,0.6918,0.634,0.5406,0.4467,0.3489,0.2509,0.1524,0.0807,0.0403,0.0359,0.018,0.0,0.0,0.0,0.0,0.6782,0.6838,0.6868,0.6719,0.0,0.0,0.0,0.7497,0.0,0.7527,0.7616,0.7687,0.7687,0.7799,0.7872,0.7872,0.7872,0.7771,0.7535,0.7519,0.741,0.7221,0.7158,0.7018,0.6899,0.6719,0.648,0.6181,0.6056,0.5583,0.4775,0.483,0.4513,0.3961,0.0,0.357,0.0,0.0,0.0,0.4868,0.5413,0.5937,0.6337,0.5834,0.5636,0.5484,0.4431,0.3676,0.3073,0.2016,0.1664,0.1664,0.1664,0.1664,0.1664,0.1664,0.1664,0.1664,0.1664,0.1664,0.1664,0.1664,0.1664,0.1664,0.1664,0.1664,0.1664,0.1664,0.2066,0.2397,0.2328,0.1869,0.0,0.0,0.0,0.0,0.0,0.0,0.0,0.0,0.0,0.0,0.0,0.0,0.0,0.0,0.0,0.0,0.0,0.0,0.0,0.0,0.0,0.0,0.0,0.0,0.0,0.5048,0.6428,0.7095,0.7095,0.7095,0.6605,0.5675,0.5225,0.4202,0.2823,0.1613,0.0987,0.0762,0.0628,0.0404,0.0224,0.0224,0.0136,0.0,0.7293,0.7228,0.0,0.0,0.7217,0.0,0.7505,0.772,0.7804,0.7616,0.7592,0.7592,0.7592,0.7761,0.7872,0.7872,0.7847,0.7744,0.7532,0.7494,0.7383,0.7221,0.721,0.7155,0.6989,0.6866,0.6638,0.0,0.6157,0.5866,0.5447,0.5475,0.0,0.0,0.0,0.0,0.0,0.0,0.5078,0.5223,0.6051,0.6387,0.6387,0.6387,0.6387,0.6284,0.5436,0.5135,0.5035,0.4178,0.3574,0.3224,0.3224,0.3224,0.3224,0.3224,0.3224,0.3224,0.3224,0.3224,0.3224,0.3224,0.3224,0.3224,0.3272,0.3272,0.327,0.3256,0.3343,0.3446,0.3327,0.2625,0.0,0.0,0.0,0.0,0.0,0.0,0.0,0.0,0.0,0.0,0.0,0.0,0.0,0.0,0.0,0.0,0.0869,0.1663,0.0,0.0,0.0,0.0,0.3954,0.0,0.5759,0.0,0.6637,0.7095,0.7095,0.7095,0.6697,0.5985,0.5808,0.465,0.2823,0.1658,0.1121,0.1076,0.0852,0.0673,0.0448,0.0448,0.0314,0.0135,0.0,0.0,0.0,0.0,0.0,0.0,0.0,0.772,0.7861,0.7842,0.7839,0.7839,0.7839,0.7858,0.7872,0.7872,0.7777,0.766,0.7527,0.7415,0.7293,0.7215,0.721,0.7155,0.6989,0.6866,0.6676,0.0,0.0,0.5953,0.5653,0.5553,0.0,0.0,0.0,0.0,0.0,0.6101,0.617,0.6271,0.6381,0.6387,0.6387,0.6387,0.6387,0.6387,0.6284,0.6237,0.6237,0.6134,0.4828,0.3224,0.3224,0.3224,0.3224,0.3224,0.3224,0.3224,0.3224,0.3224,0.3224,0.3224,0.3224,0.3272,0.3521,0.3571,0.3503,0.3393,0.3916,0.4366,0.4364,0.4286,0.3609,0.0,0.0,0.0,0.0,0.0,0.186,0.2753,0.0,0.0,0.0,0.0,0.0,0.0,0.0,0.0,0.0,0.2378,0.0,0.3673,0.0,0.4499,0.382,0.5765,0.0,0.5513,0.659,0.7095,0.7095,0.7095,0.7051,0.6918,0.6074,0.465,0.2823,0.1793,0.1256,0.1076,0.1076,0.0897,0.0673,0.0673,0.0673,0.0628,0.0,0.0,0.0,0.0,0.0,0.0,0.0,0.7997,0.8119,0.7933,0.7872,0.7872,0.7872,0.7872,0.7872,0.7872,0.7766,0.7649,0.7527,0.7347,0.7282,0.7215,0.721,0.7188,0.7144,0.6899,0.6717,0.0,0.0,0.6072,0.5833,0.5784,0.0,0.0,0.0,0.6081,0.6246,0.6295,0.6333,0.6387,0.6387,0.6387,0.6387,0.6387,0.6387,0.6387,0.6387,0.6487,0.6639,0.6639,0.6087,0.5334,0.5181,0.5231,0.5334,0.5181,0.5231,0.5384,0.5384,0.5482,0.5579,0.5579,0.5579,0.5629,0.5729,0.5681,0.5625,0.5582,0.5673,0.5724,0.5591,0.5022,0.4424,0.0,0.0,0.0,0.0,0.0,0.0,0.4388,0.0,0.3591,0.0,0.0,0.0,0.0,0.0,0.0,0.0,0.0,0.0,0.4206,0.0,0.5628,0.5419,0.6263,0.6534,0.6362,0.6767,0.7014,0.7095,0.7095,0.7095,0.7051,0.6118,0.5275,0.4472,0.2911,0.224,0.2106,0.1524,0.1121,0.0942,0.0942,0.0852,0.0718,0.8971,0.0,0.8442,0.0,0.8334,0.8275,0.8213,0.8366,0.8488,0.8238,0.8177,0.8116,0.7933,0.7872,0.7872,0.7872,0.7733,0.7611,0.7524,0.7369,0.7244,0.7215,0.721,0.0,0.721,0.6959,0.6796,0.6673,0.6434,0.0,0.601,0.0,0.0,0.0,0.6083,0.6187,0.632,0.6304,0.6413,0.6539,0.6539,0.6587,0.6637,0.6637,0.6587,0.6539,0.6539,0.6589,0.6692,0.6792,0.6845,0.6892,0.6686,0.6789,0.6892,0.6686,0.6789,0.6942,0.6942,0.7042,0.7188,0.7188,0.7188,0.7238,0.7291,0.7236,0.7073,0.6993,0.674,0.6485,0.6355,0.5687,0.5228,0.0,0.0,0.0,0.0,0.0,0.0,0.0,0.5118,0.4761,0.4358,0.0,0.0,0.0,0.0,0.0,0.0,0.0,0.0,0.0,0.0,0.0,0.0,0.0,0.6647,0.6861,0.6906,0.7001,0.7095,0.7095,0.7095,0.7051,0.6118,0.5719,0.5586,0.3979,0.3133,0.2822,0.2107,0.1569,0.1166,0.1166,0.1076,0.0897,0.909,0.8882,0.8749,0.8888,0.8912,0.8912,0.8915,0.8915,0.8915,0.8915,0.8915,0.861,0.7994,0.7872,0.7872,0.7872,0.7657,0.7521,0.7519,0.7293,0.7213,0.0,0.0,0.721,0.721,0.7043,0.6923,0.6798,0.0,0.0,0.6311,0.0,0.6083,0.6089,0.6259,0.6317,0.6325,0.6388,0.6537,0.6795,0.6795,0.6942,0.7188,0.7188,0.7039,0.6795,0.6795,0.6639,0.6437,0.6692,0.6992,0.7188,0.7188,0.7188,0.7188,0.7188,0.7188,0.7188,0.7188,0.7188,0.7188,0.7188,0.7188,0.7288,0.7543,0.7484,0.7302,0.7073,0.667,0.6387,0.6387,0.6387,0.6071,0.5176,0.0,0.0,0.0,0.0,0.0,0.5419,0.4494,0.4265,0.5379,0.0,0.0,0.0,0.0,0.0,0.0,0.0,0.0,0.6254,0.6022,0.0,0.6303,0.6552,0.6698,0.6709,0.6953,0.7095,0.7095,0.7095,0.7095,0.7051,0.6118,0.5719,0.563,0.469,0.3757,0.2911,0.2867,0.2285,0.1391,0.1391,0.1391,0.1391,0.956,0.9328,0.9102,0.9147,0.9156,0.9095,0.8915,0.9034,0.9095,0.8915,0.8915,0.8793,0.8607,0.8366,0.8119,0.0,0.7655,0.7519,0.0,0.7463,0.7493,0.7493,0.7657,0.7768,0.7768,0.7641,0.7609,0.7565,0.0,0.0,0.0,0.6927,0.6868,0.6868,0.6912,0.693,0.6933,0.6921,0.6989,0.7089,0.7089,0.7138,0.7188,0.7188,0.7138,0.7089,0.7089,0.7141,0.7241,0.7294,0.7543,0.7739,0.7739,0.764,0.7444,0.7238,0.7341,0.7494,0.7494,0.7593,0.7739,0.7739,0.7739,0.7789,0.7842,0.7702,0.7469,0.7322,0.7068,0.683,0.67,0.6659,0.6523,0.6027,0.0,0.0,0.0,0.0,0.0,0.0,0.545,0.5269,0.0,0.5231,0.0,0.0,0.0,0.0,0.0,0.0,0.0,0.0,0.6088,0.0,0.6443,0.6538,0.6651,0.6858,0.691,0.7004,0.7095,0.7095,0.7095,0.7095,0.6786,0.665,0.6561,0.5628,0.5095,0.4739,0.4113,0.3666,0.3398,0.3398,0.2953,0.2419,0.9822,0.964,0.9518,0.9518,0.9518,0.9457,0.9278,0.94,0.9441,0.9211,0.9188,0.9198,0.9023,0.8821,0.0,0.8302,0.8011,0.7863,0.7863,0.7802,0.7771,0.7771,0.7934,0.7989,0.7989,0.0,0.0,0.7894,0.7716,0.758,0.7494,0.7302,0.7188,0.7188,0.7188,0.7188,0.7188,0.7188,0.7238,0.7341,0.7341,0.7388,0.7487,0.7487,0.7441,0.7341,0.7341,0.7391,0.7444,0.7547,0.7693,0.7892,0.7992,0.7892,0.7693,0.754,0.764,0.7743,0.7743,0.7892,0.7988,0.7988,0.7988,0.7975,0.7917,0.7811,0.7638,0.7489,0.7333,0.7183,0.7052,0.6961,0.6877,0.6697,0.0,0.6634,0.6493,0.0,0.0,0.0,0.0,0.0,0.0,0.5672,0.0,0.0,0.0,0.0,0.0,0.0,0.0,0.5998,0.621,0.0,0.6511,0.6569,0.6681,0.6886,0.694,0.7011,0.7095,0.7095,0.7095,0.7095,0.7095,0.7095,0.7051,0.6473,0.603,0.563,0.5048,0.4601,0.4289,0.4289,0.3933,0.3444,0.9822,0.9822,0.0,0.0,0.9822,0.0,0.9822,0.9822,0.9774,0.9642,0.9741,0.9647,0.9208,0.9255,0.9217,0.8976,0.0,0.0,0.0,0.8201,0.8054,0.8045,0.8054,0.0,0.8045,0.8045,0.8039,0.7963,0.7703,0.7576,0.7573,0.738,0.7266,0.7266,0.7266,0.726,0.7253,0.731,0.7409,0.7646,0.7656,0.7802,0.7988,0.7988,0.7842,0.7646,0.7646,0.749,0.7288,0.7543,0.7646,0.7696,0.7942,0.7988,0.7988,0.7988,0.7988,0.7988,0.7988,0.7988,0.7988,0.7988,0.7988,0.7951,0.7862,0.7818,0.7773,0.7641,0.7492,0.7429,0.7419,0.7255,0.7109,0.7098,0.7095,0.7001,0.6681,0.0,0.0,0.0,0.0,0.0,0.0,0.5941,0.6015,0.0,0.0,0.0,0.0,0.0,0.5998,0.631,0.6313,0.6388,0.6542,0.6644,0.6793,0.6903,0.7034,0.7095,0.7095,0.7095,0.7095,0.7095,0.7095,0.7095,0.7095,0.7095,0.6605,0.5808,0.5808,0.527,0.4512,0.4512,0.4467,0.4378,0.0,0.0,0.9822,0.9822,0.9822,0.9822,0.9822,0.9822,0.9808,0.9774,0.9798,0.9748,0.965,0.9677,0.964,0.9579,0.8835,0.8384,0.8384,0.846,0.8488,0.838,0.8703,0.8825,0.8663,0.8716,0.8699,0.8663,0.8481,0.8391,0.8388,0.8239,0.8166,0.8166,0.8166,0.811,0.8069,0.8123,0.8092,0.7902,0.8069,0.8096,0.7988,0.7988,0.7942,0.7892,0.7892,0.7889,0.7839,0.7889,0.7892,0.7942,0.7992,0.7988,0.7988,0.7988,0.7988,0.7988,0.7988,0.7988,0.7988,0.7988,0.7988,0.7982,0.7944,0.7896,0.7801,0.777,0.7645,0.7509,0.7439,0.7343,0.7278,0.7115,0.7095,0.7048,0.686,0.6743,0.0,0.0,0.6258,0.6181,0.6222,0.6219,0.6172,0.0,0.0,0.0,0.0,0.0,0.6271,0.6457,0.6463,0.6552,0.6817,0.6858,0.6903,0.7048,0.7082,0.7095,0.7095,0.7095,0.7095,0.7095,0.7095,0.7095,0.7095,0.7095,0.6962,0.6786,0.6786,0.665,0.6425,0.6425,0.5983,0.5361,0.9822,0.9822,0.9822,0.9822,0.9822,0.9822,0.9822,0.9822,0.9798,0.9734,0.9781,0.9795,0.973,0.9781,0.9822,0.9822,0.9255,0.8922,0.8855,0.8892,0.8864,0.8663,0.89,0.9018,0.8885,0.8885,0.8885,0.8885,0.8784,0.871,0.8706,0.8554,0.8482,0.8482,0.8482,0.8438,0.8374,0.8448,0.8387,0.8248,0.8333,0.8316,0.8241,0.8241,0.8241,0.8241,0.8241,0.8201,0.8143,0.8143,0.8099,0.7988,0.7988,0.7988,0.7988,0.7988,0.7988,0.7988,0.7988,0.7988,0.7988,0.7988,0.7988,0.7988,0.7988,0.7924,0.7916,0.7916,0.7797,0.7651,0.7502,0.7417,0.7319,0.7122,0.7041,0.695,0.6844,0.6695,0.0,0.6521,0.6443,0.6426,0.6494,0.6501,0.6396,0.6244,0.0,0.0,0.6142,0.6317,0.6433,0.6511,0.6511,0.662,0.6883,0.695,0.7021,0.7095,0.7095,0.7095,0.7095,0.7095,0.7095,0.7095,0.7095,0.7095,0.7095,0.7095,0.7095,0.7095,0.7095,0.7095,0.7095,0.7095,0.6786,0.634,0.9822,0.9822,0.9822,0.9822,0.9822,0.9822,0.9822,0.9822,0.9778,0.9656,0.9747,0.9774,0.9656,0.9747,0.9822,0.9822,0.971,0.9568,0.9391,0.934,0.9147,0.8977,0.8939,0.8939,0.8971,0.8895,0.8885,0.8885,0.8808,0.8747,0.8743,0.8611,0.855,0.855,0.855,0.8537,0.8516,0.854,0.8523,0.8482,0.8506,0.8503,0.8482,0.8482,0.8482,0.8482,0.8482,0.8404,0.8354,0.8354,0.8201,0.8025,0.8025,0.8008,0.7988,0.7988,0.7988,0.7988,0.7988,0.7988,0.7988,0.7988,0.7988,0.7988,0.7988,0.7988,0.7988,0.7988,0.7887,0.7801,0.7658,0.7509,0.7356,0.7156,0.6994,0.6832,0.6722,0.0,0.6538,0.6515,0.6532,0.6559,0.6688,0.6702,0.6647,0.6555,0.6549,0.0,0.0,0.648,0.6559,0.6539,0.6539,0.6675,0.6916,0.7038,0.7095,0.7095,0.7095,0.7095,0.7095,0.7095,0.7095,0.7095,0.7095,0.7095,0.7095,0.7095,0.7095,0.7095,0.7095,0.7095,0.7095,0.7095,0.7095,0.7095,0.9822,0.9822,0.9822,0.9822,0.9822,0.9822,0.9822,0.9822,0.9815,0.9791,0.9805,0.9812,0.9791,0.9808,0.9822,0.9822,0.9802,0.9673,0.9398,0.9479,0.9412,0.9187,0.9242,0.9252,0.918,0.9001,0.8885,0.8885,0.8858,0.8848,0.8848,0.8824,0.8814,0.8814,0.8814,0.8798,0.8682,0.8811,0.872,0.8492,0.8621,0.8598,0.8482,0.8482,0.8482,0.8482,0.8482,0.8469,0.8448,0.8448,0.8353,0.8235,0.8235,0.8143,0.7988,0.7988,0.7988,0.7988,0.7988,0.7988,0.7988,0.7988,0.7988,0.7988,0.7988,0.7988,0.7988,0.7988,0.7971,0.7911,0.7804,0.7662,0.7512,0.736,0.7109,0.6832,0.0,0.0,0.6617,0.6528,0.6586,0.6675,0.6698,0.6702,0.6692,0.6668,0.6664,0.6654,0.6634,0.6654,0.6725,0.6854,0.6858,0.6896,0.7061,0.7085,0.7095,0.7095,0.7095,0.7095,0.7095,0.7095,0.7095,0.7095,0.7095,0.7095,0.7095,0.7095,0.7095,0.7095,0.7095,0.7095,0.7095,0.7095,0.7095,0.7095,0.9822,0.9822,0.9822,0.9822,0.9822,0.9822,0.9822,0.9822,0.9822,0.9822,0.9822,0.9822,0.9822,0.9822,0.9822,0.9822,0.9822,0.973,0.9517,0.9571,0.951,0.9344,0.9344,0.931,0.9214,0.9011,0.8885,0.8885,0.8885,0.8885,0.8885,0.8885,0.8885,0.8885,0.8885,0.8844,0.8838,0.8854,0.8804,0.8733,0.8804,0.8791,0.8726,0.8726,0.8726,0.8726,0.8726,0.8676,0.8604,0.8604,0.8455,0.8323,0.8323,0.8163,0.7988,0.7988,0.7988,0.7988,0.7988,0.7988,0.7988,0.7988,0.7988,0.7988,0.7988,0.7988,0.7988,0.7988,0.7988,0.7941,0.7838,0.7695,0.755,0.7443,0.7054,0.0,0.0,0.6681,0.6614,0.6709,0.678,0.6854,0.6929,0.6896,0.6905,0.6827,0.6824,0.6787,0.6705,0.678,0.6854,0.6883,0.696,0.7031,0.7095,0.7095,0.7095,0.7095,0.7095,0.7095,0.7095,0.7095,0.7095,0.7095,0.7095,0.7095,0.7095,0.7095,0.7095,0.7095,0.7095,0.7095,0.7095,0.7095,0.7095,0.7095,0.9822,0.9822,0.9822,0.9822,0.9822,0.9822,0.9822,0.9822,0.9822,0.9822,0.9822,0.9822,0.9822,0.9822,0.9822,0.9822,0.9822,0.9774,0.9666,0.9659,0.9591,0.9442,0.9401,0.931,0.9214,0.9011,0.8885,0.8885,0.8885,0.8885,0.8885,0.8885,0.8885,0.8885,0.8885,0.8885,0.8885,0.8885,0.8885,0.8885,0.8885,0.8885,0.8885,0.8885,0.8885,0.8885,0.8885,0.8807,0.8764,0.8764,0.8587,0.8367,0.833,0.8238,0.8076,0.8008,0.7988,0.7988,0.7988,0.7988,0.7988,0.7988,0.7988,0.7988,0.7988,0.7988,0.7988,0.7988,0.7988,0.7955,0.7885,0.7746,0.76,0.7448,0.0,0.0,0.0,0.6725,0.6664,0.6859,0.6916,0.6977,0.7085,0.7095,0.7051,0.6943,0.6933,0.6883,0.681,0.6873,0.6933,0.6933,0.7041,0.7095,0.7095,0.7095,0.7095,0.7095,0.7095,0.7095,0.7095,0.7095,0.7095,0.7095,0.7095,0.7095,0.7095,0.7095,0.7095,0.7095,0.7095,0.7095,0.7095,0.7095,0.7095,0.7095,0.9822,0.9822,0.9822,0.9822,0.9822,0.9822,0.9822,0.9822,0.9822,0.9822,0.9822,0.9822,0.9822,0.9822,0.9822,0.9822,0.9822,0.9815,0.9805,0.9805,0.9741,0.9598,0.9456,0.931,0.9214,0.9011,0.8885,0.8885,0.8885,0.8885,0.8885,0.8885,0.8885,0.8885,0.8885,0.8885,0.8885,0.8885,0.8885,0.8885,0.8885,0.8885,0.8885,0.8885,0.8885,0.8885,0.8885,0.8875,0.8865,0.8865,0.8815,0.8652,0.8513,0.8459,0.8394,0.8069,0.7988,0.7988,0.7988,0.7988,0.7988,0.7988,0.7988,0.7988,0.7988,0.7988,0.7988,0.7988,0.7988,0.7985,0.7975,0.7899,0.775,0.7607,0.0,0.0,0.6903,0.6866,0.6862,0.6883,0.7001,0.7085,0.7095,0.7095,0.7092,0.7082,0.7082,0.7075,0.7065,0.7075,0.7082,0.7082,0.7092,0.7095,0.7095,0.7095,0.7095,0.7095,0.7095,0.7095,0.7095,0.7095,0.7095,0.7095,0.7095,0.7095,0.7095,0.7095,0.7095,0.7095,0.7095,0.7095,0.7095,0.7095,0.7095,0.7095,0.9822,0.9822,0.9822,0.9822,0.9822,0.9822,0.9822,0.9822,0.9822,0.9822,0.9822,0.9822,0.9822,0.9822,0.9822,0.9822,0.9822,0.9822,0.9822,0.9822,0.9795,0.9744,0.9602,0.9496,0.9439,0.9195,0.9069,0.9069,0.8981,0.8885,0.8885,0.8885,0.8885,0.8885,0.8885,0.8885,0.8885,0.8885,0.8885,0.8885,0.8885,0.8885,0.8885,0.8885,0.8885,0.8885,0.8885,0.8885,0.8885,0.8885,0.8835,0.8699,0.8642,0.856,0.8442,0.8241,0.8113,0.7988,0.7988,0.7988,0.7988,0.7988,0.7988,0.7988,0.7988,0.7988,0.7988,0.7988,0.7988,0.7988,0.7988,0.7867,0.7767,0.7624,0.0,0.7078,0.7024,0.694,0.692,0.7004,0.7061,0.7095,0.7095,0.7095,0.7095,0.7095,0.7095,0.7095,0.7095,0.7095,0.7095,0.7095,0.7095,0.7095,0.7095,0.7095,0.7095,0.7095,0.7095,0.7095,0.7095,0.7095,0.7095,0.7095,0.7095,0.7095,0.7095,0.7095,0.7095,0.7095,0.7095,0.7095,0.7095,0.7095,0.7095,0.7095,0.9822,0.9822,0.9822,0.9822,0.9822,0.9822,0.9822,0.9822,0.9822,0.9822,0.9822,0.9822,0.9822,0.9822,0.9822,0.9822,0.9822,0.9822,0.9822,0.9822,0.9822,0.9822,0.9686,0.9608,0.9608,0.9357,0.9258,0.921,0.9055,0.8984,0.8885,0.8885,0.8885,0.8885,0.8885,0.8885,0.8885,0.8885,0.8885,0.8885,0.8885,0.8885,0.8885,0.8885,0.8885,0.8885,0.8885,0.8885,0.8885,0.8885,0.8814,0.8774,0.8726,0.8604,0.8462,0.8367,0.8228,0.8102,0.8002,0.7988,0.7988,0.7988,0.7988,0.7988,0.7988,0.7988,0.7988,0.7988,0.7988,0.7988,0.7988,0.7904,0.7834,0.7689,0.7451,0.7223,0.7221,0.7045,0.6987,0.7085,0.7095,0.7095,0.7095,0.7095,0.7095,0.7095,0.7095,0.7095,0.7095,0.7095,0.7095,0.7095,0.7095,0.7095,0.7095,0.7095,0.7095,0.7095,0.7095,0.7095,0.7095,0.7095,0.7095,0.7095,0.7095,0.7095,0.7095,0.7095,0.7095,0.7095,0.7095,0.7095,0.7095,0.7095,0.7095,0.7095,0.9822,0.9822,0.9822,0.9822,0.9822,0.9822,0.9822,0.9822,0.9822,0.9822,0.9822,0.9822,0.9822,0.9822,0.9822,0.9822,0.9822,0.9822,0.9822,0.9822,0.9822,0.9822,0.9686,0.9612,0.9612,0.9462,0.931,0.9214,0.921,0.9083,0.8885,0.8885,0.8885,0.8885,0.8885,0.8885,0.8885,0.8885,0.8885,0.8885,0.8885,0.8885,0.8885,0.8885,0.8885,0.8885,0.8885,0.8885,0.8885,0.8885,0.8885,0.8858,0.876,0.8608,0.8482,0.8482,0.8384,0.8238,0.8032,0.7992,0.7988,0.7988,0.7988,0.7988,0.7988,0.7988,0.7988,0.7988,0.7988,0.7988,0.7988,0.7988,0.7938,0.7834,0.7692,0.7546,0.7439,0.7241,0.7098,0.7095,0.7095,0.7095,0.7095,0.7095,0.7095,0.7095,0.7095,0.7095,0.7095,0.7095,0.7095,0.7095,0.7095,0.7095,0.7095,0.7095,0.7095,0.7095,0.7095,0.7095,0.7095,0.7095,0.7095,0.7095,0.7095,0.7095,0.7095,0.7095,0.7095,0.7095,0.7095,0.7095,0.7095,0.7095,0.7095,0.7095,0.9822,0.9822,0.9822,0.9822,0.9822,0.9822,0.9822,0.9822,0.9822,0.9822,0.9822,0.9822,0.9822,0.9822,0.9822,0.9822,0.9822,0.9822,0.9822,0.9822,0.9822,0.9822,0.9781,0.9758,0.9758,0.9615,0.9517,0.9473,0.9364,0.9235,0.9089,0.9089,0.9035,0.8885,0.8885,0.8885,0.8885,0.8885,0.8885,0.8885,0.8885,0.8885,0.8885,0.8885,0.8885,0.8885,0.8885,0.8885,0.8885,0.8885,0.8885,0.8875,0.8828,0.8764,0.8642,0.8642,0.8465,0.831,0.8214,0.8123,0.7988,0.7988,0.7988,0.7988,0.7988,0.7988,0.7988,0.7988,0.7988,0.7988,0.7988,0.7988,0.7938,0.7834,0.7777,0.7658,0.7453,0.7333,0.7261,0.7109,0.7095,0.7095,0.7095,0.7095,0.7095,0.7095,0.7095,0.7095,0.7095,0.7095,0.7095,0.7095,0.7095,0.7095,0.7095,0.7095,0.7095,0.7095,0.7095,0.7095,0.7095,0.7095,0.7095,0.7095,0.7095,0.7095,0.7095,0.7095,0.7095,0.7095,0.7095,0.7095,0.7095,0.7095,0.7095,0.7095,1.0543,1.0543,1.0543,1.0543,1.0122,0.9822,0.9822,0.9822,0.9822,0.9822,0.9822,0.9822,0.9822,0.9822,0.9822,0.9822,0.9822,0.9822,0.9822,0.9822,0.9822,0.9822,0.9822,0.9822,0.9822,0.9737,0.9666,0.9608,0.9517,0.9395,0.9299,0.9238,0.9163,0.9022,0.9022,0.8991,0.8892,0.9066,0.9079,0.9028,0.9089,0.9076,0.9022,0.9022,0.8988,0.8885,0.8885,0.8885,0.8885,0.8885,0.8885,0.8885,0.8885,0.8821,0.8791,0.8726,0.8584,0.8431,0.837,0.8245,0.813,0.813,0.8035,0.7988,0.7988,0.7988,0.7988,0.7988,0.7988,0.7988,0.7988,0.7988,0.7961,0.7916,0.7848,0.775,0.757,0.7495,0.7428,0.7333,0.7268,0.7231,0.7231,0.7132,0.7095,0.7095,0.7095,0.7095,0.7095,0.7095,0.7095,0.7095,0.7095,0.7095,0.7095,0.7095,0.7095,0.7095,0.7095,0.7095,0.7095,0.7095,0.7095,0.7095,0.7095,0.7095,0.7095,0.7095,0.7095,0.7095,0.7095,0.7095,0.7095,0.7095,0.7095,0.7095,1.1872,1.1872,1.1872,1.1872,1.0906,1.0122,1.0001,0.994,0.994,0.9822,0.9822,0.9822,0.9822,0.9822,0.9822,0.9822,0.9822,0.9822,0.9822,0.9822,0.9822,0.9822,0.9822,0.9822,0.9822,0.9822,0.9758,0.9629,0.9629,0.9551,0.9398,0.9316,0.9245,0.9231,0.9231,0.91,0.8939,0.9266,0.9357,0.9245,0.9323,0.9354,0.9231,0.9231,0.9083,0.8902,0.8902,0.8895,0.8885,0.8885,0.8885,0.8885,0.8885,0.8885,0.8854,0.8771,0.872,0.8679,0.854,0.8397,0.8337,0.8327,0.8214,0.8155,0.8041,0.7988,0.7988,0.7988,0.7988,0.7988,0.7988,0.7988,0.7988,0.7988,0.7923,0.7828,0.7814,0.7699,0.7614,0.76,0.7478,0.7439,0.7439,0.7251,0.7109,0.7098,0.7095,0.7139,0.7228,0.7139,0.7183,0.7356,0.7183,0.7139,0.7228,0.7139,0.7095,0.7095,0.7095,0.7095,0.7095,0.7095,0.7095,0.7095,0.7095,0.7095,0.7095,0.7095,0.7095,0.7095,0.7095,0.7095,0.7095,0.7095,0.7095,0.7095,1.3246,1.3246,1.3246,1.3246,1.3066,1.2526,1.145,1.1269,1.0906,0.994,0.9822,0.9822,0.9822,0.9822,0.9822,0.9822,0.9822,0.9822,0.9822,0.9822,0.9822,0.9822,0.9822,0.9822,0.9822,0.9822,0.9805,0.9774,0.9774,0.97,0.9557,0.9527,0.9445,0.9334,0.9334,0.9313,0.9289,0.9354,0.9361,0.9334,0.9367,0.9361,0.9334,0.9334,0.9239,0.9163,0.9163,0.9032,0.8885,0.8885,0.8885,0.8885,0.8885,0.8885,0.8875,0.8844,0.8804,0.8703,0.8669,0.855,0.8411,0.835,0.8849,0.9187,0.8215,0.7988,0.7988,0.7988,0.7988,0.7988,0.7988,0.7988,0.7988,0.7988,0.7961,0.7897,0.7828,0.7784,0.7726,0.7611,0.757,0.755,0.755,0.7411,0.7272,0.7105,0.7095,0.7404,0.8149,0.7489,0.7793,0.9226,0.7881,0.7445,0.8193,0.7448,0.7095,0.7095,0.7095,0.7095,0.7095,0.7095,0.7095,0.7095,0.7095,0.7095,0.7095,0.7095,0.7095,0.7095,0.7095,0.7095,0.7095,0.7095,0.7095,0.7095,1.4619,1.4619,1.4619,1.4619,1.4083,1.3485,1.2766,1.2651,1.2406,1.1744,1.1683,1.1683,1.1683,1.1683,1.1683,1.1683,1.1683,1.1386,1.0725,1.0728,1.0425,0.9819,0.9822,0.9822,0.9822,0.9822,0.9822,0.9822,0.9822,0.9781,0.9707,0.9642,0.9856,1.0412,1.0412,1.0371,1.0304,1.0465,1.0137,0.9496,0.9564,0.9551,0.949,0.949,0.9351,0.921,0.921,0.9059,0.8885,0.8885,0.8885,0.8885,0.8885,0.8885,0.8992,0.9588,0.9691,0.9783,1.0321,1.035,1.0245,1.0156,1.0412,1.0327,0.9057,0.8775,0.8775,0.8775,0.8775,0.8775,0.8775,0.8775,0.8924,0.946,0.8676,0.8159,0.8608,0.821,0.7892,0.7818,0.7746,0.7675,0.7607,0.7529,0.7417,0.7261,0.7251,0.7619,0.846,0.8017,0.8404,0.9836,0.8969,0.8667,0.9148,0.8663,0.8448,0.8444,0.7533,0.7095,0.7095,0.7095,0.7095,0.7095,0.7095,0.7095,0.7095,0.7095,0.7095,0.7095,0.7095,0.7095,0.7095,0.7095,0.7095,0.7095,1.593,1.593,1.593,1.593,1.5035,1.4262,1.4083,1.4023,1.3963,1.3725,1.3725,1.3725,1.3725,1.3725,1.3725,1.3725,1.3725,1.3246,1.2109,1.2049,1.1567,1.0482,1.0482,1.0482,1.0482,1.0482,1.0243,0.9822,0.9822,0.9822,0.9819,0.988,1.0528,1.1524,1.1761,1.1791,1.1724,1.198,1.1251,0.9951,1.0073,0.9932,0.9646,0.9646,0.9473,0.9282,0.9258,0.9083,0.8885,0.8885,0.8885,0.8885,0.8885,0.8885,0.9154,1.0347,1.0726,1.0945,1.2087,1.2339,1.225,1.2216,1.2071,1.1628,1.0479,1.0023,0.985,0.985,0.985,0.985,0.985,0.985,1.0145,1.1077,0.9706,0.8874,0.9752,0.9118,0.8528,0.8528,0.8461,0.8316,0.8211,0.8008,0.7851,0.7738,0.7524,0.7719,0.8508,0.8512,0.9017,1.0096,0.9966,0.9966,1.0139,0.9966,0.9879,0.9879,0.8313,0.7489,0.7316,0.7183,0.7095,0.7095,0.7095,0.7095,0.7095,0.7095,0.7095,0.7095,0.7095,0.7095,0.7095,0.7095,0.7095,0.7095,1.7244,1.7244,1.7244,1.7244,1.7126,1.6585,1.551,1.5332,1.4976,1.3844,1.3725,1.3725,1.3725,1.3725,1.3725,1.3725,1.3725,1.3605,1.3426,1.3426,1.3366,1.3186,1.3186,1.3186,1.3186,1.3186,1.2045,0.9822,0.9822,0.9822,0.9819,1.0884,1.1539,1.1715,1.2906,1.337,1.3406,1.3402,1.2633,1.1418,1.1442,1.0774,0.9791,0.9791,0.969,0.953,0.9398,0.9171,0.8885,0.8885,0.8885,0.8885,0.8885,0.8885,0.9154,1.0347,1.0726,1.0945,1.2087,1.2394,1.2328,1.225,1.2707,1.3076,1.2733,1.1791,1.0974,1.0974,1.0974,1.0974,1.0974,1.0974,1.1023,1.1175,1.0974,1.0832,1.0974,1.0881,1.0783,1.0783,1.0756,1.0708,1.055,0.9681,0.9088,0.8967,0.7989,0.7811,0.8722,0.8581,0.9283,1.1063,1.0318,1.0274,1.1106,1.0318,0.9879,0.9879,0.9662,0.91,0.8281,0.7492,0.7095,0.7095,0.7095,0.7095,0.7095,0.7095,0.7095,0.7095,0.7095,0.7095,0.7095,0.7095,0.7095,0.7095,1.7485,1.7485,1.7485,1.7485,1.7485,1.7303,1.6767,1.6644,1.6467,1.593,1.5811,1.5811,1.5811,1.5811,1.5811,1.5811,1.5811,1.551,1.4798,1.4738,1.4441,1.3725,1.3725,1.3725,1.3725,1.3725,1.3126,1.1985,1.1985,1.1623,1.0906,1.2225,1.3186,1.3899,1.45,1.4738,1.4738,1.4738,1.4023,1.2826,1.2826,1.2466,1.1985,1.1985,1.1751,1.1467,1.1182,1.098,1.0844,1.0844,1.0406,0.9915,0.9915,0.9427,0.9265,1.1109,1.1655,1.2032,1.3879,1.4369,1.4341,1.4285,1.4402,1.4522,1.4263,1.3662,1.2948,1.2175,1.2047,1.2047,1.2047,1.2047,1.2242,1.2829,1.195,1.1414,1.195,1.156,1.1219,1.1219,1.1219,1.1186,1.1139,1.0695,1.0372,1.0222,0.9707,0.9703,1.0383,1.0332,1.084,1.2057,1.166,1.166,1.21,1.166,1.144,1.144,1.0923,1.0188,0.9274,0.8838,0.836,0.7885,0.7885,0.758,0.7095,0.7095,0.7095,0.7095,0.7095,0.7095,0.7095,0.7095,0.7095,0.7095]}]]